<?xml version="1.0" encoding="UTF-8" standalone="no" ?>
<gpx xmlns="http://www.topografix.com/GPX/1/1" xmlns:xsi="http://www.w3.org/2001/XMLSchema-instance" xsi:schemaLocation="http://www.topografix.com/GPX/1/1 http://www.topografix.com/GPX/1/1/gpx.xsd" version="1.1" creator="VisuGPX - https://www.visugpx.com">
  <metadata>
    <name>col de parménie</name>
    <desc><![CDATA[traversée agréable]]></desc>
  </metadata>
  <trk>
    <name><![CDATA[2013_12_14Parmenie_reco]]></name>
    <trkseg>
      <trkpt lat="45.24516" lon="5.44536">
        <ele>311</ele>
        <time>2013-12-14T08:12:16Z</time>
      </trkpt>
      <trkpt lat="45.24516" lon="5.44536">
        <ele>311</ele>
        <time>2013-12-14T08:12:17Z</time>
      </trkpt>
      <trkpt lat="45.24519" lon="5.44535">
        <ele>311</ele>
        <time>2013-12-14T08:12:44Z</time>
      </trkpt>
      <trkpt lat="45.24515" lon="5.44534">
        <ele>311</ele>
        <time>2013-12-14T08:13:00Z</time>
      </trkpt>
      <trkpt lat="45.24517" lon="5.44533">
        <ele>311</ele>
        <time>2013-12-14T08:13:26Z</time>
      </trkpt>
      <trkpt lat="45.24516" lon="5.44534">
        <ele>311</ele>
        <time>2013-12-14T08:13:45Z</time>
      </trkpt>
      <trkpt lat="45.24515" lon="5.44534">
        <ele>310</ele>
        <time>2013-12-14T08:14:10Z</time>
      </trkpt>
      <trkpt lat="45.24514" lon="5.44526">
        <ele>311</ele>
        <time>2013-12-14T08:14:25Z</time>
      </trkpt>
      <trkpt lat="45.24505" lon="5.44522">
        <ele>311</ele>
        <time>2013-12-14T08:14:38Z</time>
      </trkpt>
      <trkpt lat="45.24497" lon="5.44521">
        <ele>311</ele>
        <time>2013-12-14T08:14:48Z</time>
      </trkpt>
      <trkpt lat="45.24491" lon="5.44521">
        <ele>311</ele>
        <time>2013-12-14T08:14:55Z</time>
      </trkpt>
      <trkpt lat="45.24486" lon="5.44521">
        <ele>311</ele>
        <time>2013-12-14T08:15:00Z</time>
      </trkpt>
      <trkpt lat="45.24466" lon="5.4452">
        <ele>310</ele>
        <time>2013-12-14T08:15:19Z</time>
      </trkpt>
      <trkpt lat="45.24449" lon="5.44518">
        <ele>310</ele>
        <time>2013-12-14T08:15:36Z</time>
      </trkpt>
      <trkpt lat="45.24434" lon="5.44514">
        <ele>310</ele>
        <time>2013-12-14T08:15:52Z</time>
      </trkpt>
      <trkpt lat="45.24429" lon="5.44512">
        <ele>310</ele>
        <time>2013-12-14T08:16:08Z</time>
      </trkpt>
      <trkpt lat="45.24423" lon="5.44508">
        <ele>309</ele>
        <time>2013-12-14T08:16:13Z</time>
      </trkpt>
      <trkpt lat="45.24404" lon="5.44501">
        <ele>310</ele>
        <time>2013-12-14T08:16:29Z</time>
      </trkpt>
      <trkpt lat="45.24391" lon="5.44496">
        <ele>309</ele>
        <time>2013-12-14T08:16:39Z</time>
      </trkpt>
      <trkpt lat="45.24377" lon="5.44491">
        <ele>309</ele>
        <time>2013-12-14T08:16:55Z</time>
      </trkpt>
      <trkpt lat="45.24372" lon="5.44489">
        <ele>309</ele>
        <time>2013-12-14T08:17:06Z</time>
      </trkpt>
      <trkpt lat="45.24371" lon="5.44487">
        <ele>309</ele>
        <time>2013-12-14T08:17:12Z</time>
      </trkpt>
      <trkpt lat="45.2437" lon="5.44482">
        <ele>310</ele>
        <time>2013-12-14T08:17:30Z</time>
      </trkpt>
      <trkpt lat="45.24368" lon="5.44481">
        <ele>309</ele>
        <time>2013-12-14T08:17:54Z</time>
      </trkpt>
      <trkpt lat="45.24355" lon="5.44468">
        <ele>310</ele>
        <time>2013-12-14T08:18:11Z</time>
      </trkpt>
      <trkpt lat="45.24354" lon="5.44466">
        <ele>309</ele>
        <time>2013-12-14T08:18:23Z</time>
      </trkpt>
      <trkpt lat="45.24356" lon="5.44457">
        <ele>310</ele>
        <time>2013-12-14T08:18:32Z</time>
      </trkpt>
      <trkpt lat="45.24357" lon="5.44435">
        <ele>310</ele>
        <time>2013-12-14T08:18:47Z</time>
      </trkpt>
      <trkpt lat="45.24357" lon="5.44416">
        <ele>311</ele>
        <time>2013-12-14T08:18:59Z</time>
      </trkpt>
      <trkpt lat="45.24358" lon="5.44393">
        <ele>312</ele>
        <time>2013-12-14T08:19:14Z</time>
      </trkpt>
      <trkpt lat="45.24351" lon="5.44369">
        <ele>313</ele>
        <time>2013-12-14T08:19:30Z</time>
      </trkpt>
      <trkpt lat="45.24342" lon="5.4435">
        <ele>314</ele>
        <time>2013-12-14T08:19:45Z</time>
      </trkpt>
      <trkpt lat="45.24331" lon="5.4433">
        <ele>315</ele>
        <time>2013-12-14T08:20:01Z</time>
      </trkpt>
      <trkpt lat="45.24327" lon="5.4431">
        <ele>317</ele>
        <time>2013-12-14T08:20:16Z</time>
      </trkpt>
      <trkpt lat="45.24333" lon="5.44285">
        <ele>317</ele>
        <time>2013-12-14T08:20:35Z</time>
      </trkpt>
      <trkpt lat="45.24337" lon="5.4427">
        <ele>318</ele>
        <time>2013-12-14T08:20:50Z</time>
      </trkpt>
      <trkpt lat="45.24342" lon="5.44248">
        <ele>320</ele>
        <time>2013-12-14T08:21:06Z</time>
      </trkpt>
      <trkpt lat="45.24344" lon="5.44231">
        <ele>320</ele>
        <time>2013-12-14T08:21:21Z</time>
      </trkpt>
      <trkpt lat="45.24343" lon="5.44214">
        <ele>322</ele>
        <time>2013-12-14T08:21:35Z</time>
      </trkpt>
      <trkpt lat="45.24343" lon="5.44213">
        <ele>321</ele>
        <time>2013-12-14T08:21:36Z</time>
      </trkpt>
      <trkpt lat="45.24346" lon="5.44187">
        <ele>323</ele>
        <time>2013-12-14T08:21:50Z</time>
      </trkpt>
      <trkpt lat="45.24351" lon="5.44167">
        <ele>324</ele>
        <time>2013-12-14T08:22:03Z</time>
      </trkpt>
      <trkpt lat="45.24357" lon="5.4415">
        <ele>325</ele>
        <time>2013-12-14T08:22:18Z</time>
      </trkpt>
      <trkpt lat="45.24366" lon="5.44129">
        <ele>326</ele>
        <time>2013-12-14T08:22:34Z</time>
      </trkpt>
      <trkpt lat="45.24373" lon="5.44106">
        <ele>328</ele>
        <time>2013-12-14T08:22:52Z</time>
      </trkpt>
      <trkpt lat="45.24377" lon="5.44087">
        <ele>330</ele>
        <time>2013-12-14T08:23:06Z</time>
      </trkpt>
      <trkpt lat="45.24381" lon="5.44068">
        <ele>332</ele>
        <time>2013-12-14T08:23:21Z</time>
      </trkpt>
      <trkpt lat="45.24383" lon="5.44063">
        <ele>332</ele>
        <time>2013-12-14T08:23:29Z</time>
      </trkpt>
      <trkpt lat="45.2439" lon="5.44052">
        <ele>334</ele>
        <time>2013-12-14T08:23:45Z</time>
      </trkpt>
      <trkpt lat="45.24399" lon="5.44047">
        <ele>335</ele>
        <time>2013-12-14T08:23:57Z</time>
      </trkpt>
      <trkpt lat="45.24411" lon="5.44038">
        <ele>336</ele>
        <time>2013-12-14T08:24:10Z</time>
      </trkpt>
      <trkpt lat="45.24425" lon="5.44031">
        <ele>338</ele>
        <time>2013-12-14T08:24:25Z</time>
      </trkpt>
      <trkpt lat="45.24438" lon="5.44021">
        <ele>339</ele>
        <time>2013-12-14T08:24:40Z</time>
      </trkpt>
      <trkpt lat="45.24449" lon="5.44012">
        <ele>340</ele>
        <time>2013-12-14T08:24:54Z</time>
      </trkpt>
      <trkpt lat="45.24461" lon="5.43997">
        <ele>341</ele>
        <time>2013-12-14T08:25:11Z</time>
      </trkpt>
      <trkpt lat="45.24462" lon="5.43994">
        <ele>342</ele>
        <time>2013-12-14T08:25:13Z</time>
      </trkpt>
      <trkpt lat="45.24473" lon="5.43972">
        <ele>342</ele>
        <time>2013-12-14T08:25:29Z</time>
      </trkpt>
      <trkpt lat="45.24476" lon="5.43955">
        <ele>341</ele>
        <time>2013-12-14T08:25:42Z</time>
      </trkpt>
      <trkpt lat="45.24477" lon="5.43942">
        <ele>342</ele>
        <time>2013-12-14T08:25:50Z</time>
      </trkpt>
      <trkpt lat="45.24479" lon="5.43926">
        <ele>343</ele>
        <time>2013-12-14T08:26:04Z</time>
      </trkpt>
      <trkpt lat="45.24482" lon="5.43921">
        <ele>342</ele>
        <time>2013-12-14T08:26:14Z</time>
      </trkpt>
      <trkpt lat="45.2448" lon="5.43909">
        <ele>343</ele>
        <time>2013-12-14T08:26:26Z</time>
      </trkpt>
      <trkpt lat="45.24479" lon="5.43902">
        <ele>343</ele>
        <time>2013-12-14T08:26:44Z</time>
      </trkpt>
      <trkpt lat="45.24479" lon="5.43899">
        <ele>343</ele>
        <time>2013-12-14T08:27:19Z</time>
      </trkpt>
      <trkpt lat="45.24483" lon="5.43902">
        <ele>341</ele>
        <time>2013-12-14T08:27:42Z</time>
      </trkpt>
      <trkpt lat="45.24487" lon="5.43904">
        <ele>341</ele>
        <time>2013-12-14T08:27:59Z</time>
      </trkpt>
      <trkpt lat="45.24488" lon="5.43902">
        <ele>342</ele>
        <time>2013-12-14T08:28:17Z</time>
      </trkpt>
      <trkpt lat="45.24486" lon="5.43904">
        <ele>341</ele>
        <time>2013-12-14T08:28:31Z</time>
      </trkpt>
      <trkpt lat="45.24493" lon="5.43904">
        <ele>341</ele>
        <time>2013-12-14T08:28:48Z</time>
      </trkpt>
      <trkpt lat="45.24494" lon="5.43901">
        <ele>341</ele>
        <time>2013-12-14T08:29:11Z</time>
      </trkpt>
      <trkpt lat="45.2449" lon="5.439">
        <ele>340</ele>
        <time>2013-12-14T08:29:30Z</time>
      </trkpt>
      <trkpt lat="45.24493" lon="5.43901">
        <ele>340</ele>
        <time>2013-12-14T08:29:52Z</time>
      </trkpt>
      <trkpt lat="45.24491" lon="5.43898">
        <ele>340</ele>
        <time>2013-12-14T08:30:08Z</time>
      </trkpt>
      <trkpt lat="45.24493" lon="5.43891">
        <ele>340</ele>
        <time>2013-12-14T08:30:15Z</time>
      </trkpt>
      <trkpt lat="45.24508" lon="5.43873">
        <ele>341</ele>
        <time>2013-12-14T08:30:32Z</time>
      </trkpt>
      <trkpt lat="45.24518" lon="5.43864">
        <ele>342</ele>
        <time>2013-12-14T08:30:45Z</time>
      </trkpt>
      <trkpt lat="45.24528" lon="5.43853">
        <ele>342</ele>
        <time>2013-12-14T08:30:56Z</time>
      </trkpt>
      <trkpt lat="45.24541" lon="5.43838">
        <ele>344</ele>
        <time>2013-12-14T08:31:10Z</time>
      </trkpt>
      <trkpt lat="45.24549" lon="5.43825">
        <ele>345</ele>
        <time>2013-12-14T08:31:21Z</time>
      </trkpt>
      <trkpt lat="45.24563" lon="5.43809">
        <ele>347</ele>
        <time>2013-12-14T08:31:35Z</time>
      </trkpt>
      <trkpt lat="45.24577" lon="5.43799">
        <ele>348</ele>
        <time>2013-12-14T08:31:49Z</time>
      </trkpt>
      <trkpt lat="45.24586" lon="5.43795">
        <ele>348</ele>
        <time>2013-12-14T08:32:02Z</time>
      </trkpt>
      <trkpt lat="45.24597" lon="5.43788">
        <ele>348</ele>
        <time>2013-12-14T08:32:13Z</time>
      </trkpt>
      <trkpt lat="45.24607" lon="5.43789">
        <ele>348</ele>
        <time>2013-12-14T08:32:25Z</time>
      </trkpt>
      <trkpt lat="45.24618" lon="5.43784">
        <ele>348</ele>
        <time>2013-12-14T08:32:36Z</time>
      </trkpt>
      <trkpt lat="45.24628" lon="5.43776">
        <ele>349</ele>
        <time>2013-12-14T08:32:48Z</time>
      </trkpt>
      <trkpt lat="45.24638" lon="5.43768">
        <ele>350</ele>
        <time>2013-12-14T08:32:59Z</time>
      </trkpt>
      <trkpt lat="45.24655" lon="5.43768">
        <ele>350</ele>
        <time>2013-12-14T08:33:13Z</time>
      </trkpt>
      <trkpt lat="45.2467" lon="5.43767">
        <ele>350</ele>
        <time>2013-12-14T08:33:26Z</time>
      </trkpt>
      <trkpt lat="45.24681" lon="5.43762">
        <ele>349</ele>
        <time>2013-12-14T08:33:38Z</time>
      </trkpt>
      <trkpt lat="45.24694" lon="5.43753">
        <ele>349</ele>
        <time>2013-12-14T08:33:50Z</time>
      </trkpt>
      <trkpt lat="45.24702" lon="5.43743">
        <ele>349</ele>
        <time>2013-12-14T08:34:01Z</time>
      </trkpt>
      <trkpt lat="45.24712" lon="5.43734">
        <ele>348</ele>
        <time>2013-12-14T08:34:15Z</time>
      </trkpt>
      <trkpt lat="45.24723" lon="5.43719">
        <ele>348</ele>
        <time>2013-12-14T08:34:27Z</time>
      </trkpt>
      <trkpt lat="45.24734" lon="5.43713">
        <ele>349</ele>
        <time>2013-12-14T08:34:41Z</time>
      </trkpt>
      <trkpt lat="45.24739" lon="5.43711">
        <ele>350</ele>
        <time>2013-12-14T08:34:47Z</time>
      </trkpt>
      <trkpt lat="45.24765" lon="5.4369">
        <ele>350</ele>
        <time>2013-12-14T08:35:03Z</time>
      </trkpt>
      <trkpt lat="45.24774" lon="5.43687">
        <ele>350</ele>
        <time>2013-12-14T08:35:14Z</time>
      </trkpt>
      <trkpt lat="45.24788" lon="5.43681">
        <ele>350</ele>
        <time>2013-12-14T08:35:29Z</time>
      </trkpt>
      <trkpt lat="45.24808" lon="5.43678">
        <ele>351</ele>
        <time>2013-12-14T08:35:43Z</time>
      </trkpt>
      <trkpt lat="45.24823" lon="5.43674">
        <ele>351</ele>
        <time>2013-12-14T08:35:56Z</time>
      </trkpt>
      <trkpt lat="45.24838" lon="5.4367">
        <ele>351</ele>
        <time>2013-12-14T08:36:11Z</time>
      </trkpt>
      <trkpt lat="45.24841" lon="5.43669">
        <ele>351</ele>
        <time>2013-12-14T08:36:14Z</time>
      </trkpt>
      <trkpt lat="45.24855" lon="5.43666">
        <ele>350</ele>
        <time>2013-12-14T08:36:27Z</time>
      </trkpt>
      <trkpt lat="45.2487" lon="5.4366">
        <ele>351</ele>
        <time>2013-12-14T08:36:40Z</time>
      </trkpt>
      <trkpt lat="45.24875" lon="5.4366">
        <ele>351</ele>
        <time>2013-12-14T08:36:56Z</time>
      </trkpt>
      <trkpt lat="45.24885" lon="5.4365">
        <ele>351</ele>
        <time>2013-12-14T08:37:08Z</time>
      </trkpt>
      <trkpt lat="45.24893" lon="5.43642">
        <ele>352</ele>
        <time>2013-12-14T08:37:17Z</time>
      </trkpt>
      <trkpt lat="45.24901" lon="5.43638">
        <ele>353</ele>
        <time>2013-12-14T08:37:27Z</time>
      </trkpt>
      <trkpt lat="45.24914" lon="5.43631">
        <ele>353</ele>
        <time>2013-12-14T08:37:40Z</time>
      </trkpt>
      <trkpt lat="45.24928" lon="5.43624">
        <ele>354</ele>
        <time>2013-12-14T08:37:54Z</time>
      </trkpt>
      <trkpt lat="45.2494" lon="5.43619">
        <ele>355</ele>
        <time>2013-12-14T08:38:05Z</time>
      </trkpt>
      <trkpt lat="45.24957" lon="5.43616">
        <ele>356</ele>
        <time>2013-12-14T08:38:20Z</time>
      </trkpt>
      <trkpt lat="45.24971" lon="5.43612">
        <ele>356</ele>
        <time>2013-12-14T08:38:33Z</time>
      </trkpt>
      <trkpt lat="45.24987" lon="5.43608">
        <ele>358</ele>
        <time>2013-12-14T08:38:47Z</time>
      </trkpt>
      <trkpt lat="45.24993" lon="5.43606">
        <ele>358</ele>
        <time>2013-12-14T08:38:53Z</time>
      </trkpt>
      <trkpt lat="45.25005" lon="5.43604">
        <ele>359</ele>
        <time>2013-12-14T08:39:04Z</time>
      </trkpt>
      <trkpt lat="45.25008" lon="5.43604">
        <ele>360</ele>
        <time>2013-12-14T08:39:07Z</time>
      </trkpt>
      <trkpt lat="45.25024" lon="5.4361">
        <ele>360</ele>
        <time>2013-12-14T08:39:21Z</time>
      </trkpt>
      <trkpt lat="45.25033" lon="5.43611">
        <ele>361</ele>
        <time>2013-12-14T08:39:32Z</time>
      </trkpt>
      <trkpt lat="45.25041" lon="5.43611">
        <ele>361</ele>
        <time>2013-12-14T08:39:44Z</time>
      </trkpt>
      <trkpt lat="45.25043" lon="5.4361">
        <ele>361</ele>
        <time>2013-12-14T08:39:47Z</time>
      </trkpt>
      <trkpt lat="45.25068" lon="5.43606">
        <ele>362</ele>
        <time>2013-12-14T08:40:01Z</time>
      </trkpt>
      <trkpt lat="45.25081" lon="5.43603">
        <ele>362</ele>
        <time>2013-12-14T08:40:12Z</time>
      </trkpt>
      <trkpt lat="45.25093" lon="5.43604">
        <ele>362</ele>
        <time>2013-12-14T08:40:24Z</time>
      </trkpt>
      <trkpt lat="45.25102" lon="5.43602">
        <ele>363</ele>
        <time>2013-12-14T08:40:36Z</time>
      </trkpt>
      <trkpt lat="45.25106" lon="5.43602">
        <ele>363</ele>
        <time>2013-12-14T08:40:40Z</time>
      </trkpt>
      <trkpt lat="45.25118" lon="5.43598">
        <ele>364</ele>
        <time>2013-12-14T08:40:53Z</time>
      </trkpt>
      <trkpt lat="45.25126" lon="5.43599">
        <ele>363</ele>
        <time>2013-12-14T08:41:08Z</time>
      </trkpt>
      <trkpt lat="45.25129" lon="5.43597">
        <ele>364</ele>
        <time>2013-12-14T08:41:21Z</time>
      </trkpt>
      <trkpt lat="45.25131" lon="5.43597">
        <ele>364</ele>
        <time>2013-12-14T08:41:32Z</time>
      </trkpt>
      <trkpt lat="45.25137" lon="5.43593">
        <ele>364</ele>
        <time>2013-12-14T08:41:44Z</time>
      </trkpt>
      <trkpt lat="45.25141" lon="5.43588">
        <ele>365</ele>
        <time>2013-12-14T08:41:56Z</time>
      </trkpt>
      <trkpt lat="45.25149" lon="5.43591">
        <ele>364</ele>
        <time>2013-12-14T08:42:09Z</time>
      </trkpt>
      <trkpt lat="45.25163" lon="5.43597">
        <ele>365</ele>
        <time>2013-12-14T08:42:21Z</time>
      </trkpt>
      <trkpt lat="45.25178" lon="5.43606">
        <ele>365</ele>
        <time>2013-12-14T08:42:36Z</time>
      </trkpt>
      <trkpt lat="45.25182" lon="5.43612">
        <ele>365</ele>
        <time>2013-12-14T08:42:42Z</time>
      </trkpt>
      <trkpt lat="45.25185" lon="5.43614">
        <ele>365</ele>
        <time>2013-12-14T08:42:44Z</time>
      </trkpt>
      <trkpt lat="45.25198" lon="5.43625">
        <ele>365</ele>
        <time>2013-12-14T08:42:57Z</time>
      </trkpt>
      <trkpt lat="45.25212" lon="5.43636">
        <ele>365</ele>
        <time>2013-12-14T08:43:11Z</time>
      </trkpt>
      <trkpt lat="45.25222" lon="5.43641">
        <ele>366</ele>
        <time>2013-12-14T08:43:22Z</time>
      </trkpt>
      <trkpt lat="45.25235" lon="5.43647">
        <ele>366</ele>
        <time>2013-12-14T08:43:35Z</time>
      </trkpt>
      <trkpt lat="45.25247" lon="5.43657">
        <ele>365</ele>
        <time>2013-12-14T08:43:51Z</time>
      </trkpt>
      <trkpt lat="45.25259" lon="5.43664">
        <ele>364</ele>
        <time>2013-12-14T08:44:01Z</time>
      </trkpt>
      <trkpt lat="45.25273" lon="5.43679">
        <ele>364</ele>
        <time>2013-12-14T08:44:14Z</time>
      </trkpt>
      <trkpt lat="45.25285" lon="5.43695">
        <ele>363</ele>
        <time>2013-12-14T08:44:26Z</time>
      </trkpt>
      <trkpt lat="45.25296" lon="5.43707">
        <ele>363</ele>
        <time>2013-12-14T08:44:39Z</time>
      </trkpt>
      <trkpt lat="45.25297" lon="5.43708">
        <ele>363</ele>
        <time>2013-12-14T08:44:45Z</time>
      </trkpt>
      <trkpt lat="45.2531" lon="5.43717">
        <ele>364</ele>
        <time>2013-12-14T08:44:59Z</time>
      </trkpt>
      <trkpt lat="45.25326" lon="5.43728">
        <ele>364</ele>
        <time>2013-12-14T08:45:15Z</time>
      </trkpt>
      <trkpt lat="45.25339" lon="5.43736">
        <ele>365</ele>
        <time>2013-12-14T08:45:29Z</time>
      </trkpt>
      <trkpt lat="45.25353" lon="5.43742">
        <ele>366</ele>
        <time>2013-12-14T08:45:42Z</time>
      </trkpt>
      <trkpt lat="45.25354" lon="5.43743">
        <ele>366</ele>
        <time>2013-12-14T08:45:43Z</time>
      </trkpt>
      <trkpt lat="45.25371" lon="5.43753">
        <ele>366</ele>
        <time>2013-12-14T08:45:58Z</time>
      </trkpt>
      <trkpt lat="45.25381" lon="5.4376">
        <ele>367</ele>
        <time>2013-12-14T08:46:08Z</time>
      </trkpt>
      <trkpt lat="45.25394" lon="5.43765">
        <ele>368</ele>
        <time>2013-12-14T08:46:20Z</time>
      </trkpt>
      <trkpt lat="45.25403" lon="5.43767">
        <ele>368</ele>
        <time>2013-12-14T08:46:31Z</time>
      </trkpt>
      <trkpt lat="45.25413" lon="5.43771">
        <ele>369</ele>
        <time>2013-12-14T08:46:44Z</time>
      </trkpt>
      <trkpt lat="45.25425" lon="5.43773">
        <ele>370</ele>
        <time>2013-12-14T08:46:59Z</time>
      </trkpt>
      <trkpt lat="45.25439" lon="5.43777">
        <ele>370</ele>
        <time>2013-12-14T08:47:11Z</time>
      </trkpt>
      <trkpt lat="45.25451" lon="5.43778">
        <ele>371</ele>
        <time>2013-12-14T08:47:24Z</time>
      </trkpt>
      <trkpt lat="45.25462" lon="5.4378">
        <ele>371</ele>
        <time>2013-12-14T08:47:35Z</time>
      </trkpt>
      <trkpt lat="45.25473" lon="5.43783">
        <ele>372</ele>
        <time>2013-12-14T08:47:46Z</time>
      </trkpt>
      <trkpt lat="45.25487" lon="5.43781">
        <ele>372</ele>
        <time>2013-12-14T08:47:58Z</time>
      </trkpt>
      <trkpt lat="45.25497" lon="5.43782">
        <ele>372</ele>
        <time>2013-12-14T08:48:06Z</time>
      </trkpt>
      <trkpt lat="45.25511" lon="5.43786">
        <ele>372</ele>
        <time>2013-12-14T08:48:18Z</time>
      </trkpt>
      <trkpt lat="45.25527" lon="5.43788">
        <ele>372</ele>
        <time>2013-12-14T08:48:31Z</time>
      </trkpt>
      <trkpt lat="45.25543" lon="5.43797">
        <ele>372</ele>
        <time>2013-12-14T08:48:44Z</time>
      </trkpt>
      <trkpt lat="45.25555" lon="5.43801">
        <ele>370</ele>
        <time>2013-12-14T08:48:55Z</time>
      </trkpt>
      <trkpt lat="45.25571" lon="5.43806">
        <ele>368</ele>
        <time>2013-12-14T08:49:10Z</time>
      </trkpt>
      <trkpt lat="45.25573" lon="5.43808">
        <ele>368</ele>
        <time>2013-12-14T08:49:12Z</time>
      </trkpt>
      <trkpt lat="45.25588" lon="5.43813">
        <ele>364</ele>
        <time>2013-12-14T08:49:27Z</time>
      </trkpt>
      <trkpt lat="45.25605" lon="5.43821">
        <ele>364</ele>
        <time>2013-12-14T08:49:43Z</time>
      </trkpt>
      <trkpt lat="45.25616" lon="5.43825">
        <ele>364</ele>
        <time>2013-12-14T08:49:52Z</time>
      </trkpt>
      <trkpt lat="45.25627" lon="5.43828">
        <ele>365</ele>
        <time>2013-12-14T08:50:03Z</time>
      </trkpt>
      <trkpt lat="45.2564" lon="5.43831">
        <ele>366</ele>
        <time>2013-12-14T08:50:16Z</time>
      </trkpt>
      <trkpt lat="45.25653" lon="5.43833">
        <ele>368</ele>
        <time>2013-12-14T08:50:28Z</time>
      </trkpt>
      <trkpt lat="45.25665" lon="5.43835">
        <ele>368</ele>
        <time>2013-12-14T08:50:39Z</time>
      </trkpt>
      <trkpt lat="45.25675" lon="5.43836">
        <ele>370</ele>
        <time>2013-12-14T08:50:50Z</time>
      </trkpt>
      <trkpt lat="45.25685" lon="5.43838">
        <ele>371</ele>
        <time>2013-12-14T08:51:00Z</time>
      </trkpt>
      <trkpt lat="45.25697" lon="5.43838">
        <ele>373</ele>
        <time>2013-12-14T08:51:11Z</time>
      </trkpt>
      <trkpt lat="45.25709" lon="5.43837">
        <ele>374</ele>
        <time>2013-12-14T08:51:23Z</time>
      </trkpt>
      <trkpt lat="45.25723" lon="5.43839">
        <ele>375</ele>
        <time>2013-12-14T08:51:36Z</time>
      </trkpt>
      <trkpt lat="45.25735" lon="5.43846">
        <ele>375</ele>
        <time>2013-12-14T08:51:48Z</time>
      </trkpt>
      <trkpt lat="45.25745" lon="5.43853">
        <ele>375</ele>
        <time>2013-12-14T08:51:59Z</time>
      </trkpt>
      <trkpt lat="45.2576" lon="5.43861">
        <ele>375</ele>
        <time>2013-12-14T08:52:13Z</time>
      </trkpt>
      <trkpt lat="45.25763" lon="5.43863">
        <ele>376</ele>
        <time>2013-12-14T08:52:16Z</time>
      </trkpt>
      <trkpt lat="45.25774" lon="5.43876">
        <ele>375</ele>
        <time>2013-12-14T08:52:31Z</time>
      </trkpt>
      <trkpt lat="45.2578" lon="5.43882">
        <ele>376</ele>
        <time>2013-12-14T08:52:39Z</time>
      </trkpt>
      <trkpt lat="45.25787" lon="5.43888">
        <ele>376</ele>
        <time>2013-12-14T08:52:47Z</time>
      </trkpt>
      <trkpt lat="45.258" lon="5.43896">
        <ele>378</ele>
        <time>2013-12-14T08:53:01Z</time>
      </trkpt>
      <trkpt lat="45.25803" lon="5.43898">
        <ele>378</ele>
        <time>2013-12-14T08:53:04Z</time>
      </trkpt>
      <trkpt lat="45.25815" lon="5.43901">
        <ele>379</ele>
        <time>2013-12-14T08:53:17Z</time>
      </trkpt>
      <trkpt lat="45.25826" lon="5.439">
        <ele>381</ele>
        <time>2013-12-14T08:53:29Z</time>
      </trkpt>
      <trkpt lat="45.25837" lon="5.43901">
        <ele>380</ele>
        <time>2013-12-14T08:53:41Z</time>
      </trkpt>
      <trkpt lat="45.25838" lon="5.43902">
        <ele>380</ele>
        <time>2013-12-14T08:53:42Z</time>
      </trkpt>
      <trkpt lat="45.25848" lon="5.43907">
        <ele>378</ele>
        <time>2013-12-14T08:53:53Z</time>
      </trkpt>
      <trkpt lat="45.25855" lon="5.43911">
        <ele>378</ele>
        <time>2013-12-14T08:54:02Z</time>
      </trkpt>
      <trkpt lat="45.25869" lon="5.43921">
        <ele>376</ele>
        <time>2013-12-14T08:54:15Z</time>
      </trkpt>
      <trkpt lat="45.25882" lon="5.43929">
        <ele>376</ele>
        <time>2013-12-14T08:54:28Z</time>
      </trkpt>
      <trkpt lat="45.25884" lon="5.43931">
        <ele>376</ele>
        <time>2013-12-14T08:54:30Z</time>
      </trkpt>
      <trkpt lat="45.25897" lon="5.4394">
        <ele>375</ele>
        <time>2013-12-14T08:54:42Z</time>
      </trkpt>
      <trkpt lat="45.25899" lon="5.4394">
        <ele>374</ele>
        <time>2013-12-14T08:54:43Z</time>
      </trkpt>
      <trkpt lat="45.25911" lon="5.43943">
        <ele>374</ele>
        <time>2013-12-14T08:54:55Z</time>
      </trkpt>
      <trkpt lat="45.25924" lon="5.43951">
        <ele>373</ele>
        <time>2013-12-14T08:55:08Z</time>
      </trkpt>
      <trkpt lat="45.25936" lon="5.43958">
        <ele>373</ele>
        <time>2013-12-14T08:55:20Z</time>
      </trkpt>
      <trkpt lat="45.25944" lon="5.43963">
        <ele>373</ele>
        <time>2013-12-14T08:55:29Z</time>
      </trkpt>
      <trkpt lat="45.25952" lon="5.43969">
        <ele>374</ele>
        <time>2013-12-14T08:55:41Z</time>
      </trkpt>
      <trkpt lat="45.25962" lon="5.4398">
        <ele>375</ele>
        <time>2013-12-14T08:55:54Z</time>
      </trkpt>
      <trkpt lat="45.2597" lon="5.43991">
        <ele>376</ele>
        <time>2013-12-14T08:56:09Z</time>
      </trkpt>
      <trkpt lat="45.25977" lon="5.43999">
        <ele>379</ele>
        <time>2013-12-14T08:56:22Z</time>
      </trkpt>
      <trkpt lat="45.25986" lon="5.44003">
        <ele>379</ele>
        <time>2013-12-14T08:56:35Z</time>
      </trkpt>
      <trkpt lat="45.25996" lon="5.44006">
        <ele>381</ele>
        <time>2013-12-14T08:56:48Z</time>
      </trkpt>
      <trkpt lat="45.26008" lon="5.44009">
        <ele>381</ele>
        <time>2013-12-14T08:56:59Z</time>
      </trkpt>
      <trkpt lat="45.26019" lon="5.44011">
        <ele>382</ele>
        <time>2013-12-14T08:57:10Z</time>
      </trkpt>
      <trkpt lat="45.26032" lon="5.44017">
        <ele>382</ele>
        <time>2013-12-14T08:57:21Z</time>
      </trkpt>
      <trkpt lat="45.26046" lon="5.44022">
        <ele>383</ele>
        <time>2013-12-14T08:57:33Z</time>
      </trkpt>
      <trkpt lat="45.26049" lon="5.44023">
        <ele>383</ele>
        <time>2013-12-14T08:57:36Z</time>
      </trkpt>
      <trkpt lat="45.26062" lon="5.44029">
        <ele>383</ele>
        <time>2013-12-14T08:57:47Z</time>
      </trkpt>
      <trkpt lat="45.26073" lon="5.44033">
        <ele>384</ele>
        <time>2013-12-14T08:57:59Z</time>
      </trkpt>
      <trkpt lat="45.2608" lon="5.44035">
        <ele>385</ele>
        <time>2013-12-14T08:58:08Z</time>
      </trkpt>
      <trkpt lat="45.26096" lon="5.4404">
        <ele>385</ele>
        <time>2013-12-14T08:58:21Z</time>
      </trkpt>
      <trkpt lat="45.26108" lon="5.44047">
        <ele>387</ele>
        <time>2013-12-14T08:58:33Z</time>
      </trkpt>
      <trkpt lat="45.26109" lon="5.44048">
        <ele>387</ele>
        <time>2013-12-14T08:58:34Z</time>
      </trkpt>
      <trkpt lat="45.26118" lon="5.44052">
        <ele>388</ele>
        <time>2013-12-14T08:58:42Z</time>
      </trkpt>
      <trkpt lat="45.26122" lon="5.44056">
        <ele>388</ele>
        <time>2013-12-14T08:58:46Z</time>
      </trkpt>
      <trkpt lat="45.26138" lon="5.44065">
        <ele>389</ele>
        <time>2013-12-14T08:58:59Z</time>
      </trkpt>
      <trkpt lat="45.26139" lon="5.44065">
        <ele>389</ele>
        <time>2013-12-14T08:59:00Z</time>
      </trkpt>
      <trkpt lat="45.26152" lon="5.44072">
        <ele>390</ele>
        <time>2013-12-14T08:59:12Z</time>
      </trkpt>
      <trkpt lat="45.26162" lon="5.44074">
        <ele>392</ele>
        <time>2013-12-14T08:59:22Z</time>
      </trkpt>
      <trkpt lat="45.26173" lon="5.44077">
        <ele>393</ele>
        <time>2013-12-14T08:59:32Z</time>
      </trkpt>
      <trkpt lat="45.26181" lon="5.44076">
        <ele>394</ele>
        <time>2013-12-14T08:59:42Z</time>
      </trkpt>
      <trkpt lat="45.26194" lon="5.44072">
        <ele>395</ele>
        <time>2013-12-14T08:59:55Z</time>
      </trkpt>
      <trkpt lat="45.26195" lon="5.44073">
        <ele>396</ele>
        <time>2013-12-14T08:59:56Z</time>
      </trkpt>
      <trkpt lat="45.26207" lon="5.44075">
        <ele>396</ele>
        <time>2013-12-14T09:00:07Z</time>
      </trkpt>
      <trkpt lat="45.26216" lon="5.44077">
        <ele>396</ele>
        <time>2013-12-14T09:00:19Z</time>
      </trkpt>
      <trkpt lat="45.26224" lon="5.44078">
        <ele>396</ele>
        <time>2013-12-14T09:00:30Z</time>
      </trkpt>
      <trkpt lat="45.26225" lon="5.44078">
        <ele>396</ele>
        <time>2013-12-14T09:00:31Z</time>
      </trkpt>
      <trkpt lat="45.2623" lon="5.4408">
        <ele>395</ele>
        <time>2013-12-14T09:00:37Z</time>
      </trkpt>
      <trkpt lat="45.2624" lon="5.4408">
        <ele>395</ele>
        <time>2013-12-14T09:00:45Z</time>
      </trkpt>
      <trkpt lat="45.26247" lon="5.4408">
        <ele>395</ele>
        <time>2013-12-14T09:00:51Z</time>
      </trkpt>
      <trkpt lat="45.26256" lon="5.44082">
        <ele>395</ele>
        <time>2013-12-14T09:00:58Z</time>
      </trkpt>
      <trkpt lat="45.26271" lon="5.44089">
        <ele>395</ele>
        <time>2013-12-14T09:01:10Z</time>
      </trkpt>
      <trkpt lat="45.26285" lon="5.44091">
        <ele>395</ele>
        <time>2013-12-14T09:01:23Z</time>
      </trkpt>
      <trkpt lat="45.26291" lon="5.44091">
        <ele>395</ele>
        <time>2013-12-14T09:01:28Z</time>
      </trkpt>
      <trkpt lat="45.26293" lon="5.44093">
        <ele>395</ele>
        <time>2013-12-14T09:01:30Z</time>
      </trkpt>
      <trkpt lat="45.26308" lon="5.44095">
        <ele>396</ele>
        <time>2013-12-14T09:01:44Z</time>
      </trkpt>
      <trkpt lat="45.26315" lon="5.44094">
        <ele>396</ele>
        <time>2013-12-14T09:01:52Z</time>
      </trkpt>
      <trkpt lat="45.26328" lon="5.44095">
        <ele>396</ele>
        <time>2013-12-14T09:02:05Z</time>
      </trkpt>
      <trkpt lat="45.26342" lon="5.44095">
        <ele>397</ele>
        <time>2013-12-14T09:02:18Z</time>
      </trkpt>
      <trkpt lat="45.26353" lon="5.44096">
        <ele>398</ele>
        <time>2013-12-14T09:02:29Z</time>
      </trkpt>
      <trkpt lat="45.26366" lon="5.44095">
        <ele>399</ele>
        <time>2013-12-14T09:02:41Z</time>
      </trkpt>
      <trkpt lat="45.26376" lon="5.44092">
        <ele>400</ele>
        <time>2013-12-14T09:02:51Z</time>
      </trkpt>
      <trkpt lat="45.26391" lon="5.4409">
        <ele>402</ele>
        <time>2013-12-14T09:03:04Z</time>
      </trkpt>
      <trkpt lat="45.26405" lon="5.44087">
        <ele>403</ele>
        <time>2013-12-14T09:03:17Z</time>
      </trkpt>
      <trkpt lat="45.26415" lon="5.44086">
        <ele>404</ele>
        <time>2013-12-14T09:03:28Z</time>
      </trkpt>
      <trkpt lat="45.26427" lon="5.44084">
        <ele>405</ele>
        <time>2013-12-14T09:03:39Z</time>
      </trkpt>
      <trkpt lat="45.26428" lon="5.44084">
        <ele>405</ele>
        <time>2013-12-14T09:03:41Z</time>
      </trkpt>
      <trkpt lat="45.26441" lon="5.44082">
        <ele>405</ele>
        <time>2013-12-14T09:03:55Z</time>
      </trkpt>
      <trkpt lat="45.26454" lon="5.44083">
        <ele>405</ele>
        <time>2013-12-14T09:04:08Z</time>
      </trkpt>
      <trkpt lat="45.26471" lon="5.44089">
        <ele>404</ele>
        <time>2013-12-14T09:04:23Z</time>
      </trkpt>
      <trkpt lat="45.26473" lon="5.44091">
        <ele>403</ele>
        <time>2013-12-14T09:04:26Z</time>
      </trkpt>
      <trkpt lat="45.26475" lon="5.44091">
        <ele>403</ele>
        <time>2013-12-14T09:04:27Z</time>
      </trkpt>
      <trkpt lat="45.26488" lon="5.44098">
        <ele>403</ele>
        <time>2013-12-14T09:04:39Z</time>
      </trkpt>
      <trkpt lat="45.26494" lon="5.44102">
        <ele>402</ele>
        <time>2013-12-14T09:04:46Z</time>
      </trkpt>
      <trkpt lat="45.26501" lon="5.44103">
        <ele>402</ele>
        <time>2013-12-14T09:04:58Z</time>
      </trkpt>
      <trkpt lat="45.26503" lon="5.44104">
        <ele>403</ele>
        <time>2013-12-14T09:05:11Z</time>
      </trkpt>
      <trkpt lat="45.26514" lon="5.44114">
        <ele>401</ele>
        <time>2013-12-14T09:05:25Z</time>
      </trkpt>
      <trkpt lat="45.26522" lon="5.44129">
        <ele>401</ele>
        <time>2013-12-14T09:05:38Z</time>
      </trkpt>
      <trkpt lat="45.26526" lon="5.44136">
        <ele>400</ele>
        <time>2013-12-14T09:05:44Z</time>
      </trkpt>
      <trkpt lat="45.26529" lon="5.44138">
        <ele>401</ele>
        <time>2013-12-14T09:05:46Z</time>
      </trkpt>
      <trkpt lat="45.26532" lon="5.44144">
        <ele>401</ele>
        <time>2013-12-14T09:05:51Z</time>
      </trkpt>
      <trkpt lat="45.2654" lon="5.44154">
        <ele>399</ele>
        <time>2013-12-14T09:06:01Z</time>
      </trkpt>
      <trkpt lat="45.26548" lon="5.44162">
        <ele>398</ele>
        <time>2013-12-14T09:06:13Z</time>
      </trkpt>
      <trkpt lat="45.26554" lon="5.44167">
        <ele>397</ele>
        <time>2013-12-14T09:06:20Z</time>
      </trkpt>
      <trkpt lat="45.26556" lon="5.4417">
        <ele>396</ele>
        <time>2013-12-14T09:06:23Z</time>
      </trkpt>
      <trkpt lat="45.26565" lon="5.44183">
        <ele>395</ele>
        <time>2013-12-14T09:06:37Z</time>
      </trkpt>
      <trkpt lat="45.26569" lon="5.44198">
        <ele>393</ele>
        <time>2013-12-14T09:06:46Z</time>
      </trkpt>
      <trkpt lat="45.26568" lon="5.44216">
        <ele>392</ele>
        <time>2013-12-14T09:06:59Z</time>
      </trkpt>
      <trkpt lat="45.26567" lon="5.44219">
        <ele>392</ele>
        <time>2013-12-14T09:07:01Z</time>
      </trkpt>
      <trkpt lat="45.2657" lon="5.44233">
        <ele>390</ele>
        <time>2013-12-14T09:07:14Z</time>
      </trkpt>
      <trkpt lat="45.26572" lon="5.44232">
        <ele>389</ele>
        <time>2013-12-14T09:07:18Z</time>
      </trkpt>
      <trkpt lat="45.26576" lon="5.44226">
        <ele>388</ele>
        <time>2013-12-14T09:07:24Z</time>
      </trkpt>
      <trkpt lat="45.26582" lon="5.44206">
        <ele>387</ele>
        <time>2013-12-14T09:07:38Z</time>
      </trkpt>
      <trkpt lat="45.26585" lon="5.442">
        <ele>387</ele>
        <time>2013-12-14T09:07:43Z</time>
      </trkpt>
      <trkpt lat="45.26594" lon="5.44185">
        <ele>385</ele>
        <time>2013-12-14T09:07:56Z</time>
      </trkpt>
      <trkpt lat="45.26602" lon="5.44173">
        <ele>383</ele>
        <time>2013-12-14T09:08:08Z</time>
      </trkpt>
      <trkpt lat="45.26606" lon="5.44165">
        <ele>382</ele>
        <time>2013-12-14T09:08:16Z</time>
      </trkpt>
      <trkpt lat="45.26611" lon="5.44151">
        <ele>381</ele>
        <time>2013-12-14T09:08:27Z</time>
      </trkpt>
      <trkpt lat="45.26612" lon="5.4415">
        <ele>380</ele>
        <time>2013-12-14T09:08:28Z</time>
      </trkpt>
      <trkpt lat="45.26619" lon="5.44141">
        <ele>379</ele>
        <time>2013-12-14T09:08:36Z</time>
      </trkpt>
      <trkpt lat="45.26633" lon="5.44121">
        <ele>378</ele>
        <time>2013-12-14T09:08:52Z</time>
      </trkpt>
      <trkpt lat="45.26646" lon="5.44118">
        <ele>376</ele>
        <time>2013-12-14T09:09:05Z</time>
      </trkpt>
      <trkpt lat="45.26659" lon="5.44113">
        <ele>376</ele>
        <time>2013-12-14T09:09:19Z</time>
      </trkpt>
      <trkpt lat="45.26675" lon="5.44115">
        <ele>376</ele>
        <time>2013-12-14T09:09:33Z</time>
      </trkpt>
      <trkpt lat="45.26691" lon="5.44116">
        <ele>376</ele>
        <time>2013-12-14T09:09:48Z</time>
      </trkpt>
      <trkpt lat="45.26709" lon="5.44118">
        <ele>376</ele>
        <time>2013-12-14T09:10:04Z</time>
      </trkpt>
      <trkpt lat="45.26731" lon="5.44119">
        <ele>374</ele>
        <time>2013-12-14T09:10:23Z</time>
      </trkpt>
      <trkpt lat="45.26738" lon="5.4412">
        <ele>372</ele>
        <time>2013-12-14T09:10:29Z</time>
      </trkpt>
      <trkpt lat="45.26748" lon="5.44128">
        <ele>373</ele>
        <time>2013-12-14T09:10:39Z</time>
      </trkpt>
      <trkpt lat="45.26761" lon="5.44112">
        <ele>374</ele>
        <time>2013-12-14T09:10:56Z</time>
      </trkpt>
      <trkpt lat="45.26764" lon="5.44109">
        <ele>374</ele>
        <time>2013-12-14T09:10:59Z</time>
      </trkpt>
      <trkpt lat="45.26767" lon="5.44103">
        <ele>374</ele>
        <time>2013-12-14T09:11:04Z</time>
      </trkpt>
      <trkpt lat="45.26775" lon="5.44088">
        <ele>376</ele>
        <time>2013-12-14T09:11:16Z</time>
      </trkpt>
      <trkpt lat="45.26786" lon="5.44069">
        <ele>376</ele>
        <time>2013-12-14T09:11:30Z</time>
      </trkpt>
      <trkpt lat="45.26792" lon="5.44058">
        <ele>377</ele>
        <time>2013-12-14T09:11:39Z</time>
      </trkpt>
      <trkpt lat="45.26799" lon="5.4404">
        <ele>378</ele>
        <time>2013-12-14T09:11:53Z</time>
      </trkpt>
      <trkpt lat="45.26807" lon="5.44027">
        <ele>380</ele>
        <time>2013-12-14T09:12:05Z</time>
      </trkpt>
      <trkpt lat="45.26808" lon="5.44026">
        <ele>380</ele>
        <time>2013-12-14T09:12:06Z</time>
      </trkpt>
      <trkpt lat="45.26811" lon="5.4402">
        <ele>380</ele>
        <time>2013-12-14T09:12:11Z</time>
      </trkpt>
      <trkpt lat="45.26813" lon="5.44015">
        <ele>380</ele>
        <time>2013-12-14T09:12:15Z</time>
      </trkpt>
      <trkpt lat="45.26816" lon="5.4401">
        <ele>380</ele>
        <time>2013-12-14T09:12:20Z</time>
      </trkpt>
      <trkpt lat="45.26823" lon="5.43997">
        <ele>382</ele>
        <time>2013-12-14T09:12:32Z</time>
      </trkpt>
      <trkpt lat="45.26824" lon="5.43994">
        <ele>382</ele>
        <time>2013-12-14T09:12:35Z</time>
      </trkpt>
      <trkpt lat="45.26832" lon="5.43981">
        <ele>383</ele>
        <time>2013-12-14T09:12:48Z</time>
      </trkpt>
      <trkpt lat="45.26841" lon="5.43971">
        <ele>384</ele>
        <time>2013-12-14T09:13:02Z</time>
      </trkpt>
      <trkpt lat="45.26849" lon="5.43965">
        <ele>384</ele>
        <time>2013-12-14T09:13:14Z</time>
      </trkpt>
      <trkpt lat="45.2686" lon="5.43968">
        <ele>386</ele>
        <time>2013-12-14T09:13:28Z</time>
      </trkpt>
      <trkpt lat="45.26869" lon="5.4397">
        <ele>388</ele>
        <time>2013-12-14T09:13:42Z</time>
      </trkpt>
      <trkpt lat="45.26878" lon="5.43971">
        <ele>390</ele>
        <time>2013-12-14T09:13:56Z</time>
      </trkpt>
      <trkpt lat="45.26885" lon="5.43971">
        <ele>391</ele>
        <time>2013-12-14T09:14:06Z</time>
      </trkpt>
      <trkpt lat="45.26893" lon="5.43969">
        <ele>394</ele>
        <time>2013-12-14T09:14:20Z</time>
      </trkpt>
      <trkpt lat="45.26901" lon="5.43968">
        <ele>395</ele>
        <time>2013-12-14T09:14:31Z</time>
      </trkpt>
      <trkpt lat="45.26911" lon="5.43971">
        <ele>397</ele>
        <time>2013-12-14T09:14:44Z</time>
      </trkpt>
      <trkpt lat="45.26916" lon="5.43972">
        <ele>398</ele>
        <time>2013-12-14T09:14:54Z</time>
      </trkpt>
      <trkpt lat="45.26922" lon="5.43973">
        <ele>400</ele>
        <time>2013-12-14T09:15:04Z</time>
      </trkpt>
      <trkpt lat="45.26927" lon="5.43972">
        <ele>401</ele>
        <time>2013-12-14T09:15:16Z</time>
      </trkpt>
      <trkpt lat="45.26931" lon="5.43977">
        <ele>402</ele>
        <time>2013-12-14T09:15:26Z</time>
      </trkpt>
      <trkpt lat="45.26937" lon="5.4398">
        <ele>404</ele>
        <time>2013-12-14T09:15:36Z</time>
      </trkpt>
      <trkpt lat="45.26943" lon="5.43985">
        <ele>406</ele>
        <time>2013-12-14T09:15:48Z</time>
      </trkpt>
      <trkpt lat="45.2695" lon="5.43995">
        <ele>408</ele>
        <time>2013-12-14T09:16:01Z</time>
      </trkpt>
      <trkpt lat="45.26954" lon="5.44003">
        <ele>410</ele>
        <time>2013-12-14T09:16:14Z</time>
      </trkpt>
      <trkpt lat="45.26957" lon="5.44011">
        <ele>411</ele>
        <time>2013-12-14T09:16:25Z</time>
      </trkpt>
      <trkpt lat="45.26956" lon="5.44021">
        <ele>414</ele>
        <time>2013-12-14T09:16:39Z</time>
      </trkpt>
      <trkpt lat="45.26956" lon="5.44035">
        <ele>416</ele>
        <time>2013-12-14T09:16:53Z</time>
      </trkpt>
      <trkpt lat="45.26952" lon="5.44046">
        <ele>418</ele>
        <time>2013-12-14T09:17:06Z</time>
      </trkpt>
      <trkpt lat="45.26949" lon="5.44056">
        <ele>420</ele>
        <time>2013-12-14T09:17:16Z</time>
      </trkpt>
      <trkpt lat="45.26944" lon="5.44069">
        <ele>421</ele>
        <time>2013-12-14T09:17:30Z</time>
      </trkpt>
      <trkpt lat="45.26941" lon="5.44083">
        <ele>423</ele>
        <time>2013-12-14T09:17:43Z</time>
      </trkpt>
      <trkpt lat="45.2694" lon="5.44095">
        <ele>423</ele>
        <time>2013-12-14T09:17:55Z</time>
      </trkpt>
      <trkpt lat="45.26938" lon="5.44108">
        <ele>425</ele>
        <time>2013-12-14T09:18:08Z</time>
      </trkpt>
      <trkpt lat="45.26935" lon="5.44121">
        <ele>426</ele>
        <time>2013-12-14T09:18:21Z</time>
      </trkpt>
      <trkpt lat="45.26938" lon="5.44133">
        <ele>428</ele>
        <time>2013-12-14T09:18:34Z</time>
      </trkpt>
      <trkpt lat="45.26941" lon="5.4414">
        <ele>430</ele>
        <time>2013-12-14T09:18:47Z</time>
      </trkpt>
      <trkpt lat="45.26946" lon="5.44138">
        <ele>432</ele>
        <time>2013-12-14T09:18:57Z</time>
      </trkpt>
      <trkpt lat="45.26955" lon="5.4413">
        <ele>433</ele>
        <time>2013-12-14T09:19:11Z</time>
      </trkpt>
      <trkpt lat="45.26961" lon="5.44125">
        <ele>435</ele>
        <time>2013-12-14T09:19:22Z</time>
      </trkpt>
      <trkpt lat="45.26962" lon="5.44123">
        <ele>435</ele>
        <time>2013-12-14T09:19:24Z</time>
      </trkpt>
      <trkpt lat="45.26967" lon="5.4411">
        <ele>438</ele>
        <time>2013-12-14T09:19:37Z</time>
      </trkpt>
      <trkpt lat="45.26967" lon="5.44109">
        <ele>438</ele>
        <time>2013-12-14T09:19:38Z</time>
      </trkpt>
      <trkpt lat="45.26972" lon="5.44102">
        <ele>438</ele>
        <time>2013-12-14T09:19:48Z</time>
      </trkpt>
      <trkpt lat="45.26981" lon="5.44094">
        <ele>439</ele>
        <time>2013-12-14T09:20:01Z</time>
      </trkpt>
      <trkpt lat="45.26993" lon="5.44084">
        <ele>440</ele>
        <time>2013-12-14T09:20:15Z</time>
      </trkpt>
      <trkpt lat="45.27" lon="5.44076">
        <ele>440</ele>
        <time>2013-12-14T09:20:28Z</time>
      </trkpt>
      <trkpt lat="45.27007" lon="5.44075">
        <ele>439</ele>
        <time>2013-12-14T09:20:53Z</time>
      </trkpt>
      <trkpt lat="45.27009" lon="5.44075">
        <ele>439</ele>
        <time>2013-12-14T09:21:31Z</time>
      </trkpt>
      <trkpt lat="45.27009" lon="5.44075">
        <ele>439</ele>
        <time>2013-12-14T09:22:06Z</time>
      </trkpt>
      <trkpt lat="45.27009" lon="5.44072">
        <ele>439</ele>
        <time>2013-12-14T09:22:27Z</time>
      </trkpt>
      <trkpt lat="45.27012" lon="5.44072">
        <ele>439</ele>
        <time>2013-12-14T09:22:56Z</time>
      </trkpt>
      <trkpt lat="45.27011" lon="5.44074">
        <ele>439</ele>
        <time>2013-12-14T09:23:24Z</time>
      </trkpt>
      <trkpt lat="45.27013" lon="5.44072">
        <ele>439</ele>
        <time>2013-12-14T09:23:43Z</time>
      </trkpt>
      <trkpt lat="45.27014" lon="5.4407">
        <ele>439</ele>
        <time>2013-12-14T09:24:07Z</time>
      </trkpt>
      <trkpt lat="45.27019" lon="5.44066">
        <ele>440</ele>
        <time>2013-12-14T09:24:20Z</time>
      </trkpt>
      <trkpt lat="45.27028" lon="5.44058">
        <ele>442</ele>
        <time>2013-12-14T09:24:34Z</time>
      </trkpt>
      <trkpt lat="45.2704" lon="5.44051">
        <ele>443</ele>
        <time>2013-12-14T09:24:48Z</time>
      </trkpt>
      <trkpt lat="45.27042" lon="5.44049">
        <ele>443</ele>
        <time>2013-12-14T09:24:51Z</time>
      </trkpt>
      <trkpt lat="45.2705" lon="5.44038">
        <ele>444</ele>
        <time>2013-12-14T09:25:05Z</time>
      </trkpt>
      <trkpt lat="45.27057" lon="5.44026">
        <ele>446</ele>
        <time>2013-12-14T09:25:18Z</time>
      </trkpt>
      <trkpt lat="45.27066" lon="5.44011">
        <ele>447</ele>
        <time>2013-12-14T09:25:32Z</time>
      </trkpt>
      <trkpt lat="45.27077" lon="5.43997">
        <ele>450</ele>
        <time>2013-12-14T09:25:48Z</time>
      </trkpt>
      <trkpt lat="45.27085" lon="5.43987">
        <ele>451</ele>
        <time>2013-12-14T09:26:00Z</time>
      </trkpt>
      <trkpt lat="45.27093" lon="5.43977">
        <ele>453</ele>
        <time>2013-12-14T09:26:13Z</time>
      </trkpt>
      <trkpt lat="45.27101" lon="5.43968">
        <ele>454</ele>
        <time>2013-12-14T09:26:25Z</time>
      </trkpt>
      <trkpt lat="45.27108" lon="5.43961">
        <ele>456</ele>
        <time>2013-12-14T09:26:36Z</time>
      </trkpt>
      <trkpt lat="45.27108" lon="5.4396">
        <ele>456</ele>
        <time>2013-12-14T09:26:37Z</time>
      </trkpt>
      <trkpt lat="45.27116" lon="5.43956">
        <ele>458</ele>
        <time>2013-12-14T09:26:48Z</time>
      </trkpt>
      <trkpt lat="45.27124" lon="5.43949">
        <ele>460</ele>
        <time>2013-12-14T09:26:59Z</time>
      </trkpt>
      <trkpt lat="45.27129" lon="5.43944">
        <ele>462</ele>
        <time>2013-12-14T09:27:07Z</time>
      </trkpt>
      <trkpt lat="45.27139" lon="5.43937">
        <ele>463</ele>
        <time>2013-12-14T09:27:19Z</time>
      </trkpt>
      <trkpt lat="45.27146" lon="5.43929">
        <ele>465</ele>
        <time>2013-12-14T09:27:32Z</time>
      </trkpt>
      <trkpt lat="45.27153" lon="5.4392">
        <ele>467</ele>
        <time>2013-12-14T09:27:43Z</time>
      </trkpt>
      <trkpt lat="45.27159" lon="5.43913">
        <ele>468</ele>
        <time>2013-12-14T09:27:54Z</time>
      </trkpt>
      <trkpt lat="45.27164" lon="5.43903">
        <ele>470</ele>
        <time>2013-12-14T09:28:06Z</time>
      </trkpt>
      <trkpt lat="45.27164" lon="5.43899">
        <ele>471</ele>
        <time>2013-12-14T09:28:15Z</time>
      </trkpt>
      <trkpt lat="45.27166" lon="5.43898">
        <ele>470</ele>
        <time>2013-12-14T09:28:17Z</time>
      </trkpt>
      <trkpt lat="45.2717" lon="5.43888">
        <ele>473</ele>
        <time>2013-12-14T09:28:30Z</time>
      </trkpt>
      <trkpt lat="45.27173" lon="5.43879">
        <ele>474</ele>
        <time>2013-12-14T09:28:42Z</time>
      </trkpt>
      <trkpt lat="45.27179" lon="5.43863">
        <ele>476</ele>
        <time>2013-12-14T09:28:58Z</time>
      </trkpt>
      <trkpt lat="45.27179" lon="5.4386">
        <ele>476</ele>
        <time>2013-12-14T09:29:01Z</time>
      </trkpt>
      <trkpt lat="45.27184" lon="5.43846">
        <ele>478</ele>
        <time>2013-12-14T09:29:16Z</time>
      </trkpt>
      <trkpt lat="45.27186" lon="5.43833">
        <ele>479</ele>
        <time>2013-12-14T09:29:28Z</time>
      </trkpt>
      <trkpt lat="45.2719" lon="5.43818">
        <ele>481</ele>
        <time>2013-12-14T09:29:41Z</time>
      </trkpt>
      <trkpt lat="45.27195" lon="5.43809">
        <ele>483</ele>
        <time>2013-12-14T09:29:52Z</time>
      </trkpt>
      <trkpt lat="45.272" lon="5.438">
        <ele>484</ele>
        <time>2013-12-14T09:30:04Z</time>
      </trkpt>
      <trkpt lat="45.27211" lon="5.43788">
        <ele>487</ele>
        <time>2013-12-14T09:30:19Z</time>
      </trkpt>
      <trkpt lat="45.27214" lon="5.43785">
        <ele>488</ele>
        <time>2013-12-14T09:30:24Z</time>
      </trkpt>
      <trkpt lat="45.27223" lon="5.43781">
        <ele>489</ele>
        <time>2013-12-14T09:30:35Z</time>
      </trkpt>
      <trkpt lat="45.27232" lon="5.43774">
        <ele>490</ele>
        <time>2013-12-14T09:30:49Z</time>
      </trkpt>
      <trkpt lat="45.27243" lon="5.43772">
        <ele>492</ele>
        <time>2013-12-14T09:31:02Z</time>
      </trkpt>
      <trkpt lat="45.27246" lon="5.43773">
        <ele>493</ele>
        <time>2013-12-14T09:31:13Z</time>
      </trkpt>
      <trkpt lat="45.27255" lon="5.43771">
        <ele>494</ele>
        <time>2013-12-14T09:31:23Z</time>
      </trkpt>
      <trkpt lat="45.27257" lon="5.4377">
        <ele>494</ele>
        <time>2013-12-14T09:31:25Z</time>
      </trkpt>
      <trkpt lat="45.2727" lon="5.4377">
        <ele>495</ele>
        <time>2013-12-14T09:31:38Z</time>
      </trkpt>
      <trkpt lat="45.27275" lon="5.43777">
        <ele>496</ele>
        <time>2013-12-14T09:31:47Z</time>
      </trkpt>
      <trkpt lat="45.27275" lon="5.43785">
        <ele>497</ele>
        <time>2013-12-14T09:31:54Z</time>
      </trkpt>
      <trkpt lat="45.27269" lon="5.43795">
        <ele>499</ele>
        <time>2013-12-14T09:32:04Z</time>
      </trkpt>
      <trkpt lat="45.27264" lon="5.43806">
        <ele>499</ele>
        <time>2013-12-14T09:32:14Z</time>
      </trkpt>
      <trkpt lat="45.2726" lon="5.43815">
        <ele>496</ele>
        <time>2013-12-14T09:32:22Z</time>
      </trkpt>
      <trkpt lat="45.2726" lon="5.43816">
        <ele>501</ele>
        <time>2013-12-14T09:32:23Z</time>
      </trkpt>
      <trkpt lat="45.27254" lon="5.43829">
        <ele>501</ele>
        <time>2013-12-14T09:32:35Z</time>
      </trkpt>
      <trkpt lat="45.27246" lon="5.43845">
        <ele>502</ele>
        <time>2013-12-14T09:32:49Z</time>
      </trkpt>
      <trkpt lat="45.27238" lon="5.43863">
        <ele>504</ele>
        <time>2013-12-14T09:33:04Z</time>
      </trkpt>
      <trkpt lat="45.27235" lon="5.43872">
        <ele>504</ele>
        <time>2013-12-14T09:33:15Z</time>
      </trkpt>
      <trkpt lat="45.27237" lon="5.43891">
        <ele>505</ele>
        <time>2013-12-14T09:33:29Z</time>
      </trkpt>
      <trkpt lat="45.27237" lon="5.43896">
        <ele>506</ele>
        <time>2013-12-14T09:33:32Z</time>
      </trkpt>
      <trkpt lat="45.27237" lon="5.43899">
        <ele>505</ele>
        <time>2013-12-14T09:33:34Z</time>
      </trkpt>
      <trkpt lat="45.2724" lon="5.4392">
        <ele>507</ele>
        <time>2013-12-14T09:33:49Z</time>
      </trkpt>
      <trkpt lat="45.27242" lon="5.43938">
        <ele>508</ele>
        <time>2013-12-14T09:34:02Z</time>
      </trkpt>
      <trkpt lat="45.27242" lon="5.43959">
        <ele>509</ele>
        <time>2013-12-14T09:34:18Z</time>
      </trkpt>
      <trkpt lat="45.27238" lon="5.43977">
        <ele>510</ele>
        <time>2013-12-14T09:34:32Z</time>
      </trkpt>
      <trkpt lat="45.27235" lon="5.43986">
        <ele>511</ele>
        <time>2013-12-14T09:34:40Z</time>
      </trkpt>
      <trkpt lat="45.27232" lon="5.43994">
        <ele>511</ele>
        <time>2013-12-14T09:34:47Z</time>
      </trkpt>
      <trkpt lat="45.27232" lon="5.44003">
        <ele>512</ele>
        <time>2013-12-14T09:34:53Z</time>
      </trkpt>
      <trkpt lat="45.27233" lon="5.44008">
        <ele>512</ele>
        <time>2013-12-14T09:34:57Z</time>
      </trkpt>
      <trkpt lat="45.27235" lon="5.44012">
        <ele>513</ele>
        <time>2013-12-14T09:35:01Z</time>
      </trkpt>
      <trkpt lat="45.27239" lon="5.44014">
        <ele>513</ele>
        <time>2013-12-14T09:35:06Z</time>
      </trkpt>
      <trkpt lat="45.27241" lon="5.44013">
        <ele>513</ele>
        <time>2013-12-14T09:35:09Z</time>
      </trkpt>
      <trkpt lat="45.27252" lon="5.44">
        <ele>514</ele>
        <time>2013-12-14T09:35:22Z</time>
      </trkpt>
      <trkpt lat="45.27265" lon="5.43982">
        <ele>514</ele>
        <time>2013-12-14T09:35:38Z</time>
      </trkpt>
      <trkpt lat="45.27265" lon="5.43981">
        <ele>515</ele>
        <time>2013-12-14T09:35:39Z</time>
      </trkpt>
      <trkpt lat="45.27272" lon="5.43969">
        <ele>516</ele>
        <time>2013-12-14T09:35:50Z</time>
      </trkpt>
      <trkpt lat="45.27276" lon="5.4395">
        <ele>517</ele>
        <time>2013-12-14T09:36:03Z</time>
      </trkpt>
      <trkpt lat="45.27276" lon="5.43928">
        <ele>518</ele>
        <time>2013-12-14T09:36:17Z</time>
      </trkpt>
      <trkpt lat="45.27273" lon="5.43909">
        <ele>520</ele>
        <time>2013-12-14T09:36:30Z</time>
      </trkpt>
      <trkpt lat="45.27276" lon="5.43888">
        <ele>520</ele>
        <time>2013-12-14T09:36:44Z</time>
      </trkpt>
      <trkpt lat="45.27281" lon="5.43876">
        <ele>521</ele>
        <time>2013-12-14T09:36:55Z</time>
      </trkpt>
      <trkpt lat="45.2729" lon="5.43863">
        <ele>523</ele>
        <time>2013-12-14T09:37:07Z</time>
      </trkpt>
      <trkpt lat="45.27301" lon="5.43849">
        <ele>525</ele>
        <time>2013-12-14T09:37:22Z</time>
      </trkpt>
      <trkpt lat="45.27309" lon="5.43836">
        <ele>525</ele>
        <time>2013-12-14T09:37:34Z</time>
      </trkpt>
      <trkpt lat="45.27316" lon="5.43827">
        <ele>526</ele>
        <time>2013-12-14T09:37:43Z</time>
      </trkpt>
      <trkpt lat="45.2732" lon="5.43819">
        <ele>527</ele>
        <time>2013-12-14T09:37:50Z</time>
      </trkpt>
      <trkpt lat="45.2733" lon="5.43807">
        <ele>528</ele>
        <time>2013-12-14T09:38:03Z</time>
      </trkpt>
      <trkpt lat="45.27341" lon="5.438">
        <ele>530</ele>
        <time>2013-12-14T09:38:16Z</time>
      </trkpt>
      <trkpt lat="45.27358" lon="5.43805">
        <ele>530</ele>
        <time>2013-12-14T09:38:32Z</time>
      </trkpt>
      <trkpt lat="45.27375" lon="5.43813">
        <ele>532</ele>
        <time>2013-12-14T09:38:49Z</time>
      </trkpt>
      <trkpt lat="45.27388" lon="5.43816">
        <ele>532</ele>
        <time>2013-12-14T09:39:02Z</time>
      </trkpt>
      <trkpt lat="45.27404" lon="5.43817">
        <ele>534</ele>
        <time>2013-12-14T09:39:15Z</time>
      </trkpt>
      <trkpt lat="45.27415" lon="5.43816">
        <ele>535</ele>
        <time>2013-12-14T09:39:27Z</time>
      </trkpt>
      <trkpt lat="45.2743" lon="5.43811">
        <ele>535</ele>
        <time>2013-12-14T09:39:41Z</time>
      </trkpt>
      <trkpt lat="45.27435" lon="5.4381">
        <ele>536</ele>
        <time>2013-12-14T09:39:47Z</time>
      </trkpt>
      <trkpt lat="45.27436" lon="5.43814">
        <ele>537</ele>
        <time>2013-12-14T09:39:59Z</time>
      </trkpt>
      <trkpt lat="45.27432" lon="5.43821">
        <ele>538</ele>
        <time>2013-12-14T09:40:13Z</time>
      </trkpt>
      <trkpt lat="45.27428" lon="5.43834">
        <ele>541</ele>
        <time>2013-12-14T09:40:29Z</time>
      </trkpt>
      <trkpt lat="45.27425" lon="5.43846">
        <ele>543</ele>
        <time>2013-12-14T09:40:42Z</time>
      </trkpt>
      <trkpt lat="45.27421" lon="5.43857">
        <ele>545</ele>
        <time>2013-12-14T09:40:54Z</time>
      </trkpt>
      <trkpt lat="45.2742" lon="5.43867">
        <ele>548</ele>
        <time>2013-12-14T09:41:06Z</time>
      </trkpt>
      <trkpt lat="45.27418" lon="5.43877">
        <ele>549</ele>
        <time>2013-12-14T09:41:20Z</time>
      </trkpt>
      <trkpt lat="45.27416" lon="5.43892">
        <ele>551</ele>
        <time>2013-12-14T09:41:32Z</time>
      </trkpt>
      <trkpt lat="45.27415" lon="5.43904">
        <ele>553</ele>
        <time>2013-12-14T09:41:46Z</time>
      </trkpt>
      <trkpt lat="45.27415" lon="5.43912">
        <ele>554</ele>
        <time>2013-12-14T09:41:54Z</time>
      </trkpt>
      <trkpt lat="45.27414" lon="5.43924">
        <ele>556</ele>
        <time>2013-12-14T09:42:07Z</time>
      </trkpt>
      <trkpt lat="45.27412" lon="5.43937">
        <ele>558</ele>
        <time>2013-12-14T09:42:20Z</time>
      </trkpt>
      <trkpt lat="45.27412" lon="5.43951">
        <ele>561</ele>
        <time>2013-12-14T09:42:33Z</time>
      </trkpt>
      <trkpt lat="45.27412" lon="5.43963">
        <ele>563</ele>
        <time>2013-12-14T09:42:48Z</time>
      </trkpt>
      <trkpt lat="45.27414" lon="5.43977">
        <ele>565</ele>
        <time>2013-12-14T09:43:02Z</time>
      </trkpt>
      <trkpt lat="45.27418" lon="5.43986">
        <ele>566</ele>
        <time>2013-12-14T09:43:14Z</time>
      </trkpt>
      <trkpt lat="45.27424" lon="5.43998">
        <ele>569</ele>
        <time>2013-12-14T09:43:27Z</time>
      </trkpt>
      <trkpt lat="45.27429" lon="5.44012">
        <ele>571</ele>
        <time>2013-12-14T09:43:40Z</time>
      </trkpt>
      <trkpt lat="45.27431" lon="5.44025">
        <ele>572</ele>
        <time>2013-12-14T09:43:51Z</time>
      </trkpt>
      <trkpt lat="45.27435" lon="5.4404">
        <ele>574</ele>
        <time>2013-12-14T09:44:06Z</time>
      </trkpt>
      <trkpt lat="45.27437" lon="5.44049">
        <ele>575</ele>
        <time>2013-12-14T09:44:18Z</time>
      </trkpt>
      <trkpt lat="45.27442" lon="5.44059">
        <ele>577</ele>
        <time>2013-12-14T09:44:33Z</time>
      </trkpt>
      <trkpt lat="45.27444" lon="5.44061">
        <ele>577</ele>
        <time>2013-12-14T09:44:50Z</time>
      </trkpt>
      <trkpt lat="45.27446" lon="5.4406">
        <ele>576</ele>
        <time>2013-12-14T09:45:03Z</time>
      </trkpt>
      <trkpt lat="45.2745" lon="5.44058">
        <ele>577</ele>
        <time>2013-12-14T09:45:31Z</time>
      </trkpt>
      <trkpt lat="45.27444" lon="5.44055">
        <ele>576</ele>
        <time>2013-12-14T09:46:11Z</time>
      </trkpt>
      <trkpt lat="45.27442" lon="5.44055">
        <ele>576</ele>
        <time>2013-12-14T09:46:45Z</time>
      </trkpt>
      <trkpt lat="45.27442" lon="5.44052">
        <ele>576</ele>
        <time>2013-12-14T09:47:10Z</time>
      </trkpt>
      <trkpt lat="45.27445" lon="5.44055">
        <ele>577</ele>
        <time>2013-12-14T09:47:38Z</time>
      </trkpt>
      <trkpt lat="45.27451" lon="5.44057">
        <ele>578</ele>
        <time>2013-12-14T09:47:49Z</time>
      </trkpt>
      <trkpt lat="45.27453" lon="5.44055">
        <ele>579</ele>
        <time>2013-12-14T09:47:52Z</time>
      </trkpt>
      <trkpt lat="45.27463" lon="5.44047">
        <ele>581</ele>
        <time>2013-12-14T09:48:06Z</time>
      </trkpt>
      <trkpt lat="45.27471" lon="5.44041">
        <ele>583</ele>
        <time>2013-12-14T09:48:18Z</time>
      </trkpt>
      <trkpt lat="45.27474" lon="5.44038">
        <ele>585</ele>
        <time>2013-12-14T09:48:22Z</time>
      </trkpt>
      <trkpt lat="45.27476" lon="5.44036">
        <ele>585</ele>
        <time>2013-12-14T09:48:38Z</time>
      </trkpt>
      <trkpt lat="45.27477" lon="5.44036">
        <ele>586</ele>
        <time>2013-12-14T09:48:54Z</time>
      </trkpt>
      <trkpt lat="45.27485" lon="5.44028">
        <ele>588</ele>
        <time>2013-12-14T09:49:07Z</time>
      </trkpt>
      <trkpt lat="45.27486" lon="5.44027">
        <ele>589</ele>
        <time>2013-12-14T09:49:09Z</time>
      </trkpt>
      <trkpt lat="45.27491" lon="5.44018">
        <ele>590</ele>
        <time>2013-12-14T09:49:20Z</time>
      </trkpt>
      <trkpt lat="45.27498" lon="5.44012">
        <ele>592</ele>
        <time>2013-12-14T09:49:31Z</time>
      </trkpt>
      <trkpt lat="45.27507" lon="5.44003">
        <ele>595</ele>
        <time>2013-12-14T09:49:43Z</time>
      </trkpt>
      <trkpt lat="45.27516" lon="5.43994">
        <ele>597</ele>
        <time>2013-12-14T09:49:56Z</time>
      </trkpt>
      <trkpt lat="45.27524" lon="5.43987">
        <ele>599</ele>
        <time>2013-12-14T09:50:07Z</time>
      </trkpt>
      <trkpt lat="45.27529" lon="5.4398">
        <ele>600</ele>
        <time>2013-12-14T09:50:18Z</time>
      </trkpt>
      <trkpt lat="45.27533" lon="5.43976">
        <ele>600</ele>
        <time>2013-12-14T09:50:23Z</time>
      </trkpt>
      <trkpt lat="45.27545" lon="5.43972">
        <ele>603</ele>
        <time>2013-12-14T09:50:35Z</time>
      </trkpt>
      <trkpt lat="45.2755" lon="5.43969">
        <ele>604</ele>
        <time>2013-12-14T09:50:42Z</time>
      </trkpt>
      <trkpt lat="45.2756" lon="5.43966">
        <ele>606</ele>
        <time>2013-12-14T09:50:54Z</time>
      </trkpt>
      <trkpt lat="45.2757" lon="5.43961">
        <ele>609</ele>
        <time>2013-12-14T09:51:08Z</time>
      </trkpt>
      <trkpt lat="45.27583" lon="5.43954">
        <ele>611</ele>
        <time>2013-12-14T09:51:23Z</time>
      </trkpt>
      <trkpt lat="45.27594" lon="5.43948">
        <ele>612</ele>
        <time>2013-12-14T09:51:35Z</time>
      </trkpt>
      <trkpt lat="45.27608" lon="5.43939">
        <ele>613</ele>
        <time>2013-12-14T09:51:48Z</time>
      </trkpt>
      <trkpt lat="45.27613" lon="5.43936">
        <ele>613</ele>
        <time>2013-12-14T09:51:52Z</time>
      </trkpt>
      <trkpt lat="45.27626" lon="5.43927">
        <ele>613</ele>
        <time>2013-12-14T09:52:04Z</time>
      </trkpt>
      <trkpt lat="45.27634" lon="5.4392">
        <ele>616</ele>
        <time>2013-12-14T09:52:16Z</time>
      </trkpt>
      <trkpt lat="45.27643" lon="5.4391">
        <ele>619</ele>
        <time>2013-12-14T09:52:31Z</time>
      </trkpt>
      <trkpt lat="45.27653" lon="5.43903">
        <ele>621</ele>
        <time>2013-12-14T09:52:43Z</time>
      </trkpt>
      <trkpt lat="45.27655" lon="5.43902">
        <ele>623</ele>
        <time>2013-12-14T09:52:46Z</time>
      </trkpt>
      <trkpt lat="45.27664" lon="5.43899">
        <ele>624</ele>
        <time>2013-12-14T09:52:58Z</time>
      </trkpt>
      <trkpt lat="45.27672" lon="5.43902">
        <ele>627</ele>
        <time>2013-12-14T09:53:10Z</time>
      </trkpt>
      <trkpt lat="45.27675" lon="5.43907">
        <ele>627</ele>
        <time>2013-12-14T09:53:20Z</time>
      </trkpt>
      <trkpt lat="45.27681" lon="5.43909">
        <ele>629</ele>
        <time>2013-12-14T09:53:27Z</time>
      </trkpt>
      <trkpt lat="45.27688" lon="5.43912">
        <ele>630</ele>
        <time>2013-12-14T09:53:38Z</time>
      </trkpt>
      <trkpt lat="45.27697" lon="5.43916">
        <ele>633</ele>
        <time>2013-12-14T09:53:49Z</time>
      </trkpt>
      <trkpt lat="45.27704" lon="5.43916">
        <ele>635</ele>
        <time>2013-12-14T09:53:59Z</time>
      </trkpt>
      <trkpt lat="45.27712" lon="5.43916">
        <ele>637</ele>
        <time>2013-12-14T09:54:09Z</time>
      </trkpt>
      <trkpt lat="45.27719" lon="5.43912">
        <ele>638</ele>
        <time>2013-12-14T09:54:19Z</time>
      </trkpt>
      <trkpt lat="45.2773" lon="5.43912">
        <ele>639</ele>
        <time>2013-12-14T09:54:32Z</time>
      </trkpt>
      <trkpt lat="45.27742" lon="5.43909">
        <ele>642</ele>
        <time>2013-12-14T09:54:45Z</time>
      </trkpt>
      <trkpt lat="45.27754" lon="5.43906">
        <ele>642</ele>
        <time>2013-12-14T09:54:57Z</time>
      </trkpt>
      <trkpt lat="45.2776" lon="5.43905">
        <ele>642</ele>
        <time>2013-12-14T09:55:03Z</time>
      </trkpt>
      <trkpt lat="45.27772" lon="5.43904">
        <ele>643</ele>
        <time>2013-12-14T09:55:17Z</time>
      </trkpt>
      <trkpt lat="45.27785" lon="5.4391">
        <ele>642</ele>
        <time>2013-12-14T09:55:31Z</time>
      </trkpt>
      <trkpt lat="45.27794" lon="5.43912">
        <ele>642</ele>
        <time>2013-12-14T09:55:42Z</time>
      </trkpt>
      <trkpt lat="45.27797" lon="5.43913">
        <ele>641</ele>
        <time>2013-12-14T09:55:57Z</time>
      </trkpt>
      <trkpt lat="45.27807" lon="5.43911">
        <ele>640</ele>
        <time>2013-12-14T09:56:10Z</time>
      </trkpt>
      <trkpt lat="45.27817" lon="5.43911">
        <ele>640</ele>
        <time>2013-12-14T09:56:20Z</time>
      </trkpt>
      <trkpt lat="45.27828" lon="5.43912">
        <ele>638</ele>
        <time>2013-12-14T09:56:29Z</time>
      </trkpt>
      <trkpt lat="45.27846" lon="5.4391">
        <ele>637</ele>
        <time>2013-12-14T09:56:42Z</time>
      </trkpt>
      <trkpt lat="45.27862" lon="5.43914">
        <ele>637</ele>
        <time>2013-12-14T09:56:55Z</time>
      </trkpt>
      <trkpt lat="45.27879" lon="5.43919">
        <ele>634</ele>
        <time>2013-12-14T09:57:10Z</time>
      </trkpt>
      <trkpt lat="45.27893" lon="5.43926">
        <ele>632</ele>
        <time>2013-12-14T09:57:22Z</time>
      </trkpt>
      <trkpt lat="45.27905" lon="5.43937">
        <ele>629</ele>
        <time>2013-12-14T09:57:36Z</time>
      </trkpt>
      <trkpt lat="45.27914" lon="5.43952">
        <ele>626</ele>
        <time>2013-12-14T09:57:50Z</time>
      </trkpt>
      <trkpt lat="45.27923" lon="5.43968">
        <ele>624</ele>
        <time>2013-12-14T09:58:03Z</time>
      </trkpt>
      <trkpt lat="45.27929" lon="5.43976">
        <ele>621</ele>
        <time>2013-12-14T09:58:15Z</time>
      </trkpt>
      <trkpt lat="45.27941" lon="5.43982">
        <ele>618</ele>
        <time>2013-12-14T09:58:27Z</time>
      </trkpt>
      <trkpt lat="45.27957" lon="5.43985">
        <ele>615</ele>
        <time>2013-12-14T09:58:41Z</time>
      </trkpt>
      <trkpt lat="45.2797" lon="5.43985">
        <ele>612</ele>
        <time>2013-12-14T09:58:54Z</time>
      </trkpt>
      <trkpt lat="45.27983" lon="5.43984">
        <ele>610</ele>
        <time>2013-12-14T09:59:07Z</time>
      </trkpt>
      <trkpt lat="45.27995" lon="5.4398">
        <ele>607</ele>
        <time>2013-12-14T09:59:20Z</time>
      </trkpt>
      <trkpt lat="45.28" lon="5.43977">
        <ele>605</ele>
        <time>2013-12-14T09:59:26Z</time>
      </trkpt>
      <trkpt lat="45.28004" lon="5.43973">
        <ele>605</ele>
        <time>2013-12-14T09:59:37Z</time>
      </trkpt>
      <trkpt lat="45.28008" lon="5.43973">
        <ele>606</ele>
        <time>2013-12-14T09:59:58Z</time>
      </trkpt>
      <trkpt lat="45.28009" lon="5.43974">
        <ele>605</ele>
        <time>2013-12-14T10:00:21Z</time>
      </trkpt>
      <trkpt lat="45.28008" lon="5.43971">
        <ele>606</ele>
        <time>2013-12-14T10:00:48Z</time>
      </trkpt>
      <trkpt lat="45.28012" lon="5.43973">
        <ele>605</ele>
        <time>2013-12-14T10:01:20Z</time>
      </trkpt>
      <trkpt lat="45.28015" lon="5.43974">
        <ele>605</ele>
        <time>2013-12-14T10:01:24Z</time>
      </trkpt>
      <trkpt lat="45.28025" lon="5.43981">
        <ele>605</ele>
        <time>2013-12-14T10:01:35Z</time>
      </trkpt>
      <trkpt lat="45.28027" lon="5.43985">
        <ele>605</ele>
        <time>2013-12-14T10:01:38Z</time>
      </trkpt>
      <trkpt lat="45.28032" lon="5.4399">
        <ele>605</ele>
        <time>2013-12-14T10:01:44Z</time>
      </trkpt>
      <trkpt lat="45.28039" lon="5.43994">
        <ele>606</ele>
        <time>2013-12-14T10:01:53Z</time>
      </trkpt>
      <trkpt lat="45.28047" lon="5.44001">
        <ele>606</ele>
        <time>2013-12-14T10:02:03Z</time>
      </trkpt>
      <trkpt lat="45.28057" lon="5.44006">
        <ele>608</ele>
        <time>2013-12-14T10:02:14Z</time>
      </trkpt>
      <trkpt lat="45.2807" lon="5.44013">
        <ele>607</ele>
        <time>2013-12-14T10:02:25Z</time>
      </trkpt>
      <trkpt lat="45.28084" lon="5.44021">
        <ele>607</ele>
        <time>2013-12-14T10:02:37Z</time>
      </trkpt>
      <trkpt lat="45.28099" lon="5.4403">
        <ele>606</ele>
        <time>2013-12-14T10:02:50Z</time>
      </trkpt>
      <trkpt lat="45.28112" lon="5.44035">
        <ele>605</ele>
        <time>2013-12-14T10:03:03Z</time>
      </trkpt>
      <trkpt lat="45.28123" lon="5.44038">
        <ele>603</ele>
        <time>2013-12-14T10:03:15Z</time>
      </trkpt>
      <trkpt lat="45.28133" lon="5.44038">
        <ele>600</ele>
        <time>2013-12-14T10:03:28Z</time>
      </trkpt>
      <trkpt lat="45.28144" lon="5.44035">
        <ele>598</ele>
        <time>2013-12-14T10:03:40Z</time>
      </trkpt>
      <trkpt lat="45.28156" lon="5.44035">
        <ele>594</ele>
        <time>2013-12-14T10:03:53Z</time>
      </trkpt>
      <trkpt lat="45.28171" lon="5.44038">
        <ele>591</ele>
        <time>2013-12-14T10:04:05Z</time>
      </trkpt>
      <trkpt lat="45.28181" lon="5.44045">
        <ele>588</ele>
        <time>2013-12-14T10:04:18Z</time>
      </trkpt>
      <trkpt lat="45.28191" lon="5.44053">
        <ele>585</ele>
        <time>2013-12-14T10:04:31Z</time>
      </trkpt>
      <trkpt lat="45.282" lon="5.44064">
        <ele>582</ele>
        <time>2013-12-14T10:04:45Z</time>
      </trkpt>
      <trkpt lat="45.28206" lon="5.44068">
        <ele>581</ele>
        <time>2013-12-14T10:04:52Z</time>
      </trkpt>
      <trkpt lat="45.28212" lon="5.44074">
        <ele>579</ele>
        <time>2013-12-14T10:05:01Z</time>
      </trkpt>
      <trkpt lat="45.28218" lon="5.44082">
        <ele>577</ele>
        <time>2013-12-14T10:05:12Z</time>
      </trkpt>
      <trkpt lat="45.28226" lon="5.4409">
        <ele>575</ele>
        <time>2013-12-14T10:05:23Z</time>
      </trkpt>
      <trkpt lat="45.28231" lon="5.44098">
        <ele>573</ele>
        <time>2013-12-14T10:05:31Z</time>
      </trkpt>
      <trkpt lat="45.28231" lon="5.44099">
        <ele>573</ele>
        <time>2013-12-14T10:05:32Z</time>
      </trkpt>
      <trkpt lat="45.28239" lon="5.44109">
        <ele>570</ele>
        <time>2013-12-14T10:05:44Z</time>
      </trkpt>
      <trkpt lat="45.28244" lon="5.44117">
        <ele>566</ele>
        <time>2013-12-14T10:05:55Z</time>
      </trkpt>
      <trkpt lat="45.28249" lon="5.44127">
        <ele>564</ele>
        <time>2013-12-14T10:06:09Z</time>
      </trkpt>
      <trkpt lat="45.28252" lon="5.44137">
        <ele>562</ele>
        <time>2013-12-14T10:06:21Z</time>
      </trkpt>
      <trkpt lat="45.28253" lon="5.44137">
        <ele>561</ele>
        <time>2013-12-14T10:06:22Z</time>
      </trkpt>
      <trkpt lat="45.28265" lon="5.44155">
        <ele>560</ele>
        <time>2013-12-14T10:06:37Z</time>
      </trkpt>
      <trkpt lat="45.28271" lon="5.44162">
        <ele>557</ele>
        <time>2013-12-14T10:06:49Z</time>
      </trkpt>
      <trkpt lat="45.28276" lon="5.44169">
        <ele>554</ele>
        <time>2013-12-14T10:07:05Z</time>
      </trkpt>
      <trkpt lat="45.28278" lon="5.44176">
        <ele>553</ele>
        <time>2013-12-14T10:07:19Z</time>
      </trkpt>
      <trkpt lat="45.28283" lon="5.44181">
        <ele>550</ele>
        <time>2013-12-14T10:07:31Z</time>
      </trkpt>
      <trkpt lat="45.28289" lon="5.44189">
        <ele>548</ele>
        <time>2013-12-14T10:07:44Z</time>
      </trkpt>
      <trkpt lat="45.28294" lon="5.44199">
        <ele>545</ele>
        <time>2013-12-14T10:07:56Z</time>
      </trkpt>
      <trkpt lat="45.28302" lon="5.44211">
        <ele>541</ele>
        <time>2013-12-14T10:08:11Z</time>
      </trkpt>
      <trkpt lat="45.28306" lon="5.44221">
        <ele>539</ele>
        <time>2013-12-14T10:08:20Z</time>
      </trkpt>
      <trkpt lat="45.28312" lon="5.44234">
        <ele>536</ele>
        <time>2013-12-14T10:08:33Z</time>
      </trkpt>
      <trkpt lat="45.28318" lon="5.44245">
        <ele>533</ele>
        <time>2013-12-14T10:08:46Z</time>
      </trkpt>
      <trkpt lat="45.28325" lon="5.44256">
        <ele>531</ele>
        <time>2013-12-14T10:08:59Z</time>
      </trkpt>
      <trkpt lat="45.28331" lon="5.44266">
        <ele>527</ele>
        <time>2013-12-14T10:09:12Z</time>
      </trkpt>
      <trkpt lat="45.28337" lon="5.44274">
        <ele>524</ele>
        <time>2013-12-14T10:09:24Z</time>
      </trkpt>
      <trkpt lat="45.28352" lon="5.44295">
        <ele>522</ele>
        <time>2013-12-14T10:09:40Z</time>
      </trkpt>
      <trkpt lat="45.28362" lon="5.44311">
        <ele>518</ele>
        <time>2013-12-14T10:09:52Z</time>
      </trkpt>
      <trkpt lat="45.28362" lon="5.44312">
        <ele>517</ele>
        <time>2013-12-14T10:09:53Z</time>
      </trkpt>
      <trkpt lat="45.28364" lon="5.44315">
        <ele>517</ele>
        <time>2013-12-14T10:09:56Z</time>
      </trkpt>
      <trkpt lat="45.28373" lon="5.44331">
        <ele>516</ele>
        <time>2013-12-14T10:10:12Z</time>
      </trkpt>
      <trkpt lat="45.28384" lon="5.44348">
        <ele>514</ele>
        <time>2013-12-14T10:10:26Z</time>
      </trkpt>
      <trkpt lat="45.28392" lon="5.44364">
        <ele>511</ele>
        <time>2013-12-14T10:10:38Z</time>
      </trkpt>
      <trkpt lat="45.28396" lon="5.4437">
        <ele>510</ele>
        <time>2013-12-14T10:10:43Z</time>
      </trkpt>
      <trkpt lat="45.28403" lon="5.44391">
        <ele>507</ele>
        <time>2013-12-14T10:10:58Z</time>
      </trkpt>
      <trkpt lat="45.28408" lon="5.44406">
        <ele>505</ele>
        <time>2013-12-14T10:11:09Z</time>
      </trkpt>
      <trkpt lat="45.28415" lon="5.4442">
        <ele>502</ele>
        <time>2013-12-14T10:11:21Z</time>
      </trkpt>
      <trkpt lat="45.2842" lon="5.44437">
        <ele>501</ele>
        <time>2013-12-14T10:11:34Z</time>
      </trkpt>
      <trkpt lat="45.28428" lon="5.44455">
        <ele>498</ele>
        <time>2013-12-14T10:11:48Z</time>
      </trkpt>
      <trkpt lat="45.28435" lon="5.4447">
        <ele>495</ele>
        <time>2013-12-14T10:12:01Z</time>
      </trkpt>
      <trkpt lat="45.28441" lon="5.44485">
        <ele>492</ele>
        <time>2013-12-14T10:12:16Z</time>
      </trkpt>
      <trkpt lat="45.28448" lon="5.44498">
        <ele>489</ele>
        <time>2013-12-14T10:12:30Z</time>
      </trkpt>
      <trkpt lat="45.28457" lon="5.4451">
        <ele>487</ele>
        <time>2013-12-14T10:12:42Z</time>
      </trkpt>
      <trkpt lat="45.28469" lon="5.4452">
        <ele>485</ele>
        <time>2013-12-14T10:12:58Z</time>
      </trkpt>
      <trkpt lat="45.28481" lon="5.44523">
        <ele>482</ele>
        <time>2013-12-14T10:13:13Z</time>
      </trkpt>
      <trkpt lat="45.28492" lon="5.44525">
        <ele>480</ele>
        <time>2013-12-14T10:13:26Z</time>
      </trkpt>
      <trkpt lat="45.28498" lon="5.44528">
        <ele>479</ele>
        <time>2013-12-14T10:13:36Z</time>
      </trkpt>
      <trkpt lat="45.28512" lon="5.44531">
        <ele>476</ele>
        <time>2013-12-14T10:13:52Z</time>
      </trkpt>
      <trkpt lat="45.28513" lon="5.44532">
        <ele>476</ele>
        <time>2013-12-14T10:13:53Z</time>
      </trkpt>
      <trkpt lat="45.2852" lon="5.44534">
        <ele>475</ele>
        <time>2013-12-14T10:13:59Z</time>
      </trkpt>
      <trkpt lat="45.28529" lon="5.44537">
        <ele>473</ele>
        <time>2013-12-14T10:14:14Z</time>
      </trkpt>
      <trkpt lat="45.28529" lon="5.44538">
        <ele>474</ele>
        <time>2013-12-14T10:14:27Z</time>
      </trkpt>
      <trkpt lat="45.2853" lon="5.44538">
        <ele>473</ele>
        <time>2013-12-14T10:14:41Z</time>
      </trkpt>
      <trkpt lat="45.28529" lon="5.44539">
        <ele>474</ele>
        <time>2013-12-14T10:14:58Z</time>
      </trkpt>
      <trkpt lat="45.28529" lon="5.4454">
        <ele>473</ele>
        <time>2013-12-14T10:15:16Z</time>
      </trkpt>
      <trkpt lat="45.28529" lon="5.4453">
        <ele>474</ele>
        <time>2013-12-14T10:15:30Z</time>
      </trkpt>
      <trkpt lat="45.28529" lon="5.44527">
        <ele>474</ele>
        <time>2013-12-14T10:15:32Z</time>
      </trkpt>
      <trkpt lat="45.28528" lon="5.44506">
        <ele>475</ele>
        <time>2013-12-14T10:15:50Z</time>
      </trkpt>
      <trkpt lat="45.28527" lon="5.44485">
        <ele>475</ele>
        <time>2013-12-14T10:16:05Z</time>
      </trkpt>
      <trkpt lat="45.28529" lon="5.44478">
        <ele>477</ele>
        <time>2013-12-14T10:16:23Z</time>
      </trkpt>
      <trkpt lat="45.28528" lon="5.44477">
        <ele>476</ele>
        <time>2013-12-14T10:16:37Z</time>
      </trkpt>
      <trkpt lat="45.28528" lon="5.44477">
        <ele>476</ele>
        <time>2013-12-14T10:17:00Z</time>
      </trkpt>
      <trkpt lat="45.28528" lon="5.44478">
        <ele>476</ele>
        <time>2013-12-14T10:17:22Z</time>
      </trkpt>
      <trkpt lat="45.28527" lon="5.44478">
        <ele>476</ele>
        <time>2013-12-14T10:17:41Z</time>
      </trkpt>
      <trkpt lat="45.28526" lon="5.44476">
        <ele>476</ele>
        <time>2013-12-14T10:17:56Z</time>
      </trkpt>
      <trkpt lat="45.28528" lon="5.44474">
        <ele>476</ele>
        <time>2013-12-14T10:18:13Z</time>
      </trkpt>
      <trkpt lat="45.28529" lon="5.44476">
        <ele>476</ele>
        <time>2013-12-14T10:18:45Z</time>
      </trkpt>
      <trkpt lat="45.28527" lon="5.44477">
        <ele>477</ele>
        <time>2013-12-14T10:19:06Z</time>
      </trkpt>
      <trkpt lat="45.28528" lon="5.44475">
        <ele>476</ele>
        <time>2013-12-14T10:19:27Z</time>
      </trkpt>
      <trkpt lat="45.28527" lon="5.44475">
        <ele>476</ele>
        <time>2013-12-14T10:19:46Z</time>
      </trkpt>
      <trkpt lat="45.28528" lon="5.44472">
        <ele>476</ele>
        <time>2013-12-14T10:20:00Z</time>
      </trkpt>
      <trkpt lat="45.28528" lon="5.4447">
        <ele>476</ele>
        <time>2013-12-14T10:20:26Z</time>
      </trkpt>
      <trkpt lat="45.28528" lon="5.44471">
        <ele>476</ele>
        <time>2013-12-14T10:20:45Z</time>
      </trkpt>
      <trkpt lat="45.28527" lon="5.44469">
        <ele>480</ele>
        <time>2013-12-14T10:20:59Z</time>
      </trkpt>
      <trkpt lat="45.28527" lon="5.44469">
        <ele>475</ele>
        <time>2013-12-14T10:21:00Z</time>
      </trkpt>
      <trkpt lat="45.28528" lon="5.44458">
        <ele>477</ele>
        <time>2013-12-14T10:21:12Z</time>
      </trkpt>
      <trkpt lat="45.28529" lon="5.44457">
        <ele>477</ele>
        <time>2013-12-14T10:21:13Z</time>
      </trkpt>
      <trkpt lat="45.28538" lon="5.44434">
        <ele>479</ele>
        <time>2013-12-14T10:21:28Z</time>
      </trkpt>
      <trkpt lat="45.28546" lon="5.44419">
        <ele>479</ele>
        <time>2013-12-14T10:21:40Z</time>
      </trkpt>
      <trkpt lat="45.28558" lon="5.44404">
        <ele>481</ele>
        <time>2013-12-14T10:21:54Z</time>
      </trkpt>
      <trkpt lat="45.28562" lon="5.44399">
        <ele>481</ele>
        <time>2013-12-14T10:21:59Z</time>
      </trkpt>
      <trkpt lat="45.2857" lon="5.44377">
        <ele>483</ele>
        <time>2013-12-14T10:22:14Z</time>
      </trkpt>
      <trkpt lat="45.28577" lon="5.44351">
        <ele>484</ele>
        <time>2013-12-14T10:22:31Z</time>
      </trkpt>
      <trkpt lat="45.28584" lon="5.44322">
        <ele>487</ele>
        <time>2013-12-14T10:22:49Z</time>
      </trkpt>
      <trkpt lat="45.28591" lon="5.44296">
        <ele>488</ele>
        <time>2013-12-14T10:23:06Z</time>
      </trkpt>
      <trkpt lat="45.28594" lon="5.44284">
        <ele>488</ele>
        <time>2013-12-14T10:23:15Z</time>
      </trkpt>
      <trkpt lat="45.28598" lon="5.44272">
        <ele>490</ele>
        <time>2013-12-14T10:23:23Z</time>
      </trkpt>
      <trkpt lat="45.28605" lon="5.4425">
        <ele>491</ele>
        <time>2013-12-14T10:23:37Z</time>
      </trkpt>
      <trkpt lat="45.28607" lon="5.44238">
        <ele>492</ele>
        <time>2013-12-14T10:23:49Z</time>
      </trkpt>
      <trkpt lat="45.2861" lon="5.44225">
        <ele>494</ele>
        <time>2013-12-14T10:23:59Z</time>
      </trkpt>
      <trkpt lat="45.28617" lon="5.44212">
        <ele>493</ele>
        <time>2013-12-14T10:24:08Z</time>
      </trkpt>
      <trkpt lat="45.28632" lon="5.44204">
        <ele>495</ele>
        <time>2013-12-14T10:24:22Z</time>
      </trkpt>
      <trkpt lat="45.28636" lon="5.44205">
        <ele>495</ele>
        <time>2013-12-14T10:24:26Z</time>
      </trkpt>
      <trkpt lat="45.28642" lon="5.4421">
        <ele>496</ele>
        <time>2013-12-14T10:24:32Z</time>
      </trkpt>
      <trkpt lat="45.28654" lon="5.44238">
        <ele>497</ele>
        <time>2013-12-14T10:24:45Z</time>
      </trkpt>
      <trkpt lat="45.28653" lon="5.44267">
        <ele>498</ele>
        <time>2013-12-14T10:25:01Z</time>
      </trkpt>
      <trkpt lat="45.28657" lon="5.44291">
        <ele>502</ele>
        <time>2013-12-14T10:25:17Z</time>
      </trkpt>
      <trkpt lat="45.28658" lon="5.44296">
        <ele>500</ele>
        <time>2013-12-14T10:25:20Z</time>
      </trkpt>
      <trkpt lat="45.28659" lon="5.44299">
        <ele>500</ele>
        <time>2013-12-14T10:25:22Z</time>
      </trkpt>
      <trkpt lat="45.28667" lon="5.44315">
        <ele>502</ele>
        <time>2013-12-14T10:25:35Z</time>
      </trkpt>
      <trkpt lat="45.28674" lon="5.44338">
        <ele>503</ele>
        <time>2013-12-14T10:25:51Z</time>
      </trkpt>
      <trkpt lat="45.28677" lon="5.44365">
        <ele>506</ele>
        <time>2013-12-14T10:26:09Z</time>
      </trkpt>
      <trkpt lat="45.2868" lon="5.44389">
        <ele>507</ele>
        <time>2013-12-14T10:26:24Z</time>
      </trkpt>
      <trkpt lat="45.28681" lon="5.44396">
        <ele>507</ele>
        <time>2013-12-14T10:26:28Z</time>
      </trkpt>
      <trkpt lat="45.28683" lon="5.44423">
        <ele>509</ele>
        <time>2013-12-14T10:26:45Z</time>
      </trkpt>
      <trkpt lat="45.28689" lon="5.44451">
        <ele>510</ele>
        <time>2013-12-14T10:27:02Z</time>
      </trkpt>
      <trkpt lat="45.2869" lon="5.44458">
        <ele>512</ele>
        <time>2013-12-14T10:27:06Z</time>
      </trkpt>
      <trkpt lat="45.28694" lon="5.44483">
        <ele>513</ele>
        <time>2013-12-14T10:27:22Z</time>
      </trkpt>
      <trkpt lat="45.28696" lon="5.44506">
        <ele>514</ele>
        <time>2013-12-14T10:27:36Z</time>
      </trkpt>
      <trkpt lat="45.28698" lon="5.4453">
        <ele>515</ele>
        <time>2013-12-14T10:27:51Z</time>
      </trkpt>
      <trkpt lat="45.287" lon="5.44557">
        <ele>517</ele>
        <time>2013-12-14T10:28:08Z</time>
      </trkpt>
      <trkpt lat="45.28704" lon="5.44585">
        <ele>520</ele>
        <time>2013-12-14T10:28:26Z</time>
      </trkpt>
      <trkpt lat="45.28706" lon="5.44606">
        <ele>521</ele>
        <time>2013-12-14T10:28:39Z</time>
      </trkpt>
      <trkpt lat="45.28708" lon="5.44626">
        <ele>522</ele>
        <time>2013-12-14T10:28:52Z</time>
      </trkpt>
      <trkpt lat="45.28711" lon="5.44656">
        <ele>524</ele>
        <time>2013-12-14T10:29:10Z</time>
      </trkpt>
      <trkpt lat="45.28719" lon="5.44682">
        <ele>526</ele>
        <time>2013-12-14T10:29:28Z</time>
      </trkpt>
      <trkpt lat="45.28737" lon="5.44686">
        <ele>527</ele>
        <time>2013-12-14T10:29:44Z</time>
      </trkpt>
      <trkpt lat="45.2875" lon="5.44668">
        <ele>528</ele>
        <time>2013-12-14T10:30:02Z</time>
      </trkpt>
      <trkpt lat="45.28755" lon="5.44647">
        <ele>530</ele>
        <time>2013-12-14T10:30:17Z</time>
      </trkpt>
      <trkpt lat="45.28755" lon="5.44642">
        <ele>530</ele>
        <time>2013-12-14T10:30:31Z</time>
      </trkpt>
      <trkpt lat="45.28755" lon="5.44637">
        <ele>531</ele>
        <time>2013-12-14T10:30:47Z</time>
      </trkpt>
      <trkpt lat="45.28756" lon="5.44631">
        <ele>533</ele>
        <time>2013-12-14T10:30:58Z</time>
      </trkpt>
      <trkpt lat="45.28755" lon="5.44623">
        <ele>534</ele>
        <time>2013-12-14T10:31:11Z</time>
      </trkpt>
      <trkpt lat="45.28755" lon="5.44611">
        <ele>537</ele>
        <time>2013-12-14T10:31:22Z</time>
      </trkpt>
      <trkpt lat="45.28755" lon="5.44604">
        <ele>537</ele>
        <time>2013-12-14T10:31:30Z</time>
      </trkpt>
      <trkpt lat="45.28755" lon="5.44599">
        <ele>538</ele>
        <time>2013-12-14T10:31:34Z</time>
      </trkpt>
      <trkpt lat="45.28763" lon="5.44589">
        <ele>540</ele>
        <time>2013-12-14T10:31:45Z</time>
      </trkpt>
      <trkpt lat="45.28769" lon="5.4458">
        <ele>542</ele>
        <time>2013-12-14T10:31:56Z</time>
      </trkpt>
      <trkpt lat="45.28775" lon="5.44569">
        <ele>543</ele>
        <time>2013-12-14T10:32:08Z</time>
      </trkpt>
      <trkpt lat="45.2878" lon="5.4456">
        <ele>545</ele>
        <time>2013-12-14T10:32:19Z</time>
      </trkpt>
      <trkpt lat="45.28787" lon="5.44549">
        <ele>547</ele>
        <time>2013-12-14T10:32:32Z</time>
      </trkpt>
      <trkpt lat="45.28793" lon="5.4454">
        <ele>548</ele>
        <time>2013-12-14T10:32:43Z</time>
      </trkpt>
      <trkpt lat="45.28794" lon="5.44539">
        <ele>549</ele>
        <time>2013-12-14T10:32:45Z</time>
      </trkpt>
      <trkpt lat="45.28801" lon="5.44528">
        <ele>551</ele>
        <time>2013-12-14T10:32:58Z</time>
      </trkpt>
      <trkpt lat="45.28807" lon="5.44518">
        <ele>551</ele>
        <time>2013-12-14T10:33:10Z</time>
      </trkpt>
      <trkpt lat="45.2881" lon="5.44515">
        <ele>552</ele>
        <time>2013-12-14T10:33:14Z</time>
      </trkpt>
      <trkpt lat="45.28815" lon="5.44507">
        <ele>554</ele>
        <time>2013-12-14T10:33:25Z</time>
      </trkpt>
      <trkpt lat="45.28819" lon="5.44501">
        <ele>556</ele>
        <time>2013-12-14T10:33:33Z</time>
      </trkpt>
      <trkpt lat="45.28826" lon="5.44491">
        <ele>557</ele>
        <time>2013-12-14T10:33:44Z</time>
      </trkpt>
      <trkpt lat="45.28833" lon="5.44483">
        <ele>559</ele>
        <time>2013-12-14T10:33:55Z</time>
      </trkpt>
      <trkpt lat="45.28839" lon="5.44474">
        <ele>561</ele>
        <time>2013-12-14T10:34:06Z</time>
      </trkpt>
      <trkpt lat="45.28846" lon="5.44463">
        <ele>561</ele>
        <time>2013-12-14T10:34:16Z</time>
      </trkpt>
      <trkpt lat="45.28852" lon="5.44451">
        <ele>563</ele>
        <time>2013-12-14T10:34:28Z</time>
      </trkpt>
      <trkpt lat="45.28858" lon="5.44443">
        <ele>565</ele>
        <time>2013-12-14T10:34:40Z</time>
      </trkpt>
      <trkpt lat="45.28864" lon="5.44432">
        <ele>567</ele>
        <time>2013-12-14T10:34:52Z</time>
      </trkpt>
      <trkpt lat="45.28867" lon="5.4442">
        <ele>569</ele>
        <time>2013-12-14T10:35:05Z</time>
      </trkpt>
      <trkpt lat="45.28871" lon="5.44408">
        <ele>571</ele>
        <time>2013-12-14T10:35:18Z</time>
      </trkpt>
      <trkpt lat="45.2887" lon="5.4439">
        <ele>573</ele>
        <time>2013-12-14T10:35:31Z</time>
      </trkpt>
      <trkpt lat="45.28871" lon="5.44377">
        <ele>574</ele>
        <time>2013-12-14T10:35:43Z</time>
      </trkpt>
      <trkpt lat="45.28875" lon="5.44358">
        <ele>575</ele>
        <time>2013-12-14T10:35:57Z</time>
      </trkpt>
      <trkpt lat="45.28876" lon="5.4434">
        <ele>576</ele>
        <time>2013-12-14T10:36:11Z</time>
      </trkpt>
      <trkpt lat="45.28876" lon="5.44323">
        <ele>579</ele>
        <time>2013-12-14T10:36:24Z</time>
      </trkpt>
      <trkpt lat="45.28877" lon="5.44321">
        <ele>579</ele>
        <time>2013-12-14T10:36:26Z</time>
      </trkpt>
      <trkpt lat="45.28878" lon="5.44315">
        <ele>579</ele>
        <time>2013-12-14T10:36:30Z</time>
      </trkpt>
      <trkpt lat="45.2888" lon="5.44297">
        <ele>581</ele>
        <time>2013-12-14T10:36:44Z</time>
      </trkpt>
      <trkpt lat="45.2888" lon="5.44283">
        <ele>581</ele>
        <time>2013-12-14T10:36:54Z</time>
      </trkpt>
      <trkpt lat="45.28884" lon="5.44269">
        <ele>583</ele>
        <time>2013-12-14T10:37:05Z</time>
      </trkpt>
      <trkpt lat="45.28885" lon="5.44267">
        <ele>583</ele>
        <time>2013-12-14T10:37:07Z</time>
      </trkpt>
      <trkpt lat="45.28889" lon="5.44258">
        <ele>583</ele>
        <time>2013-12-14T10:37:15Z</time>
      </trkpt>
      <trkpt lat="45.28891" lon="5.44253">
        <ele>583</ele>
        <time>2013-12-14T10:37:19Z</time>
      </trkpt>
      <trkpt lat="45.28891" lon="5.44248">
        <ele>584</ele>
        <time>2013-12-14T10:37:23Z</time>
      </trkpt>
      <trkpt lat="45.28896" lon="5.44233">
        <ele>586</ele>
        <time>2013-12-14T10:37:35Z</time>
      </trkpt>
      <trkpt lat="45.289" lon="5.4422">
        <ele>587</ele>
        <time>2013-12-14T10:37:46Z</time>
      </trkpt>
      <trkpt lat="45.28903" lon="5.44205">
        <ele>590</ele>
        <time>2013-12-14T10:37:58Z</time>
      </trkpt>
      <trkpt lat="45.28905" lon="5.44192">
        <ele>591</ele>
        <time>2013-12-14T10:38:09Z</time>
      </trkpt>
      <trkpt lat="45.28906" lon="5.44181">
        <ele>592</ele>
        <time>2013-12-14T10:38:18Z</time>
      </trkpt>
      <trkpt lat="45.28907" lon="5.4417">
        <ele>594</ele>
        <time>2013-12-14T10:38:28Z</time>
      </trkpt>
      <trkpt lat="45.28907" lon="5.44166">
        <ele>594</ele>
        <time>2013-12-14T10:38:32Z</time>
      </trkpt>
      <trkpt lat="45.2891" lon="5.44156">
        <ele>596</ele>
        <time>2013-12-14T10:38:44Z</time>
      </trkpt>
      <trkpt lat="45.28914" lon="5.44143">
        <ele>598</ele>
        <time>2013-12-14T10:38:57Z</time>
      </trkpt>
      <trkpt lat="45.28918" lon="5.44131">
        <ele>599</ele>
        <time>2013-12-14T10:39:08Z</time>
      </trkpt>
      <trkpt lat="45.28923" lon="5.44122">
        <ele>602</ele>
        <time>2013-12-14T10:39:21Z</time>
      </trkpt>
      <trkpt lat="45.28933" lon="5.44114">
        <ele>603</ele>
        <time>2013-12-14T10:39:34Z</time>
      </trkpt>
      <trkpt lat="45.28937" lon="5.4411">
        <ele>604</ele>
        <time>2013-12-14T10:39:57Z</time>
      </trkpt>
      <trkpt lat="45.28939" lon="5.4411">
        <ele>604</ele>
        <time>2013-12-14T10:40:22Z</time>
      </trkpt>
      <trkpt lat="45.28941" lon="5.4411">
        <ele>603</ele>
        <time>2013-12-14T10:40:51Z</time>
      </trkpt>
      <trkpt lat="45.28939" lon="5.44111">
        <ele>605</ele>
        <time>2013-12-14T10:41:08Z</time>
      </trkpt>
      <trkpt lat="45.28941" lon="5.44114">
        <ele>605</ele>
        <time>2013-12-14T10:41:16Z</time>
      </trkpt>
      <trkpt lat="45.28949" lon="5.44113">
        <ele>606</ele>
        <time>2013-12-14T10:41:26Z</time>
      </trkpt>
      <trkpt lat="45.28958" lon="5.44115">
        <ele>608</ele>
        <time>2013-12-14T10:41:40Z</time>
      </trkpt>
      <trkpt lat="45.28967" lon="5.44119">
        <ele>609</ele>
        <time>2013-12-14T10:41:52Z</time>
      </trkpt>
      <trkpt lat="45.28977" lon="5.44123">
        <ele>611</ele>
        <time>2013-12-14T10:42:05Z</time>
      </trkpt>
      <trkpt lat="45.28985" lon="5.44128">
        <ele>612</ele>
        <time>2013-12-14T10:42:17Z</time>
      </trkpt>
      <trkpt lat="45.28996" lon="5.44131">
        <ele>614</ele>
        <time>2013-12-14T10:42:31Z</time>
      </trkpt>
      <trkpt lat="45.29006" lon="5.44131">
        <ele>617</ele>
        <time>2013-12-14T10:42:46Z</time>
      </trkpt>
      <trkpt lat="45.29012" lon="5.44127">
        <ele>618</ele>
        <time>2013-12-14T10:42:57Z</time>
      </trkpt>
      <trkpt lat="45.29019" lon="5.44124">
        <ele>620</ele>
        <time>2013-12-14T10:43:09Z</time>
      </trkpt>
      <trkpt lat="45.29025" lon="5.44118">
        <ele>622</ele>
        <time>2013-12-14T10:43:20Z</time>
      </trkpt>
      <trkpt lat="45.29035" lon="5.44107">
        <ele>624</ele>
        <time>2013-12-14T10:43:34Z</time>
      </trkpt>
      <trkpt lat="45.29041" lon="5.44096">
        <ele>625</ele>
        <time>2013-12-14T10:43:45Z</time>
      </trkpt>
      <trkpt lat="45.29047" lon="5.44084">
        <ele>626</ele>
        <time>2013-12-14T10:43:58Z</time>
      </trkpt>
      <trkpt lat="45.29051" lon="5.44072">
        <ele>628</ele>
        <time>2013-12-14T10:44:11Z</time>
      </trkpt>
      <trkpt lat="45.29054" lon="5.44061">
        <ele>629</ele>
        <time>2013-12-14T10:44:20Z</time>
      </trkpt>
      <trkpt lat="45.29058" lon="5.44047">
        <ele>630</ele>
        <time>2013-12-14T10:44:32Z</time>
      </trkpt>
      <trkpt lat="45.29063" lon="5.44036">
        <ele>632</ele>
        <time>2013-12-14T10:44:44Z</time>
      </trkpt>
      <trkpt lat="45.29068" lon="5.44015">
        <ele>633</ele>
        <time>2013-12-14T10:44:58Z</time>
      </trkpt>
      <trkpt lat="45.29074" lon="5.43999">
        <ele>635</ele>
        <time>2013-12-14T10:45:12Z</time>
      </trkpt>
      <trkpt lat="45.29079" lon="5.43986">
        <ele>635</ele>
        <time>2013-12-14T10:45:23Z</time>
      </trkpt>
      <trkpt lat="45.29085" lon="5.43973">
        <ele>637</ele>
        <time>2013-12-14T10:45:37Z</time>
      </trkpt>
      <trkpt lat="45.29089" lon="5.43958">
        <ele>638</ele>
        <time>2013-12-14T10:45:49Z</time>
      </trkpt>
      <trkpt lat="45.29093" lon="5.43943">
        <ele>640</ele>
        <time>2013-12-14T10:46:02Z</time>
      </trkpt>
      <trkpt lat="45.29094" lon="5.43931">
        <ele>643</ele>
        <time>2013-12-14T10:46:16Z</time>
      </trkpt>
      <trkpt lat="45.29099" lon="5.43923">
        <ele>643</ele>
        <time>2013-12-14T10:46:29Z</time>
      </trkpt>
      <trkpt lat="45.291" lon="5.43922">
        <ele>643</ele>
        <time>2013-12-14T10:46:43Z</time>
      </trkpt>
      <trkpt lat="45.29104" lon="5.43919">
        <ele>644</ele>
        <time>2013-12-14T10:47:11Z</time>
      </trkpt>
      <trkpt lat="45.2911" lon="5.4391">
        <ele>645</ele>
        <time>2013-12-14T10:47:20Z</time>
      </trkpt>
      <trkpt lat="45.29122" lon="5.43895">
        <ele>646</ele>
        <time>2013-12-14T10:47:36Z</time>
      </trkpt>
      <trkpt lat="45.29124" lon="5.43891">
        <ele>647</ele>
        <time>2013-12-14T10:47:40Z</time>
      </trkpt>
      <trkpt lat="45.29133" lon="5.43878">
        <ele>647</ele>
        <time>2013-12-14T10:47:53Z</time>
      </trkpt>
      <trkpt lat="45.29143" lon="5.43863">
        <ele>648</ele>
        <time>2013-12-14T10:48:07Z</time>
      </trkpt>
      <trkpt lat="45.29148" lon="5.43851">
        <ele>650</ele>
        <time>2013-12-14T10:48:21Z</time>
      </trkpt>
      <trkpt lat="45.29156" lon="5.43838">
        <ele>652</ele>
        <time>2013-12-14T10:48:35Z</time>
      </trkpt>
      <trkpt lat="45.29164" lon="5.43827">
        <ele>653</ele>
        <time>2013-12-14T10:48:47Z</time>
      </trkpt>
      <trkpt lat="45.2917" lon="5.43814">
        <ele>655</ele>
        <time>2013-12-14T10:49:02Z</time>
      </trkpt>
      <trkpt lat="45.29178" lon="5.438">
        <ele>657</ele>
        <time>2013-12-14T10:49:17Z</time>
      </trkpt>
      <trkpt lat="45.29186" lon="5.4379">
        <ele>658</ele>
        <time>2013-12-14T10:49:30Z</time>
      </trkpt>
      <trkpt lat="45.29195" lon="5.4378">
        <ele>659</ele>
        <time>2013-12-14T10:49:43Z</time>
      </trkpt>
      <trkpt lat="45.29201" lon="5.43763">
        <ele>661</ele>
        <time>2013-12-14T10:49:56Z</time>
      </trkpt>
      <trkpt lat="45.29208" lon="5.43754">
        <ele>662</ele>
        <time>2013-12-14T10:50:12Z</time>
      </trkpt>
      <trkpt lat="45.29215" lon="5.43749">
        <ele>664</ele>
        <time>2013-12-14T10:50:22Z</time>
      </trkpt>
      <trkpt lat="45.29222" lon="5.43745">
        <ele>664</ele>
        <time>2013-12-14T10:50:34Z</time>
      </trkpt>
      <trkpt lat="45.29227" lon="5.43744">
        <ele>665</ele>
        <time>2013-12-14T10:50:44Z</time>
      </trkpt>
      <trkpt lat="45.29231" lon="5.43745">
        <ele>665</ele>
        <time>2013-12-14T10:50:56Z</time>
      </trkpt>
      <trkpt lat="45.29234" lon="5.43743">
        <ele>666</ele>
        <time>2013-12-14T10:51:19Z</time>
      </trkpt>
      <trkpt lat="45.29238" lon="5.4374">
        <ele>669</ele>
        <time>2013-12-14T10:51:30Z</time>
      </trkpt>
      <trkpt lat="45.29243" lon="5.43739">
        <ele>670</ele>
        <time>2013-12-14T10:51:42Z</time>
      </trkpt>
      <trkpt lat="45.29242" lon="5.43741">
        <ele>669</ele>
        <time>2013-12-14T10:51:53Z</time>
      </trkpt>
      <trkpt lat="45.29244" lon="5.4374">
        <ele>670</ele>
        <time>2013-12-14T10:51:57Z</time>
      </trkpt>
      <trkpt lat="45.29248" lon="5.43741">
        <ele>671</ele>
        <time>2013-12-14T10:52:08Z</time>
      </trkpt>
      <trkpt lat="45.29252" lon="5.43744">
        <ele>673</ele>
        <time>2013-12-14T10:52:27Z</time>
      </trkpt>
      <trkpt lat="45.29257" lon="5.43745">
        <ele>674</ele>
        <time>2013-12-14T10:52:38Z</time>
      </trkpt>
      <trkpt lat="45.2926" lon="5.43748">
        <ele>674</ele>
        <time>2013-12-14T10:52:50Z</time>
      </trkpt>
      <trkpt lat="45.29262" lon="5.43749">
        <ele>674</ele>
        <time>2013-12-14T10:53:03Z</time>
      </trkpt>
      <trkpt lat="45.29263" lon="5.43751">
        <ele>674</ele>
        <time>2013-12-14T10:53:07Z</time>
      </trkpt>
      <trkpt lat="45.29267" lon="5.43759">
        <ele>676</ele>
        <time>2013-12-14T10:53:20Z</time>
      </trkpt>
      <trkpt lat="45.29267" lon="5.43763">
        <ele>675</ele>
        <time>2013-12-14T10:53:31Z</time>
      </trkpt>
      <trkpt lat="45.29266" lon="5.43762">
        <ele>674</ele>
        <time>2013-12-14T10:53:50Z</time>
      </trkpt>
      <trkpt lat="45.29267" lon="5.43764">
        <ele>674</ele>
        <time>2013-12-14T10:54:05Z</time>
      </trkpt>
      <trkpt lat="45.29272" lon="5.43767">
        <ele>676</ele>
        <time>2013-12-14T10:54:19Z</time>
      </trkpt>
      <trkpt lat="45.29274" lon="5.43773">
        <ele>676</ele>
        <time>2013-12-14T10:54:31Z</time>
      </trkpt>
      <trkpt lat="45.29273" lon="5.43777">
        <ele>674</ele>
        <time>2013-12-14T10:54:47Z</time>
      </trkpt>
      <trkpt lat="45.29274" lon="5.43779">
        <ele>674</ele>
        <time>2013-12-14T10:55:00Z</time>
      </trkpt>
      <trkpt lat="45.29274" lon="5.43781">
        <ele>674</ele>
        <time>2013-12-14T10:55:12Z</time>
      </trkpt>
      <trkpt lat="45.29275" lon="5.43784">
        <ele>673</ele>
        <time>2013-12-14T10:55:26Z</time>
      </trkpt>
      <trkpt lat="45.29276" lon="5.43783">
        <ele>672</ele>
        <time>2013-12-14T10:55:44Z</time>
      </trkpt>
      <trkpt lat="45.29275" lon="5.43784">
        <ele>672</ele>
        <time>2013-12-14T10:55:59Z</time>
      </trkpt>
      <trkpt lat="45.29274" lon="5.43784">
        <ele>672</ele>
        <time>2013-12-14T10:56:24Z</time>
      </trkpt>
      <trkpt lat="45.29277" lon="5.43785">
        <ele>672</ele>
        <time>2013-12-14T10:56:42Z</time>
      </trkpt>
      <trkpt lat="45.29281" lon="5.43788">
        <ele>673</ele>
        <time>2013-12-14T10:56:57Z</time>
      </trkpt>
      <trkpt lat="45.29288" lon="5.43794">
        <ele>674</ele>
        <time>2013-12-14T10:57:09Z</time>
      </trkpt>
      <trkpt lat="45.29294" lon="5.43801">
        <ele>676</ele>
        <time>2013-12-14T10:57:21Z</time>
      </trkpt>
      <trkpt lat="45.29301" lon="5.43805">
        <ele>677</ele>
        <time>2013-12-14T10:57:31Z</time>
      </trkpt>
      <trkpt lat="45.29309" lon="5.43809">
        <ele>678</ele>
        <time>2013-12-14T10:57:42Z</time>
      </trkpt>
      <trkpt lat="45.29309" lon="5.43809">
        <ele>678</ele>
        <time>2013-12-14T10:57:43Z</time>
      </trkpt>
      <trkpt lat="45.29318" lon="5.43814">
        <ele>680</ele>
        <time>2013-12-14T10:57:55Z</time>
      </trkpt>
      <trkpt lat="45.29326" lon="5.43815">
        <ele>681</ele>
        <time>2013-12-14T10:58:05Z</time>
      </trkpt>
      <trkpt lat="45.29337" lon="5.43817">
        <ele>682</ele>
        <time>2013-12-14T10:58:17Z</time>
      </trkpt>
      <trkpt lat="45.29338" lon="5.43817">
        <ele>682</ele>
        <time>2013-12-14T10:58:18Z</time>
      </trkpt>
      <trkpt lat="45.29348" lon="5.43816">
        <ele>683</ele>
        <time>2013-12-14T10:58:29Z</time>
      </trkpt>
      <trkpt lat="45.29357" lon="5.43816">
        <ele>684</ele>
        <time>2013-12-14T10:58:40Z</time>
      </trkpt>
      <trkpt lat="45.29363" lon="5.43817">
        <ele>686</ele>
        <time>2013-12-14T10:58:50Z</time>
      </trkpt>
      <trkpt lat="45.29368" lon="5.4382">
        <ele>686</ele>
        <time>2013-12-14T10:59:00Z</time>
      </trkpt>
      <trkpt lat="45.29371" lon="5.43823">
        <ele>686</ele>
        <time>2013-12-14T10:59:10Z</time>
      </trkpt>
      <trkpt lat="45.2937" lon="5.4382">
        <ele>686</ele>
        <time>2013-12-14T10:59:25Z</time>
      </trkpt>
      <trkpt lat="45.29372" lon="5.43803">
        <ele>687</ele>
        <time>2013-12-14T10:59:40Z</time>
      </trkpt>
      <trkpt lat="45.29378" lon="5.4379">
        <ele>687</ele>
        <time>2013-12-14T10:59:57Z</time>
      </trkpt>
      <trkpt lat="45.29383" lon="5.43787">
        <ele>687</ele>
        <time>2013-12-14T11:00:12Z</time>
      </trkpt>
      <trkpt lat="45.29383" lon="5.43785">
        <ele>687</ele>
        <time>2013-12-14T11:00:29Z</time>
      </trkpt>
      <trkpt lat="45.29379" lon="5.4379">
        <ele>687</ele>
        <time>2013-12-14T11:00:43Z</time>
      </trkpt>
      <trkpt lat="45.29378" lon="5.43792">
        <ele>687</ele>
        <time>2013-12-14T11:00:45Z</time>
      </trkpt>
      <trkpt lat="45.29372" lon="5.43817">
        <ele>687</ele>
        <time>2013-12-14T11:01:02Z</time>
      </trkpt>
      <trkpt lat="45.2937" lon="5.43837">
        <ele>685</ele>
        <time>2013-12-14T11:01:15Z</time>
      </trkpt>
      <trkpt lat="45.29368" lon="5.43857">
        <ele>684</ele>
        <time>2013-12-14T11:01:28Z</time>
      </trkpt>
      <trkpt lat="45.29367" lon="5.43875">
        <ele>683</ele>
        <time>2013-12-14T11:01:40Z</time>
      </trkpt>
      <trkpt lat="45.29364" lon="5.43896">
        <ele>682</ele>
        <time>2013-12-14T11:01:54Z</time>
      </trkpt>
      <trkpt lat="45.29364" lon="5.43923">
        <ele>682</ele>
        <time>2013-12-14T11:02:06Z</time>
      </trkpt>
      <trkpt lat="45.29363" lon="5.43933">
        <ele>682</ele>
        <time>2013-12-14T11:02:12Z</time>
      </trkpt>
      <trkpt lat="45.29359" lon="5.43958">
        <ele>681</ele>
        <time>2013-12-14T11:02:28Z</time>
      </trkpt>
      <trkpt lat="45.29347" lon="5.43974">
        <ele>681</ele>
        <time>2013-12-14T11:02:43Z</time>
      </trkpt>
      <trkpt lat="45.29339" lon="5.43988">
        <ele>682</ele>
        <time>2013-12-14T11:02:58Z</time>
      </trkpt>
      <trkpt lat="45.29335" lon="5.43991">
        <ele>682</ele>
        <time>2013-12-14T11:03:34Z</time>
      </trkpt>
      <trkpt lat="45.29339" lon="5.43985">
        <ele>682</ele>
        <time>2013-12-14T11:04:13Z</time>
      </trkpt>
      <trkpt lat="45.29338" lon="5.43987">
        <ele>681</ele>
        <time>2013-12-14T11:04:53Z</time>
      </trkpt>
      <trkpt lat="45.29339" lon="5.43988">
        <ele>681</ele>
        <time>2013-12-14T11:05:33Z</time>
      </trkpt>
      <trkpt lat="45.29341" lon="5.43991">
        <ele>681</ele>
        <time>2013-12-14T11:06:17Z</time>
      </trkpt>
      <trkpt lat="45.29336" lon="5.43985">
        <ele>682</ele>
        <time>2013-12-14T11:07:00Z</time>
      </trkpt>
      <trkpt lat="45.29333" lon="5.43982">
        <ele>682</ele>
        <time>2013-12-14T11:07:51Z</time>
      </trkpt>
      <trkpt lat="45.29336" lon="5.43986">
        <ele>681</ele>
        <time>2013-12-14T11:08:40Z</time>
      </trkpt>
      <trkpt lat="45.29339" lon="5.43988">
        <ele>681</ele>
        <time>2013-12-14T11:09:18Z</time>
      </trkpt>
      <trkpt lat="45.29341" lon="5.43981">
        <ele>681</ele>
        <time>2013-12-14T11:10:08Z</time>
      </trkpt>
      <trkpt lat="45.29341" lon="5.4398">
        <ele>681</ele>
        <time>2013-12-14T11:10:53Z</time>
      </trkpt>
      <trkpt lat="45.29341" lon="5.43988">
        <ele>680</ele>
        <time>2013-12-14T11:11:43Z</time>
      </trkpt>
      <trkpt lat="45.2934" lon="5.4398">
        <ele>680</ele>
        <time>2013-12-14T11:12:35Z</time>
      </trkpt>
      <trkpt lat="45.29345" lon="5.43982">
        <ele>680</ele>
        <time>2013-12-14T11:13:12Z</time>
      </trkpt>
      <trkpt lat="45.29341" lon="5.4398">
        <ele>680</ele>
        <time>2013-12-14T11:13:39Z</time>
      </trkpt>
      <trkpt lat="45.29337" lon="5.43993">
        <ele>679</ele>
        <time>2013-12-14T11:14:15Z</time>
      </trkpt>
      <trkpt lat="45.2934" lon="5.43985">
        <ele>680</ele>
        <time>2013-12-14T11:14:47Z</time>
      </trkpt>
      <trkpt lat="45.2934" lon="5.43982">
        <ele>679</ele>
        <time>2013-12-14T11:15:27Z</time>
      </trkpt>
      <trkpt lat="45.29337" lon="5.43984">
        <ele>680</ele>
        <time>2013-12-14T11:16:00Z</time>
      </trkpt>
      <trkpt lat="45.29333" lon="5.43984">
        <ele>680</ele>
        <time>2013-12-14T11:16:42Z</time>
      </trkpt>
      <trkpt lat="45.29333" lon="5.43981">
        <ele>680</ele>
        <time>2013-12-14T11:17:24Z</time>
      </trkpt>
      <trkpt lat="45.29333" lon="5.4399">
        <ele>680</ele>
        <time>2013-12-14T11:17:58Z</time>
      </trkpt>
      <trkpt lat="45.29334" lon="5.43985">
        <ele>681</ele>
        <time>2013-12-14T11:18:40Z</time>
      </trkpt>
      <trkpt lat="45.29332" lon="5.43985">
        <ele>681</ele>
        <time>2013-12-14T11:19:18Z</time>
      </trkpt>
      <trkpt lat="45.29338" lon="5.43988">
        <ele>682</ele>
        <time>2013-12-14T11:19:59Z</time>
      </trkpt>
      <trkpt lat="45.29334" lon="5.43983">
        <ele>682</ele>
        <time>2013-12-14T11:20:35Z</time>
      </trkpt>
      <trkpt lat="45.29335" lon="5.43982">
        <ele>682</ele>
        <time>2013-12-14T11:21:08Z</time>
      </trkpt>
      <trkpt lat="45.29339" lon="5.43985">
        <ele>683</ele>
        <time>2013-12-14T11:21:51Z</time>
      </trkpt>
      <trkpt lat="45.29334" lon="5.43985">
        <ele>682</ele>
        <time>2013-12-14T11:22:27Z</time>
      </trkpt>
      <trkpt lat="45.29334" lon="5.43988">
        <ele>682</ele>
        <time>2013-12-14T11:23:06Z</time>
      </trkpt>
      <trkpt lat="45.29337" lon="5.43988">
        <ele>683</ele>
        <time>2013-12-14T11:23:48Z</time>
      </trkpt>
      <trkpt lat="45.29334" lon="5.4399">
        <ele>683</ele>
        <time>2013-12-14T11:24:27Z</time>
      </trkpt>
      <trkpt lat="45.29338" lon="5.43982">
        <ele>682</ele>
        <time>2013-12-14T11:25:07Z</time>
      </trkpt>
      <trkpt lat="45.29337" lon="5.4398">
        <ele>682</ele>
        <time>2013-12-14T11:25:50Z</time>
      </trkpt>
      <trkpt lat="45.29336" lon="5.43989">
        <ele>682</ele>
        <time>2013-12-14T11:26:37Z</time>
      </trkpt>
      <trkpt lat="45.29336" lon="5.43986">
        <ele>683</ele>
        <time>2013-12-14T11:27:19Z</time>
      </trkpt>
      <trkpt lat="45.29337" lon="5.43982">
        <ele>683</ele>
        <time>2013-12-14T11:27:55Z</time>
      </trkpt>
      <trkpt lat="45.29336" lon="5.43993">
        <ele>682</ele>
        <time>2013-12-14T11:28:38Z</time>
      </trkpt>
      <trkpt lat="45.29336" lon="5.4399">
        <ele>682</ele>
        <time>2013-12-14T11:29:24Z</time>
      </trkpt>
      <trkpt lat="45.29333" lon="5.43989">
        <ele>683</ele>
        <time>2013-12-14T11:30:02Z</time>
      </trkpt>
      <trkpt lat="45.2933" lon="5.43987">
        <ele>683</ele>
        <time>2013-12-14T11:30:37Z</time>
      </trkpt>
      <trkpt lat="45.29334" lon="5.43989">
        <ele>684</ele>
        <time>2013-12-14T11:31:10Z</time>
      </trkpt>
      <trkpt lat="45.29336" lon="5.43988">
        <ele>684</ele>
        <time>2013-12-14T11:31:46Z</time>
      </trkpt>
      <trkpt lat="45.29339" lon="5.43987">
        <ele>684</ele>
        <time>2013-12-14T11:32:23Z</time>
      </trkpt>
      <trkpt lat="45.29334" lon="5.43986">
        <ele>684</ele>
        <time>2013-12-14T11:33:00Z</time>
      </trkpt>
      <trkpt lat="45.29331" lon="5.43979">
        <ele>685</ele>
        <time>2013-12-14T11:33:35Z</time>
      </trkpt>
      <trkpt lat="45.2933" lon="5.43983">
        <ele>684</ele>
        <time>2013-12-14T11:34:14Z</time>
      </trkpt>
      <trkpt lat="45.29332" lon="5.43986">
        <ele>684</ele>
        <time>2013-12-14T11:34:57Z</time>
      </trkpt>
      <trkpt lat="45.29335" lon="5.43983">
        <ele>684</ele>
        <time>2013-12-14T11:35:32Z</time>
      </trkpt>
      <trkpt lat="45.29332" lon="5.43983">
        <ele>685</ele>
        <time>2013-12-14T11:36:05Z</time>
      </trkpt>
      <trkpt lat="45.29328" lon="5.43978">
        <ele>685</ele>
        <time>2013-12-14T11:36:38Z</time>
      </trkpt>
      <trkpt lat="45.29331" lon="5.43976">
        <ele>684</ele>
        <time>2013-12-14T11:37:10Z</time>
      </trkpt>
      <trkpt lat="45.29332" lon="5.43984">
        <ele>686</ele>
        <time>2013-12-14T11:37:47Z</time>
      </trkpt>
      <trkpt lat="45.29332" lon="5.43978">
        <ele>686</ele>
        <time>2013-12-14T11:38:18Z</time>
      </trkpt>
      <trkpt lat="45.29333" lon="5.43979">
        <ele>686</ele>
        <time>2013-12-14T11:38:49Z</time>
      </trkpt>
      <trkpt lat="45.29335" lon="5.4398">
        <ele>687</ele>
        <time>2013-12-14T11:39:23Z</time>
      </trkpt>
      <trkpt lat="45.29326" lon="5.4398">
        <ele>687</ele>
        <time>2013-12-14T11:40:02Z</time>
      </trkpt>
      <trkpt lat="45.29328" lon="5.43979">
        <ele>687</ele>
        <time>2013-12-14T11:40:41Z</time>
      </trkpt>
      <trkpt lat="45.29329" lon="5.43986">
        <ele>688</ele>
        <time>2013-12-14T11:41:18Z</time>
      </trkpt>
      <trkpt lat="45.29329" lon="5.43987">
        <ele>688</ele>
        <time>2013-12-14T11:41:55Z</time>
      </trkpt>
      <trkpt lat="45.29325" lon="5.43981">
        <ele>688</ele>
        <time>2013-12-14T11:42:32Z</time>
      </trkpt>
      <trkpt lat="45.29331" lon="5.43986">
        <ele>689</ele>
        <time>2013-12-14T11:43:06Z</time>
      </trkpt>
      <trkpt lat="45.29336" lon="5.4399">
        <ele>689</ele>
        <time>2013-12-14T11:43:43Z</time>
      </trkpt>
      <trkpt lat="45.29339" lon="5.43989">
        <ele>689</ele>
        <time>2013-12-14T11:44:20Z</time>
      </trkpt>
      <trkpt lat="45.29338" lon="5.43991">
        <ele>689</ele>
        <time>2013-12-14T11:44:59Z</time>
      </trkpt>
      <trkpt lat="45.29337" lon="5.4399">
        <ele>690</ele>
        <time>2013-12-14T11:45:42Z</time>
      </trkpt>
      <trkpt lat="45.29338" lon="5.43985">
        <ele>690</ele>
        <time>2013-12-14T11:46:11Z</time>
      </trkpt>
      <trkpt lat="45.29343" lon="5.43974">
        <ele>689</ele>
        <time>2013-12-14T11:46:22Z</time>
      </trkpt>
      <trkpt lat="45.29345" lon="5.43972">
        <ele>689</ele>
        <time>2013-12-14T11:46:26Z</time>
      </trkpt>
      <trkpt lat="45.29352" lon="5.43963">
        <ele>690</ele>
        <time>2013-12-14T11:46:41Z</time>
      </trkpt>
      <trkpt lat="45.29352" lon="5.43963">
        <ele>689</ele>
        <time>2013-12-14T11:46:42Z</time>
      </trkpt>
      <trkpt lat="45.29348" lon="5.43972">
        <ele>689</ele>
        <time>2013-12-14T11:46:47Z</time>
      </trkpt>
      <trkpt lat="45.29344" lon="5.43977">
        <ele>690</ele>
        <time>2013-12-14T11:47:00Z</time>
      </trkpt>
      <trkpt lat="45.2935" lon="5.43967">
        <ele>690</ele>
        <time>2013-12-14T11:47:08Z</time>
      </trkpt>
      <trkpt lat="45.29353" lon="5.43958">
        <ele>690</ele>
        <time>2013-12-14T11:47:15Z</time>
      </trkpt>
      <trkpt lat="45.2936" lon="5.43935">
        <ele>690</ele>
        <time>2013-12-14T11:47:28Z</time>
      </trkpt>
      <trkpt lat="45.29366" lon="5.43907">
        <ele>687</ele>
        <time>2013-12-14T11:47:42Z</time>
      </trkpt>
      <trkpt lat="45.29367" lon="5.43905">
        <ele>692</ele>
        <time>2013-12-14T11:47:43Z</time>
      </trkpt>
      <trkpt lat="45.29367" lon="5.43903">
        <ele>691</ele>
        <time>2013-12-14T11:47:44Z</time>
      </trkpt>
      <trkpt lat="45.2937" lon="5.43881">
        <ele>692</ele>
        <time>2013-12-14T11:47:58Z</time>
      </trkpt>
      <trkpt lat="45.2937" lon="5.43863">
        <ele>692</ele>
        <time>2013-12-14T11:48:08Z</time>
      </trkpt>
      <trkpt lat="45.29371" lon="5.43859">
        <ele>692</ele>
        <time>2013-12-14T11:48:10Z</time>
      </trkpt>
      <trkpt lat="45.2937" lon="5.43828">
        <ele>693</ele>
        <time>2013-12-14T11:48:27Z</time>
      </trkpt>
      <trkpt lat="45.29373" lon="5.43804">
        <ele>694</ele>
        <time>2013-12-14T11:48:40Z</time>
      </trkpt>
      <trkpt lat="45.2938" lon="5.43787">
        <ele>694</ele>
        <time>2013-12-14T11:48:53Z</time>
      </trkpt>
      <trkpt lat="45.29389" lon="5.43779">
        <ele>695</ele>
        <time>2013-12-14T11:49:05Z</time>
      </trkpt>
      <trkpt lat="45.29396" lon="5.4377">
        <ele>695</ele>
        <time>2013-12-14T11:49:18Z</time>
      </trkpt>
      <trkpt lat="45.29399" lon="5.43766">
        <ele>696</ele>
        <time>2013-12-14T11:49:23Z</time>
      </trkpt>
      <trkpt lat="45.29408" lon="5.43757">
        <ele>696</ele>
        <time>2013-12-14T11:49:36Z</time>
      </trkpt>
      <trkpt lat="45.29418" lon="5.43744">
        <ele>696</ele>
        <time>2013-12-14T11:49:51Z</time>
      </trkpt>
      <trkpt lat="45.29431" lon="5.43726">
        <ele>696</ele>
        <time>2013-12-14T11:50:07Z</time>
      </trkpt>
      <trkpt lat="45.29438" lon="5.43715">
        <ele>696</ele>
        <time>2013-12-14T11:50:16Z</time>
      </trkpt>
      <trkpt lat="45.2945" lon="5.43699">
        <ele>698</ele>
        <time>2013-12-14T11:50:30Z</time>
      </trkpt>
      <trkpt lat="45.29459" lon="5.43685">
        <ele>699</ele>
        <time>2013-12-14T11:50:42Z</time>
      </trkpt>
      <trkpt lat="45.29465" lon="5.4368">
        <ele>700</ele>
        <time>2013-12-14T11:50:50Z</time>
      </trkpt>
      <trkpt lat="45.29474" lon="5.43672">
        <ele>702</ele>
        <time>2013-12-14T11:51:01Z</time>
      </trkpt>
      <trkpt lat="45.29482" lon="5.43666">
        <ele>703</ele>
        <time>2013-12-14T11:51:13Z</time>
      </trkpt>
      <trkpt lat="45.29493" lon="5.43658">
        <ele>705</ele>
        <time>2013-12-14T11:51:25Z</time>
      </trkpt>
      <trkpt lat="45.29502" lon="5.43644">
        <ele>706</ele>
        <time>2013-12-14T11:51:40Z</time>
      </trkpt>
      <trkpt lat="45.29511" lon="5.43623">
        <ele>707</ele>
        <time>2013-12-14T11:51:55Z</time>
      </trkpt>
      <trkpt lat="45.2952" lon="5.43605">
        <ele>708</ele>
        <time>2013-12-14T11:52:11Z</time>
      </trkpt>
      <trkpt lat="45.29523" lon="5.43591">
        <ele>706</ele>
        <time>2013-12-14T11:52:24Z</time>
      </trkpt>
      <trkpt lat="45.29528" lon="5.43575">
        <ele>706</ele>
        <time>2013-12-14T11:52:36Z</time>
      </trkpt>
      <trkpt lat="45.29536" lon="5.43557">
        <ele>707</ele>
        <time>2013-12-14T11:52:51Z</time>
      </trkpt>
      <trkpt lat="45.29536" lon="5.43556">
        <ele>707</ele>
        <time>2013-12-14T11:52:52Z</time>
      </trkpt>
      <trkpt lat="45.29543" lon="5.43535">
        <ele>707</ele>
        <time>2013-12-14T11:53:08Z</time>
      </trkpt>
      <trkpt lat="45.2955" lon="5.43522">
        <ele>706</ele>
        <time>2013-12-14T11:53:21Z</time>
      </trkpt>
      <trkpt lat="45.29554" lon="5.43516">
        <ele>706</ele>
        <time>2013-12-14T11:53:32Z</time>
      </trkpt>
      <trkpt lat="45.29559" lon="5.43504">
        <ele>705</ele>
        <time>2013-12-14T11:53:44Z</time>
      </trkpt>
      <trkpt lat="45.29565" lon="5.43492">
        <ele>706</ele>
        <time>2013-12-14T11:53:56Z</time>
      </trkpt>
      <trkpt lat="45.29574" lon="5.4348">
        <ele>707</ele>
        <time>2013-12-14T11:54:11Z</time>
      </trkpt>
      <trkpt lat="45.29582" lon="5.43472">
        <ele>708</ele>
        <time>2013-12-14T11:54:22Z</time>
      </trkpt>
      <trkpt lat="45.29584" lon="5.4347">
        <ele>708</ele>
        <time>2013-12-14T11:54:25Z</time>
      </trkpt>
      <trkpt lat="45.29598" lon="5.43463">
        <ele>711</ele>
        <time>2013-12-14T11:54:40Z</time>
      </trkpt>
      <trkpt lat="45.2961" lon="5.43459">
        <ele>711</ele>
        <time>2013-12-14T11:54:52Z</time>
      </trkpt>
      <trkpt lat="45.29621" lon="5.43446">
        <ele>711</ele>
        <time>2013-12-14T11:55:06Z</time>
      </trkpt>
      <trkpt lat="45.29625" lon="5.43442">
        <ele>710</ele>
        <time>2013-12-14T11:55:11Z</time>
      </trkpt>
      <trkpt lat="45.29637" lon="5.43437">
        <ele>710</ele>
        <time>2013-12-14T11:55:25Z</time>
      </trkpt>
      <trkpt lat="45.29647" lon="5.43432">
        <ele>709</ele>
        <time>2013-12-14T11:55:40Z</time>
      </trkpt>
      <trkpt lat="45.29656" lon="5.43431">
        <ele>708</ele>
        <time>2013-12-14T11:55:52Z</time>
      </trkpt>
      <trkpt lat="45.29674" lon="5.43425">
        <ele>708</ele>
        <time>2013-12-14T11:56:09Z</time>
      </trkpt>
      <trkpt lat="45.29688" lon="5.43424">
        <ele>707</ele>
        <time>2013-12-14T11:56:24Z</time>
      </trkpt>
      <trkpt lat="45.29689" lon="5.43425">
        <ele>707</ele>
        <time>2013-12-14T11:56:26Z</time>
      </trkpt>
      <trkpt lat="45.29703" lon="5.43426">
        <ele>706</ele>
        <time>2013-12-14T11:56:41Z</time>
      </trkpt>
      <trkpt lat="45.29715" lon="5.43434">
        <ele>704</ele>
        <time>2013-12-14T11:56:55Z</time>
      </trkpt>
      <trkpt lat="45.29719" lon="5.43435">
        <ele>704</ele>
        <time>2013-12-14T11:56:58Z</time>
      </trkpt>
      <trkpt lat="45.29726" lon="5.43442">
        <ele>704</ele>
        <time>2013-12-14T11:57:07Z</time>
      </trkpt>
      <trkpt lat="45.29737" lon="5.4345">
        <ele>703</ele>
        <time>2013-12-14T11:57:21Z</time>
      </trkpt>
      <trkpt lat="45.29737" lon="5.43451">
        <ele>703</ele>
        <time>2013-12-14T11:57:22Z</time>
      </trkpt>
      <trkpt lat="45.29739" lon="5.43451">
        <ele>702</ele>
        <time>2013-12-14T11:57:24Z</time>
      </trkpt>
      <trkpt lat="45.29744" lon="5.43456">
        <ele>701</ele>
        <time>2013-12-14T11:57:37Z</time>
      </trkpt>
      <trkpt lat="45.29749" lon="5.43463">
        <ele>701</ele>
        <time>2013-12-14T11:57:50Z</time>
      </trkpt>
      <trkpt lat="45.29753" lon="5.43469">
        <ele>702</ele>
        <time>2013-12-14T11:58:03Z</time>
      </trkpt>
      <trkpt lat="45.2976" lon="5.43471">
        <ele>703</ele>
        <time>2013-12-14T11:58:17Z</time>
      </trkpt>
      <trkpt lat="45.29767" lon="5.43469">
        <ele>702</ele>
        <time>2013-12-14T11:58:29Z</time>
      </trkpt>
      <trkpt lat="45.29773" lon="5.4347">
        <ele>702</ele>
        <time>2013-12-14T11:58:39Z</time>
      </trkpt>
      <trkpt lat="45.29782" lon="5.43469">
        <ele>700</ele>
        <time>2013-12-14T11:58:54Z</time>
      </trkpt>
      <trkpt lat="45.29785" lon="5.43462">
        <ele>699</ele>
        <time>2013-12-14T11:59:07Z</time>
      </trkpt>
      <trkpt lat="45.29792" lon="5.43464">
        <ele>698</ele>
        <time>2013-12-14T11:59:21Z</time>
      </trkpt>
      <trkpt lat="45.29801" lon="5.43466">
        <ele>697</ele>
        <time>2013-12-14T11:59:35Z</time>
      </trkpt>
      <trkpt lat="45.298" lon="5.43462">
        <ele>697</ele>
        <time>2013-12-14T11:59:52Z</time>
      </trkpt>
      <trkpt lat="45.29796" lon="5.43459">
        <ele>697</ele>
        <time>2013-12-14T12:00:04Z</time>
      </trkpt>
      <trkpt lat="45.29796" lon="5.43453">
        <ele>696</ele>
        <time>2013-12-14T12:00:16Z</time>
      </trkpt>
      <trkpt lat="45.29797" lon="5.43449">
        <ele>697</ele>
        <time>2013-12-14T12:00:28Z</time>
      </trkpt>
      <trkpt lat="45.29796" lon="5.43448">
        <ele>698</ele>
        <time>2013-12-14T12:00:39Z</time>
      </trkpt>
      <trkpt lat="45.29799" lon="5.43451">
        <ele>699</ele>
        <time>2013-12-14T12:00:55Z</time>
      </trkpt>
      <trkpt lat="45.29804" lon="5.43454">
        <ele>700</ele>
        <time>2013-12-14T12:01:06Z</time>
      </trkpt>
      <trkpt lat="45.29811" lon="5.43459">
        <ele>701</ele>
        <time>2013-12-14T12:01:17Z</time>
      </trkpt>
      <trkpt lat="45.29819" lon="5.43468">
        <ele>703</ele>
        <time>2013-12-14T12:01:30Z</time>
      </trkpt>
      <trkpt lat="45.29828" lon="5.43473">
        <ele>703</ele>
        <time>2013-12-14T12:01:41Z</time>
      </trkpt>
      <trkpt lat="45.29835" lon="5.43483">
        <ele>706</ele>
        <time>2013-12-14T12:01:53Z</time>
      </trkpt>
      <trkpt lat="45.29838" lon="5.4349">
        <ele>706</ele>
        <time>2013-12-14T12:02:04Z</time>
      </trkpt>
      <trkpt lat="45.29845" lon="5.43503">
        <ele>706</ele>
        <time>2013-12-14T12:02:17Z</time>
      </trkpt>
      <trkpt lat="45.29848" lon="5.43513">
        <ele>708</ele>
        <time>2013-12-14T12:02:27Z</time>
      </trkpt>
      <trkpt lat="45.29854" lon="5.43521">
        <ele>708</ele>
        <time>2013-12-14T12:02:37Z</time>
      </trkpt>
      <trkpt lat="45.29856" lon="5.43524">
        <ele>709</ele>
        <time>2013-12-14T12:02:40Z</time>
      </trkpt>
      <trkpt lat="45.29859" lon="5.43528">
        <ele>709</ele>
        <time>2013-12-14T12:02:44Z</time>
      </trkpt>
      <trkpt lat="45.29867" lon="5.43538">
        <ele>710</ele>
        <time>2013-12-14T12:02:56Z</time>
      </trkpt>
      <trkpt lat="45.29874" lon="5.43551">
        <ele>711</ele>
        <time>2013-12-14T12:03:09Z</time>
      </trkpt>
      <trkpt lat="45.29877" lon="5.43557">
        <ele>712</ele>
        <time>2013-12-14T12:03:14Z</time>
      </trkpt>
      <trkpt lat="45.29885" lon="5.4358">
        <ele>713</ele>
        <time>2013-12-14T12:03:28Z</time>
      </trkpt>
      <trkpt lat="45.29885" lon="5.43584">
        <ele>713</ele>
        <time>2013-12-14T12:03:31Z</time>
      </trkpt>
      <trkpt lat="45.29885" lon="5.43587">
        <ele>713</ele>
        <time>2013-12-14T12:03:33Z</time>
      </trkpt>
      <trkpt lat="45.29893" lon="5.4361">
        <ele>714</ele>
        <time>2013-12-14T12:03:47Z</time>
      </trkpt>
      <trkpt lat="45.29896" lon="5.43618">
        <ele>714</ele>
        <time>2013-12-14T12:03:56Z</time>
      </trkpt>
      <trkpt lat="45.29901" lon="5.43633">
        <ele>715</ele>
        <time>2013-12-14T12:04:08Z</time>
      </trkpt>
      <trkpt lat="45.29905" lon="5.4365">
        <ele>716</ele>
        <time>2013-12-14T12:04:20Z</time>
      </trkpt>
      <trkpt lat="45.29908" lon="5.43661">
        <ele>717</ele>
        <time>2013-12-14T12:04:29Z</time>
      </trkpt>
      <trkpt lat="45.29907" lon="5.43664">
        <ele>717</ele>
        <time>2013-12-14T12:04:31Z</time>
      </trkpt>
      <trkpt lat="45.29907" lon="5.43684">
        <ele>718</ele>
        <time>2013-12-14T12:04:44Z</time>
      </trkpt>
      <trkpt lat="45.29908" lon="5.43697">
        <ele>718</ele>
        <time>2013-12-14T12:04:56Z</time>
      </trkpt>
      <trkpt lat="45.29911" lon="5.43714">
        <ele>720</ele>
        <time>2013-12-14T12:05:11Z</time>
      </trkpt>
      <trkpt lat="45.29915" lon="5.43726">
        <ele>721</ele>
        <time>2013-12-14T12:05:25Z</time>
      </trkpt>
      <trkpt lat="45.29917" lon="5.43727">
        <ele>722</ele>
        <time>2013-12-14T12:05:30Z</time>
      </trkpt>
      <trkpt lat="45.29919" lon="5.43729">
        <ele>723</ele>
        <time>2013-12-14T12:05:33Z</time>
      </trkpt>
      <trkpt lat="45.29919" lon="5.4374">
        <ele>723</ele>
        <time>2013-12-14T12:05:46Z</time>
      </trkpt>
      <trkpt lat="45.2992" lon="5.43752">
        <ele>723</ele>
        <time>2013-12-14T12:05:55Z</time>
      </trkpt>
      <trkpt lat="45.29923" lon="5.43762">
        <ele>724</ele>
        <time>2013-12-14T12:06:04Z</time>
      </trkpt>
      <trkpt lat="45.29925" lon="5.43773">
        <ele>725</ele>
        <time>2013-12-14T12:06:14Z</time>
      </trkpt>
      <trkpt lat="45.29928" lon="5.43783">
        <ele>725</ele>
        <time>2013-12-14T12:06:23Z</time>
      </trkpt>
      <trkpt lat="45.29929" lon="5.43787">
        <ele>726</ele>
        <time>2013-12-14T12:06:28Z</time>
      </trkpt>
      <trkpt lat="45.29933" lon="5.43792">
        <ele>727</ele>
        <time>2013-12-14T12:06:42Z</time>
      </trkpt>
      <trkpt lat="45.29936" lon="5.43798">
        <ele>728</ele>
        <time>2013-12-14T12:06:57Z</time>
      </trkpt>
      <trkpt lat="45.29933" lon="5.43796">
        <ele>728</ele>
        <time>2013-12-14T12:07:24Z</time>
      </trkpt>
      <trkpt lat="45.29928" lon="5.43794">
        <ele>728</ele>
        <time>2013-12-14T12:07:58Z</time>
      </trkpt>
      <trkpt lat="45.29927" lon="5.43796">
        <ele>727</ele>
        <time>2013-12-14T12:08:31Z</time>
      </trkpt>
      <trkpt lat="45.29933" lon="5.43793">
        <ele>728</ele>
        <time>2013-12-14T12:08:49Z</time>
      </trkpt>
      <trkpt lat="45.29937" lon="5.43792">
        <ele>729</ele>
        <time>2013-12-14T12:09:21Z</time>
      </trkpt>
      <trkpt lat="45.29934" lon="5.43789">
        <ele>729</ele>
        <time>2013-12-14T12:09:35Z</time>
      </trkpt>
      <trkpt lat="45.29937" lon="5.43776">
        <ele>730</ele>
        <time>2013-12-14T12:09:48Z</time>
      </trkpt>
      <trkpt lat="45.29937" lon="5.43775">
        <ele>730</ele>
        <time>2013-12-14T12:09:49Z</time>
      </trkpt>
      <trkpt lat="45.29941" lon="5.43763">
        <ele>732</ele>
        <time>2013-12-14T12:10:01Z</time>
      </trkpt>
      <trkpt lat="45.29946" lon="5.43745">
        <ele>733</ele>
        <time>2013-12-14T12:10:16Z</time>
      </trkpt>
      <trkpt lat="45.2995" lon="5.43726">
        <ele>735</ele>
        <time>2013-12-14T12:10:30Z</time>
      </trkpt>
      <trkpt lat="45.29957" lon="5.4371">
        <ele>735</ele>
        <time>2013-12-14T12:10:43Z</time>
      </trkpt>
      <trkpt lat="45.2996" lon="5.43703">
        <ele>735</ele>
        <time>2013-12-14T12:10:49Z</time>
      </trkpt>
      <trkpt lat="45.29965" lon="5.43686">
        <ele>737</ele>
        <time>2013-12-14T12:11:04Z</time>
      </trkpt>
      <trkpt lat="45.29968" lon="5.43677">
        <ele>738</ele>
        <time>2013-12-14T12:11:12Z</time>
      </trkpt>
      <trkpt lat="45.2997" lon="5.43669">
        <ele>739</ele>
        <time>2013-12-14T12:11:19Z</time>
      </trkpt>
      <trkpt lat="45.29973" lon="5.43659">
        <ele>740</ele>
        <time>2013-12-14T12:11:27Z</time>
      </trkpt>
      <trkpt lat="45.29978" lon="5.43644">
        <ele>743</ele>
        <time>2013-12-14T12:11:40Z</time>
      </trkpt>
      <trkpt lat="45.29983" lon="5.43625">
        <ele>743</ele>
        <time>2013-12-14T12:11:56Z</time>
      </trkpt>
      <trkpt lat="45.29986" lon="5.43609">
        <ele>746</ele>
        <time>2013-12-14T12:12:10Z</time>
      </trkpt>
      <trkpt lat="45.29988" lon="5.43596">
        <ele>748</ele>
        <time>2013-12-14T12:12:24Z</time>
      </trkpt>
      <trkpt lat="45.29991" lon="5.43587">
        <ele>750</ele>
        <time>2013-12-14T12:12:36Z</time>
      </trkpt>
      <trkpt lat="45.29995" lon="5.43579">
        <ele>752</ele>
        <time>2013-12-14T12:12:48Z</time>
      </trkpt>
      <trkpt lat="45.30001" lon="5.43571">
        <ele>754</ele>
        <time>2013-12-14T12:13:02Z</time>
      </trkpt>
      <trkpt lat="45.30004" lon="5.43561">
        <ele>755</ele>
        <time>2013-12-14T12:13:13Z</time>
      </trkpt>
      <trkpt lat="45.30014" lon="5.43563">
        <ele>758</ele>
        <time>2013-12-14T12:13:29Z</time>
      </trkpt>
      <trkpt lat="45.30018" lon="5.43563">
        <ele>758</ele>
        <time>2013-12-14T12:13:39Z</time>
      </trkpt>
      <trkpt lat="45.30019" lon="5.43565">
        <ele>758</ele>
        <time>2013-12-14T12:13:42Z</time>
      </trkpt>
      <trkpt lat="45.30021" lon="5.43583">
        <ele>757</ele>
        <time>2013-12-14T12:13:56Z</time>
      </trkpt>
      <trkpt lat="45.30022" lon="5.43609">
        <ele>757</ele>
        <time>2013-12-14T12:14:14Z</time>
      </trkpt>
      <trkpt lat="45.30022" lon="5.43611">
        <ele>761</ele>
        <time>2013-12-14T12:14:16Z</time>
      </trkpt>
      <trkpt lat="45.30022" lon="5.43613">
        <ele>757</ele>
        <time>2013-12-14T12:14:17Z</time>
      </trkpt>
      <trkpt lat="45.30024" lon="5.43643">
        <ele>756</ele>
        <time>2013-12-14T12:14:36Z</time>
      </trkpt>
      <trkpt lat="45.30025" lon="5.43672">
        <ele>756</ele>
        <time>2013-12-14T12:14:53Z</time>
      </trkpt>
      <trkpt lat="45.30026" lon="5.43676">
        <ele>756</ele>
        <time>2013-12-14T12:14:56Z</time>
      </trkpt>
      <trkpt lat="45.30024" lon="5.43682">
        <ele>756</ele>
        <time>2013-12-14T12:15:00Z</time>
      </trkpt>
      <trkpt lat="45.30024" lon="5.43708">
        <ele>756</ele>
        <time>2013-12-14T12:15:17Z</time>
      </trkpt>
      <trkpt lat="45.30028" lon="5.43724">
        <ele>755</ele>
        <time>2013-12-14T12:15:31Z</time>
      </trkpt>
      <trkpt lat="45.30028" lon="5.43727">
        <ele>756</ele>
        <time>2013-12-14T12:15:34Z</time>
      </trkpt>
      <trkpt lat="45.30027" lon="5.43746">
        <ele>756</ele>
        <time>2013-12-14T12:15:48Z</time>
      </trkpt>
      <trkpt lat="45.30029" lon="5.43767">
        <ele>755</ele>
        <time>2013-12-14T12:16:01Z</time>
      </trkpt>
      <trkpt lat="45.30035" lon="5.43787">
        <ele>756</ele>
        <time>2013-12-14T12:16:16Z</time>
      </trkpt>
      <trkpt lat="45.3004" lon="5.43807">
        <ele>757</ele>
        <time>2013-12-14T12:16:31Z</time>
      </trkpt>
      <trkpt lat="45.30042" lon="5.43816">
        <ele>757</ele>
        <time>2013-12-14T12:16:38Z</time>
      </trkpt>
      <trkpt lat="45.30046" lon="5.43824">
        <ele>757</ele>
        <time>2013-12-14T12:16:44Z</time>
      </trkpt>
      <trkpt lat="45.30053" lon="5.43839">
        <ele>758</ele>
        <time>2013-12-14T12:16:57Z</time>
      </trkpt>
      <trkpt lat="45.30061" lon="5.43852">
        <ele>759</ele>
        <time>2013-12-14T12:17:10Z</time>
      </trkpt>
      <trkpt lat="45.30069" lon="5.43865">
        <ele>760</ele>
        <time>2013-12-14T12:17:23Z</time>
      </trkpt>
      <trkpt lat="45.30077" lon="5.43884">
        <ele>761</ele>
        <time>2013-12-14T12:17:35Z</time>
      </trkpt>
      <trkpt lat="45.30086" lon="5.43897">
        <ele>761</ele>
        <time>2013-12-14T12:17:50Z</time>
      </trkpt>
      <trkpt lat="45.3009" lon="5.43902">
        <ele>762</ele>
        <time>2013-12-14T12:17:55Z</time>
      </trkpt>
      <trkpt lat="45.30101" lon="5.43914">
        <ele>761</ele>
        <time>2013-12-14T12:18:04Z</time>
      </trkpt>
      <trkpt lat="45.3011" lon="5.4393">
        <ele>762</ele>
        <time>2013-12-14T12:18:15Z</time>
      </trkpt>
      <trkpt lat="45.30116" lon="5.43941">
        <ele>763</ele>
        <time>2013-12-14T12:18:24Z</time>
      </trkpt>
      <trkpt lat="45.30124" lon="5.43957">
        <ele>764</ele>
        <time>2013-12-14T12:18:36Z</time>
      </trkpt>
      <trkpt lat="45.30127" lon="5.4396">
        <ele>763</ele>
        <time>2013-12-14T12:18:50Z</time>
      </trkpt>
      <trkpt lat="45.30131" lon="5.43963">
        <ele>764</ele>
        <time>2013-12-14T12:19:10Z</time>
      </trkpt>
      <trkpt lat="45.30131" lon="5.43963">
        <ele>764</ele>
        <time>2013-12-14T12:19:31Z</time>
      </trkpt>
      <trkpt lat="45.3013" lon="5.43967">
        <ele>764</ele>
        <time>2013-12-14T12:20:01Z</time>
      </trkpt>
      <trkpt lat="45.30129" lon="5.43966">
        <ele>764</ele>
        <time>2013-12-14T12:20:30Z</time>
      </trkpt>
      <trkpt lat="45.30129" lon="5.43974">
        <ele>765</ele>
        <time>2013-12-14T12:20:41Z</time>
      </trkpt>
      <trkpt lat="45.3013" lon="5.43985">
        <ele>765</ele>
        <time>2013-12-14T12:20:52Z</time>
      </trkpt>
      <trkpt lat="45.30134" lon="5.43999">
        <ele>766</ele>
        <time>2013-12-14T12:21:03Z</time>
      </trkpt>
      <trkpt lat="45.3014" lon="5.44016">
        <ele>767</ele>
        <time>2013-12-14T12:21:16Z</time>
      </trkpt>
      <trkpt lat="45.30143" lon="5.44031">
        <ele>766</ele>
        <time>2013-12-14T12:21:27Z</time>
      </trkpt>
      <trkpt lat="45.30145" lon="5.44047">
        <ele>767</ele>
        <time>2013-12-14T12:21:36Z</time>
      </trkpt>
      <trkpt lat="45.30152" lon="5.44071">
        <ele>767</ele>
        <time>2013-12-14T12:21:50Z</time>
      </trkpt>
      <trkpt lat="45.30152" lon="5.4409">
        <ele>767</ele>
        <time>2013-12-14T12:22:02Z</time>
      </trkpt>
      <trkpt lat="45.30153" lon="5.44104">
        <ele>768</ele>
        <time>2013-12-14T12:22:15Z</time>
      </trkpt>
      <trkpt lat="45.30156" lon="5.4412">
        <ele>767</ele>
        <time>2013-12-14T12:22:28Z</time>
      </trkpt>
      <trkpt lat="45.3016" lon="5.44133">
        <ele>767</ele>
        <time>2013-12-14T12:22:41Z</time>
      </trkpt>
      <trkpt lat="45.30165" lon="5.44156">
        <ele>766</ele>
        <time>2013-12-14T12:22:54Z</time>
      </trkpt>
      <trkpt lat="45.30168" lon="5.4417">
        <ele>766</ele>
        <time>2013-12-14T12:23:04Z</time>
      </trkpt>
      <trkpt lat="45.30171" lon="5.44186">
        <ele>765</ele>
        <time>2013-12-14T12:23:14Z</time>
      </trkpt>
      <trkpt lat="45.30175" lon="5.44211">
        <ele>764</ele>
        <time>2013-12-14T12:23:28Z</time>
      </trkpt>
      <trkpt lat="45.30174" lon="5.44232">
        <ele>764</ele>
        <time>2013-12-14T12:23:40Z</time>
      </trkpt>
      <trkpt lat="45.30177" lon="5.44253">
        <ele>763</ele>
        <time>2013-12-14T12:23:53Z</time>
      </trkpt>
      <trkpt lat="45.30179" lon="5.44259">
        <ele>763</ele>
        <time>2013-12-14T12:23:57Z</time>
      </trkpt>
      <trkpt lat="45.30184" lon="5.44279">
        <ele>763</ele>
        <time>2013-12-14T12:24:09Z</time>
      </trkpt>
      <trkpt lat="45.30186" lon="5.4429">
        <ele>761</ele>
        <time>2013-12-14T12:24:16Z</time>
      </trkpt>
      <trkpt lat="45.30192" lon="5.44314">
        <ele>761</ele>
        <time>2013-12-14T12:24:32Z</time>
      </trkpt>
      <trkpt lat="45.30195" lon="5.44326">
        <ele>760</ele>
        <time>2013-12-14T12:24:40Z</time>
      </trkpt>
      <trkpt lat="45.302" lon="5.44345">
        <ele>760</ele>
        <time>2013-12-14T12:24:49Z</time>
      </trkpt>
      <trkpt lat="45.30207" lon="5.44373">
        <ele>759</ele>
        <time>2013-12-14T12:25:04Z</time>
      </trkpt>
      <trkpt lat="45.30213" lon="5.44397">
        <ele>755</ele>
        <time>2013-12-14T12:25:19Z</time>
      </trkpt>
      <trkpt lat="45.30219" lon="5.44423">
        <ele>753</ele>
        <time>2013-12-14T12:25:35Z</time>
      </trkpt>
      <trkpt lat="45.30223" lon="5.44442">
        <ele>751</ele>
        <time>2013-12-14T12:25:47Z</time>
      </trkpt>
      <trkpt lat="45.30229" lon="5.44467">
        <ele>749</ele>
        <time>2013-12-14T12:26:02Z</time>
      </trkpt>
      <trkpt lat="45.30233" lon="5.44487">
        <ele>748</ele>
        <time>2013-12-14T12:26:15Z</time>
      </trkpt>
      <trkpt lat="45.30233" lon="5.44488">
        <ele>748</ele>
        <time>2013-12-14T12:26:16Z</time>
      </trkpt>
      <trkpt lat="45.30228" lon="5.44495">
        <ele>748</ele>
        <time>2013-12-14T12:26:29Z</time>
      </trkpt>
      <trkpt lat="45.30223" lon="5.44503">
        <ele>746</ele>
        <time>2013-12-14T12:26:45Z</time>
      </trkpt>
      <trkpt lat="45.30218" lon="5.44507">
        <ele>745</ele>
        <time>2013-12-14T12:26:58Z</time>
      </trkpt>
      <trkpt lat="45.30212" lon="5.44509">
        <ele>742</ele>
        <time>2013-12-14T12:27:08Z</time>
      </trkpt>
      <trkpt lat="45.30203" lon="5.44509">
        <ele>738</ele>
        <time>2013-12-14T12:27:21Z</time>
      </trkpt>
      <trkpt lat="45.30194" lon="5.44515">
        <ele>735</ele>
        <time>2013-12-14T12:27:33Z</time>
      </trkpt>
      <trkpt lat="45.30192" lon="5.44514">
        <ele>735</ele>
        <time>2013-12-14T12:27:48Z</time>
      </trkpt>
      <trkpt lat="45.30184" lon="5.44516">
        <ele>732</ele>
        <time>2013-12-14T12:28:06Z</time>
      </trkpt>
      <trkpt lat="45.30179" lon="5.44516">
        <ele>731</ele>
        <time>2013-12-14T12:28:12Z</time>
      </trkpt>
      <trkpt lat="45.30165" lon="5.44508">
        <ele>727</ele>
        <time>2013-12-14T12:28:24Z</time>
      </trkpt>
      <trkpt lat="45.30163" lon="5.44506">
        <ele>727</ele>
        <time>2013-12-14T12:28:25Z</time>
      </trkpt>
      <trkpt lat="45.30157" lon="5.44505">
        <ele>725</ele>
        <time>2013-12-14T12:28:30Z</time>
      </trkpt>
      <trkpt lat="45.30155" lon="5.44507">
        <ele>724</ele>
        <time>2013-12-14T12:28:32Z</time>
      </trkpt>
      <trkpt lat="45.30152" lon="5.44508">
        <ele>724</ele>
        <time>2013-12-14T12:28:34Z</time>
      </trkpt>
      <trkpt lat="45.30141" lon="5.44506">
        <ele>721</ele>
        <time>2013-12-14T12:28:46Z</time>
      </trkpt>
      <trkpt lat="45.30129" lon="5.44501">
        <ele>716</ele>
        <time>2013-12-14T12:29:00Z</time>
      </trkpt>
      <trkpt lat="45.30121" lon="5.4449">
        <ele>715</ele>
        <time>2013-12-14T12:29:13Z</time>
      </trkpt>
      <trkpt lat="45.30114" lon="5.44477">
        <ele>713</ele>
        <time>2013-12-14T12:29:24Z</time>
      </trkpt>
      <trkpt lat="45.30108" lon="5.44469">
        <ele>711</ele>
        <time>2013-12-14T12:29:35Z</time>
      </trkpt>
      <trkpt lat="45.30101" lon="5.44457">
        <ele>710</ele>
        <time>2013-12-14T12:29:46Z</time>
      </trkpt>
      <trkpt lat="45.30096" lon="5.44449">
        <ele>708</ele>
        <time>2013-12-14T12:29:58Z</time>
      </trkpt>
      <trkpt lat="45.30087" lon="5.44441">
        <ele>704</ele>
        <time>2013-12-14T12:30:09Z</time>
      </trkpt>
      <trkpt lat="45.30084" lon="5.4443">
        <ele>702</ele>
        <time>2013-12-14T12:30:22Z</time>
      </trkpt>
      <trkpt lat="45.30079" lon="5.44421">
        <ele>699</ele>
        <time>2013-12-14T12:30:34Z</time>
      </trkpt>
      <trkpt lat="45.30073" lon="5.44415">
        <ele>696</ele>
        <time>2013-12-14T12:30:45Z</time>
      </trkpt>
      <trkpt lat="45.30067" lon="5.44409">
        <ele>693</ele>
        <time>2013-12-14T12:30:57Z</time>
      </trkpt>
      <trkpt lat="45.30058" lon="5.44396">
        <ele>690</ele>
        <time>2013-12-14T12:31:08Z</time>
      </trkpt>
      <trkpt lat="45.30048" lon="5.44386">
        <ele>689</ele>
        <time>2013-12-14T12:31:22Z</time>
      </trkpt>
      <trkpt lat="45.30043" lon="5.44382">
        <ele>688</ele>
        <time>2013-12-14T12:31:30Z</time>
      </trkpt>
      <trkpt lat="45.30042" lon="5.44394">
        <ele>685</ele>
        <time>2013-12-14T12:31:42Z</time>
      </trkpt>
      <trkpt lat="45.30043" lon="5.44402">
        <ele>684</ele>
        <time>2013-12-14T12:31:48Z</time>
      </trkpt>
      <trkpt lat="45.30044" lon="5.44415">
        <ele>681</ele>
        <time>2013-12-14T12:32:00Z</time>
      </trkpt>
      <trkpt lat="45.30045" lon="5.44423">
        <ele>680</ele>
        <time>2013-12-14T12:32:07Z</time>
      </trkpt>
      <trkpt lat="45.30044" lon="5.44439">
        <ele>677</ele>
        <time>2013-12-14T12:32:18Z</time>
      </trkpt>
      <trkpt lat="45.30043" lon="5.44461">
        <ele>675</ele>
        <time>2013-12-14T12:32:31Z</time>
      </trkpt>
      <trkpt lat="45.30042" lon="5.44473">
        <ele>672</ele>
        <time>2013-12-14T12:32:43Z</time>
      </trkpt>
      <trkpt lat="45.3004" lon="5.44486">
        <ele>669</ele>
        <time>2013-12-14T12:32:56Z</time>
      </trkpt>
      <trkpt lat="45.30038" lon="5.44496">
        <ele>666</ele>
        <time>2013-12-14T12:33:09Z</time>
      </trkpt>
      <trkpt lat="45.30037" lon="5.44508">
        <ele>664</ele>
        <time>2013-12-14T12:33:21Z</time>
      </trkpt>
      <trkpt lat="45.30036" lon="5.44518">
        <ele>661</ele>
        <time>2013-12-14T12:33:34Z</time>
      </trkpt>
      <trkpt lat="45.30032" lon="5.44529">
        <ele>657</ele>
        <time>2013-12-14T12:33:46Z</time>
      </trkpt>
      <trkpt lat="45.30031" lon="5.44534">
        <ele>657</ele>
        <time>2013-12-14T12:33:49Z</time>
      </trkpt>
      <trkpt lat="45.30026" lon="5.44543">
        <ele>654</ele>
        <time>2013-12-14T12:33:57Z</time>
      </trkpt>
      <trkpt lat="45.3002" lon="5.44561">
        <ele>651</ele>
        <time>2013-12-14T12:34:12Z</time>
      </trkpt>
      <trkpt lat="45.30017" lon="5.44572">
        <ele>649</ele>
        <time>2013-12-14T12:34:18Z</time>
      </trkpt>
      <trkpt lat="45.30014" lon="5.44591">
        <ele>647</ele>
        <time>2013-12-14T12:34:32Z</time>
      </trkpt>
      <trkpt lat="45.30014" lon="5.44593">
        <ele>646</ele>
        <time>2013-12-14T12:34:33Z</time>
      </trkpt>
      <trkpt lat="45.30011" lon="5.44599">
        <ele>646</ele>
        <time>2013-12-14T12:34:37Z</time>
      </trkpt>
      <trkpt lat="45.30007" lon="5.44609">
        <ele>644</ele>
        <time>2013-12-14T12:34:44Z</time>
      </trkpt>
      <trkpt lat="45.30005" lon="5.44619">
        <ele>642</ele>
        <time>2013-12-14T12:34:50Z</time>
      </trkpt>
      <trkpt lat="45.30003" lon="5.44626">
        <ele>642</ele>
        <time>2013-12-14T12:34:54Z</time>
      </trkpt>
      <trkpt lat="45.30002" lon="5.44642">
        <ele>639</ele>
        <time>2013-12-14T12:35:05Z</time>
      </trkpt>
      <trkpt lat="45.30001" lon="5.44662">
        <ele>637</ele>
        <time>2013-12-14T12:35:20Z</time>
      </trkpt>
      <trkpt lat="45.30001" lon="5.44678">
        <ele>636</ele>
        <time>2013-12-14T12:35:32Z</time>
      </trkpt>
      <trkpt lat="45.30001" lon="5.44684">
        <ele>632</ele>
        <time>2013-12-14T12:35:39Z</time>
      </trkpt>
      <trkpt lat="45.3" lon="5.44698">
        <ele>630</ele>
        <time>2013-12-14T12:35:54Z</time>
      </trkpt>
      <trkpt lat="45.29999" lon="5.44711">
        <ele>628</ele>
        <time>2013-12-14T12:36:08Z</time>
      </trkpt>
      <trkpt lat="45.30001" lon="5.44725">
        <ele>624</ele>
        <time>2013-12-14T12:36:19Z</time>
      </trkpt>
      <trkpt lat="45.30002" lon="5.44738">
        <ele>623</ele>
        <time>2013-12-14T12:36:31Z</time>
      </trkpt>
      <trkpt lat="45.30003" lon="5.44748">
        <ele>620</ele>
        <time>2013-12-14T12:36:45Z</time>
      </trkpt>
      <trkpt lat="45.30002" lon="5.44759">
        <ele>617</ele>
        <time>2013-12-14T12:37:00Z</time>
      </trkpt>
      <trkpt lat="45.30002" lon="5.44768">
        <ele>614</ele>
        <time>2013-12-14T12:37:12Z</time>
      </trkpt>
      <trkpt lat="45.30001" lon="5.44778">
        <ele>612</ele>
        <time>2013-12-14T12:37:24Z</time>
      </trkpt>
      <trkpt lat="45.30002" lon="5.44786">
        <ele>610</ele>
        <time>2013-12-14T12:37:37Z</time>
      </trkpt>
      <trkpt lat="45.29998" lon="5.4479">
        <ele>610</ele>
        <time>2013-12-14T12:37:52Z</time>
      </trkpt>
      <trkpt lat="45.29998" lon="5.4479">
        <ele>610</ele>
        <time>2013-12-14T12:38:09Z</time>
      </trkpt>
      <trkpt lat="45.30001" lon="5.44791">
        <ele>609</ele>
        <time>2013-12-14T12:38:38Z</time>
      </trkpt>
      <trkpt lat="45.30002" lon="5.44796">
        <ele>607</ele>
        <time>2013-12-14T12:38:51Z</time>
      </trkpt>
      <trkpt lat="45.30002" lon="5.44798">
        <ele>606</ele>
        <time>2013-12-14T12:38:54Z</time>
      </trkpt>
      <trkpt lat="45.30001" lon="5.44803">
        <ele>604</ele>
        <time>2013-12-14T12:39:07Z</time>
      </trkpt>
      <trkpt lat="45.30001" lon="5.4481">
        <ele>603</ele>
        <time>2013-12-14T12:39:20Z</time>
      </trkpt>
      <trkpt lat="45.29998" lon="5.44822">
        <ele>600</ele>
        <time>2013-12-14T12:39:33Z</time>
      </trkpt>
      <trkpt lat="45.29998" lon="5.4483">
        <ele>597</ele>
        <time>2013-12-14T12:39:46Z</time>
      </trkpt>
      <trkpt lat="45.29999" lon="5.44839">
        <ele>596</ele>
        <time>2013-12-14T12:40:00Z</time>
      </trkpt>
      <trkpt lat="45.29999" lon="5.44841">
        <ele>595</ele>
        <time>2013-12-14T12:40:11Z</time>
      </trkpt>
      <trkpt lat="45.29997" lon="5.44851">
        <ele>592</ele>
        <time>2013-12-14T12:40:24Z</time>
      </trkpt>
      <trkpt lat="45.29997" lon="5.4486">
        <ele>589</ele>
        <time>2013-12-14T12:40:38Z</time>
      </trkpt>
      <trkpt lat="45.29992" lon="5.4487">
        <ele>587</ele>
        <time>2013-12-14T12:40:51Z</time>
      </trkpt>
      <trkpt lat="45.29991" lon="5.44872">
        <ele>587</ele>
        <time>2013-12-14T12:40:52Z</time>
      </trkpt>
      <trkpt lat="45.29984" lon="5.44882">
        <ele>585</ele>
        <time>2013-12-14T12:41:04Z</time>
      </trkpt>
      <trkpt lat="45.29983" lon="5.44885">
        <ele>584</ele>
        <time>2013-12-14T12:41:06Z</time>
      </trkpt>
      <trkpt lat="45.29983" lon="5.44891">
        <ele>583</ele>
        <time>2013-12-14T12:41:10Z</time>
      </trkpt>
      <trkpt lat="45.29982" lon="5.44898">
        <ele>582</ele>
        <time>2013-12-14T12:41:14Z</time>
      </trkpt>
      <trkpt lat="45.29982" lon="5.44922">
        <ele>578</ele>
        <time>2013-12-14T12:41:29Z</time>
      </trkpt>
      <trkpt lat="45.29981" lon="5.44941">
        <ele>576</ele>
        <time>2013-12-14T12:41:42Z</time>
      </trkpt>
      <trkpt lat="45.29981" lon="5.44955">
        <ele>574</ele>
        <time>2013-12-14T12:41:54Z</time>
      </trkpt>
      <trkpt lat="45.29981" lon="5.44963">
        <ele>574</ele>
        <time>2013-12-14T12:41:59Z</time>
      </trkpt>
      <trkpt lat="45.29981" lon="5.44966">
        <ele>573</ele>
        <time>2013-12-14T12:42:01Z</time>
      </trkpt>
      <trkpt lat="45.29981" lon="5.44985">
        <ele>571</ele>
        <time>2013-12-14T12:42:16Z</time>
      </trkpt>
      <trkpt lat="45.2998" lon="5.45">
        <ele>569</ele>
        <time>2013-12-14T12:42:28Z</time>
      </trkpt>
      <trkpt lat="45.29983" lon="5.4502">
        <ele>566</ele>
        <time>2013-12-14T12:42:41Z</time>
      </trkpt>
      <trkpt lat="45.29982" lon="5.45026">
        <ele>565</ele>
        <time>2013-12-14T12:42:45Z</time>
      </trkpt>
      <trkpt lat="45.2998" lon="5.45058">
        <ele>562</ele>
        <time>2013-12-14T12:43:02Z</time>
      </trkpt>
      <trkpt lat="45.2998" lon="5.45082">
        <ele>561</ele>
        <time>2013-12-14T12:43:16Z</time>
      </trkpt>
      <trkpt lat="45.29977" lon="5.45104">
        <ele>559</ele>
        <time>2013-12-14T12:43:32Z</time>
      </trkpt>
      <trkpt lat="45.29975" lon="5.45137">
        <ele>556</ele>
        <time>2013-12-14T12:43:51Z</time>
      </trkpt>
      <trkpt lat="45.29975" lon="5.45147">
        <ele>556</ele>
        <time>2013-12-14T12:43:57Z</time>
      </trkpt>
      <trkpt lat="45.29975" lon="5.45168">
        <ele>553</ele>
        <time>2013-12-14T12:44:10Z</time>
      </trkpt>
      <trkpt lat="45.29976" lon="5.45172">
        <ele>553</ele>
        <time>2013-12-14T12:44:12Z</time>
      </trkpt>
      <trkpt lat="45.29975" lon="5.45198">
        <ele>550</ele>
        <time>2013-12-14T12:44:27Z</time>
      </trkpt>
      <trkpt lat="45.29973" lon="5.45227">
        <ele>548</ele>
        <time>2013-12-14T12:44:43Z</time>
      </trkpt>
      <trkpt lat="45.29972" lon="5.45253">
        <ele>545</ele>
        <time>2013-12-14T12:44:59Z</time>
      </trkpt>
      <trkpt lat="45.29971" lon="5.45279">
        <ele>543</ele>
        <time>2013-12-14T12:45:14Z</time>
      </trkpt>
      <trkpt lat="45.29971" lon="5.453">
        <ele>541</ele>
        <time>2013-12-14T12:45:27Z</time>
      </trkpt>
      <trkpt lat="45.29971" lon="5.45321">
        <ele>539</ele>
        <time>2013-12-14T12:45:39Z</time>
      </trkpt>
      <trkpt lat="45.29971" lon="5.45322">
        <ele>539</ele>
        <time>2013-12-14T12:45:53Z</time>
      </trkpt>
      <trkpt lat="45.29971" lon="5.45329">
        <ele>539</ele>
        <time>2013-12-14T12:46:06Z</time>
      </trkpt>
      <trkpt lat="45.29973" lon="5.45348">
        <ele>538</ele>
        <time>2013-12-14T12:46:19Z</time>
      </trkpt>
      <trkpt lat="45.29976" lon="5.45365">
        <ele>536</ele>
        <time>2013-12-14T12:46:32Z</time>
      </trkpt>
      <trkpt lat="45.29976" lon="5.45366">
        <ele>536</ele>
        <time>2013-12-14T12:46:44Z</time>
      </trkpt>
      <trkpt lat="45.29979" lon="5.45369">
        <ele>536</ele>
        <time>2013-12-14T12:46:56Z</time>
      </trkpt>
      <trkpt lat="45.2999" lon="5.45364">
        <ele>536</ele>
        <time>2013-12-14T12:47:10Z</time>
      </trkpt>
      <trkpt lat="45.30002" lon="5.45364">
        <ele>536</ele>
        <time>2013-12-14T12:47:23Z</time>
      </trkpt>
      <trkpt lat="45.30015" lon="5.45375">
        <ele>536</ele>
        <time>2013-12-14T12:47:37Z</time>
      </trkpt>
      <trkpt lat="45.30027" lon="5.45391">
        <ele>537</ele>
        <time>2013-12-14T12:47:51Z</time>
      </trkpt>
      <trkpt lat="45.30035" lon="5.4541">
        <ele>537</ele>
        <time>2013-12-14T12:48:05Z</time>
      </trkpt>
      <trkpt lat="45.30039" lon="5.45418">
        <ele>537</ele>
        <time>2013-12-14T12:48:11Z</time>
      </trkpt>
      <trkpt lat="45.30041" lon="5.45425">
        <ele>538</ele>
        <time>2013-12-14T12:48:16Z</time>
      </trkpt>
      <trkpt lat="45.30046" lon="5.45443">
        <ele>540</ele>
        <time>2013-12-14T12:48:30Z</time>
      </trkpt>
      <trkpt lat="45.30047" lon="5.45445">
        <ele>539</ele>
        <time>2013-12-14T12:48:32Z</time>
      </trkpt>
      <trkpt lat="45.30047" lon="5.4547">
        <ele>540</ele>
        <time>2013-12-14T12:48:46Z</time>
      </trkpt>
      <trkpt lat="45.30046" lon="5.45485">
        <ele>542</ele>
        <time>2013-12-14T12:48:55Z</time>
      </trkpt>
      <trkpt lat="45.30043" lon="5.45506">
        <ele>542</ele>
        <time>2013-12-14T12:49:07Z</time>
      </trkpt>
      <trkpt lat="45.30034" lon="5.45528">
        <ele>543</ele>
        <time>2013-12-14T12:49:22Z</time>
      </trkpt>
      <trkpt lat="45.30025" lon="5.45546">
        <ele>544</ele>
        <time>2013-12-14T12:49:36Z</time>
      </trkpt>
      <trkpt lat="45.30015" lon="5.45563">
        <ele>545</ele>
        <time>2013-12-14T12:49:50Z</time>
      </trkpt>
      <trkpt lat="45.30003" lon="5.45579">
        <ele>545</ele>
        <time>2013-12-14T12:50:04Z</time>
      </trkpt>
      <trkpt lat="45.3" lon="5.45585">
        <ele>546</ele>
        <time>2013-12-14T12:50:09Z</time>
      </trkpt>
      <trkpt lat="45.29994" lon="5.45601">
        <ele>547</ele>
        <time>2013-12-14T12:50:19Z</time>
      </trkpt>
      <trkpt lat="45.29991" lon="5.45626">
        <ele>548</ele>
        <time>2013-12-14T12:50:35Z</time>
      </trkpt>
      <trkpt lat="45.29997" lon="5.45649">
        <ele>549</ele>
        <time>2013-12-14T12:50:51Z</time>
      </trkpt>
      <trkpt lat="45.30005" lon="5.45665">
        <ele>550</ele>
        <time>2013-12-14T12:51:06Z</time>
      </trkpt>
      <trkpt lat="45.3001" lon="5.45671">
        <ele>549</ele>
        <time>2013-12-14T12:51:20Z</time>
      </trkpt>
      <trkpt lat="45.30009" lon="5.45669">
        <ele>549</ele>
        <time>2013-12-14T12:51:50Z</time>
      </trkpt>
      <trkpt lat="45.30005" lon="5.45668">
        <ele>549</ele>
        <time>2013-12-14T12:52:20Z</time>
      </trkpt>
      <trkpt lat="45.30001" lon="5.45661">
        <ele>550</ele>
        <time>2013-12-14T12:52:53Z</time>
      </trkpt>
      <trkpt lat="45.3" lon="5.45658">
        <ele>550</ele>
        <time>2013-12-14T12:53:32Z</time>
      </trkpt>
      <trkpt lat="45.30004" lon="5.45659">
        <ele>549</ele>
        <time>2013-12-14T12:54:08Z</time>
      </trkpt>
      <trkpt lat="45.30005" lon="5.45666">
        <ele>550</ele>
        <time>2013-12-14T12:54:43Z</time>
      </trkpt>
      <trkpt lat="45.30004" lon="5.45664">
        <ele>550</ele>
        <time>2013-12-14T12:55:16Z</time>
      </trkpt>
      <trkpt lat="45.30005" lon="5.45671">
        <ele>550</ele>
        <time>2013-12-14T12:55:36Z</time>
      </trkpt>
      <trkpt lat="45.30016" lon="5.45689">
        <ele>551</ele>
        <time>2013-12-14T12:55:50Z</time>
      </trkpt>
      <trkpt lat="45.30027" lon="5.45704">
        <ele>551</ele>
        <time>2013-12-14T12:56:05Z</time>
      </trkpt>
      <trkpt lat="45.30027" lon="5.45705">
        <ele>551</ele>
        <time>2013-12-14T12:56:06Z</time>
      </trkpt>
      <trkpt lat="45.30042" lon="5.45715">
        <ele>553</ele>
        <time>2013-12-14T12:56:21Z</time>
      </trkpt>
      <trkpt lat="45.30052" lon="5.45721">
        <ele>553</ele>
        <time>2013-12-14T12:56:32Z</time>
      </trkpt>
      <trkpt lat="45.30072" lon="5.45732">
        <ele>555</ele>
        <time>2013-12-14T12:56:49Z</time>
      </trkpt>
      <trkpt lat="45.30089" lon="5.4574">
        <ele>555</ele>
        <time>2013-12-14T12:57:04Z</time>
      </trkpt>
      <trkpt lat="45.30106" lon="5.45745">
        <ele>556</ele>
        <time>2013-12-14T12:57:18Z</time>
      </trkpt>
      <trkpt lat="45.30119" lon="5.45754">
        <ele>556</ele>
        <time>2013-12-14T12:57:31Z</time>
      </trkpt>
      <trkpt lat="45.30129" lon="5.4577">
        <ele>556</ele>
        <time>2013-12-14T12:57:44Z</time>
      </trkpt>
      <trkpt lat="45.30132" lon="5.45773">
        <ele>557</ele>
        <time>2013-12-14T12:57:47Z</time>
      </trkpt>
      <trkpt lat="45.30134" lon="5.45779">
        <ele>557</ele>
        <time>2013-12-14T12:57:50Z</time>
      </trkpt>
      <trkpt lat="45.30147" lon="5.45798">
        <ele>557</ele>
        <time>2013-12-14T12:58:04Z</time>
      </trkpt>
      <trkpt lat="45.30156" lon="5.45818">
        <ele>556</ele>
        <time>2013-12-14T12:58:18Z</time>
      </trkpt>
      <trkpt lat="45.30168" lon="5.45839">
        <ele>559</ele>
        <time>2013-12-14T12:58:32Z</time>
      </trkpt>
      <trkpt lat="45.3017" lon="5.45842">
        <ele>556</ele>
        <time>2013-12-14T12:58:34Z</time>
      </trkpt>
      <trkpt lat="45.30175" lon="5.4585">
        <ele>556</ele>
        <time>2013-12-14T12:58:40Z</time>
      </trkpt>
      <trkpt lat="45.30186" lon="5.45872">
        <ele>558</ele>
        <time>2013-12-14T12:58:56Z</time>
      </trkpt>
      <trkpt lat="45.30196" lon="5.45886">
        <ele>560</ele>
        <time>2013-12-14T12:59:08Z</time>
      </trkpt>
      <trkpt lat="45.30208" lon="5.45897">
        <ele>561</ele>
        <time>2013-12-14T12:59:20Z</time>
      </trkpt>
      <trkpt lat="45.30213" lon="5.45901">
        <ele>561</ele>
        <time>2013-12-14T12:59:26Z</time>
      </trkpt>
      <trkpt lat="45.30218" lon="5.45909">
        <ele>562</ele>
        <time>2013-12-14T12:59:32Z</time>
      </trkpt>
      <trkpt lat="45.3022" lon="5.45913">
        <ele>562</ele>
        <time>2013-12-14T12:59:36Z</time>
      </trkpt>
      <trkpt lat="45.30223" lon="5.45918">
        <ele>563</ele>
        <time>2013-12-14T12:59:40Z</time>
      </trkpt>
      <trkpt lat="45.30227" lon="5.4593">
        <ele>564</ele>
        <time>2013-12-14T12:59:49Z</time>
      </trkpt>
      <trkpt lat="45.30228" lon="5.45936">
        <ele>565</ele>
        <time>2013-12-14T12:59:53Z</time>
      </trkpt>
      <trkpt lat="45.30231" lon="5.45946">
        <ele>566</ele>
        <time>2013-12-14T13:00:00Z</time>
      </trkpt>
      <trkpt lat="45.30243" lon="5.45956">
        <ele>568</ele>
        <time>2013-12-14T13:00:13Z</time>
      </trkpt>
      <trkpt lat="45.30257" lon="5.4596">
        <ele>569</ele>
        <time>2013-12-14T13:00:26Z</time>
      </trkpt>
      <trkpt lat="45.30267" lon="5.45962">
        <ele>572</ele>
        <time>2013-12-14T13:00:37Z</time>
      </trkpt>
      <trkpt lat="45.30274" lon="5.45963">
        <ele>573</ele>
        <time>2013-12-14T13:00:45Z</time>
      </trkpt>
      <trkpt lat="45.3028" lon="5.45967">
        <ele>573</ele>
        <time>2013-12-14T13:00:53Z</time>
      </trkpt>
      <trkpt lat="45.30283" lon="5.45972">
        <ele>575</ele>
        <time>2013-12-14T13:00:58Z</time>
      </trkpt>
      <trkpt lat="45.30288" lon="5.45983">
        <ele>576</ele>
        <time>2013-12-14T13:01:07Z</time>
      </trkpt>
      <trkpt lat="45.3029" lon="5.45991">
        <ele>577</ele>
        <time>2013-12-14T13:01:12Z</time>
      </trkpt>
      <trkpt lat="45.30291" lon="5.46008">
        <ele>578</ele>
        <time>2013-12-14T13:01:25Z</time>
      </trkpt>
      <trkpt lat="45.30288" lon="5.46024">
        <ele>579</ele>
        <time>2013-12-14T13:01:37Z</time>
      </trkpt>
      <trkpt lat="45.30288" lon="5.46029">
        <ele>579</ele>
        <time>2013-12-14T13:01:40Z</time>
      </trkpt>
      <trkpt lat="45.30288" lon="5.46032">
        <ele>580</ele>
        <time>2013-12-14T13:01:42Z</time>
      </trkpt>
      <trkpt lat="45.30286" lon="5.46036">
        <ele>580</ele>
        <time>2013-12-14T13:01:46Z</time>
      </trkpt>
      <trkpt lat="45.30284" lon="5.46061">
        <ele>582</ele>
        <time>2013-12-14T13:02:00Z</time>
      </trkpt>
      <trkpt lat="45.30285" lon="5.46082">
        <ele>583</ele>
        <time>2013-12-14T13:02:12Z</time>
      </trkpt>
      <trkpt lat="45.30286" lon="5.46102">
        <ele>585</ele>
        <time>2013-12-14T13:02:24Z</time>
      </trkpt>
      <trkpt lat="45.30288" lon="5.46121">
        <ele>587</ele>
        <time>2013-12-14T13:02:36Z</time>
      </trkpt>
      <trkpt lat="45.30294" lon="5.46144">
        <ele>588</ele>
        <time>2013-12-14T13:02:51Z</time>
      </trkpt>
      <trkpt lat="45.30296" lon="5.46155">
        <ele>589</ele>
        <time>2013-12-14T13:02:59Z</time>
      </trkpt>
      <trkpt lat="45.30299" lon="5.46162">
        <ele>589</ele>
        <time>2013-12-14T13:03:04Z</time>
      </trkpt>
      <trkpt lat="45.30301" lon="5.46171">
        <ele>591</ele>
        <time>2013-12-14T13:03:10Z</time>
      </trkpt>
      <trkpt lat="45.30304" lon="5.46187">
        <ele>592</ele>
        <time>2013-12-14T13:03:22Z</time>
      </trkpt>
      <trkpt lat="45.30307" lon="5.46204">
        <ele>594</ele>
        <time>2013-12-14T13:03:34Z</time>
      </trkpt>
      <trkpt lat="45.3031" lon="5.46218">
        <ele>595</ele>
        <time>2013-12-14T13:03:46Z</time>
      </trkpt>
      <trkpt lat="45.30312" lon="5.46234">
        <ele>597</ele>
        <time>2013-12-14T13:03:58Z</time>
      </trkpt>
      <trkpt lat="45.30312" lon="5.46254">
        <ele>599</ele>
        <time>2013-12-14T13:04:11Z</time>
      </trkpt>
      <trkpt lat="45.30311" lon="5.46263">
        <ele>600</ele>
        <time>2013-12-14T13:04:18Z</time>
      </trkpt>
      <trkpt lat="45.30308" lon="5.46283">
        <ele>600</ele>
        <time>2013-12-14T13:04:31Z</time>
      </trkpt>
      <trkpt lat="45.30306" lon="5.46304">
        <ele>603</ele>
        <time>2013-12-14T13:04:44Z</time>
      </trkpt>
      <trkpt lat="45.30305" lon="5.46326">
        <ele>604</ele>
        <time>2013-12-14T13:04:57Z</time>
      </trkpt>
      <trkpt lat="45.30305" lon="5.4633">
        <ele>605</ele>
        <time>2013-12-14T13:05:00Z</time>
      </trkpt>
      <trkpt lat="45.30305" lon="5.46339">
        <ele>605</ele>
        <time>2013-12-14T13:05:06Z</time>
      </trkpt>
      <trkpt lat="45.30307" lon="5.46361">
        <ele>607</ele>
        <time>2013-12-14T13:05:20Z</time>
      </trkpt>
      <trkpt lat="45.30311" lon="5.46375">
        <ele>609</ele>
        <time>2013-12-14T13:05:30Z</time>
      </trkpt>
      <trkpt lat="45.30311" lon="5.46386">
        <ele>610</ele>
        <time>2013-12-14T13:05:37Z</time>
      </trkpt>
      <trkpt lat="45.30317" lon="5.46408">
        <ele>612</ele>
        <time>2013-12-14T13:05:51Z</time>
      </trkpt>
      <trkpt lat="45.3032" lon="5.46425">
        <ele>613</ele>
        <time>2013-12-14T13:06:02Z</time>
      </trkpt>
      <trkpt lat="45.30325" lon="5.46442">
        <ele>616</ele>
        <time>2013-12-14T13:06:15Z</time>
      </trkpt>
      <trkpt lat="45.30326" lon="5.4645">
        <ele>616</ele>
        <time>2013-12-14T13:06:20Z</time>
      </trkpt>
      <trkpt lat="45.30329" lon="5.46458">
        <ele>617</ele>
        <time>2013-12-14T13:06:26Z</time>
      </trkpt>
      <trkpt lat="45.30333" lon="5.46478">
        <ele>619</ele>
        <time>2013-12-14T13:06:40Z</time>
      </trkpt>
      <trkpt lat="45.30343" lon="5.46482">
        <ele>621</ele>
        <time>2013-12-14T13:06:54Z</time>
      </trkpt>
      <trkpt lat="45.30345" lon="5.46474">
        <ele>621</ele>
        <time>2013-12-14T13:07:02Z</time>
      </trkpt>
      <trkpt lat="45.30346" lon="5.4646">
        <ele>623</ele>
        <time>2013-12-14T13:07:14Z</time>
      </trkpt>
      <trkpt lat="45.30347" lon="5.4646">
        <ele>622</ele>
        <time>2013-12-14T13:07:34Z</time>
      </trkpt>
      <trkpt lat="45.30345" lon="5.46463">
        <ele>622</ele>
        <time>2013-12-14T13:08:03Z</time>
      </trkpt>
      <trkpt lat="45.30341" lon="5.46462">
        <ele>622</ele>
        <time>2013-12-14T13:08:31Z</time>
      </trkpt>
      <trkpt lat="45.3034" lon="5.46465">
        <ele>622</ele>
        <time>2013-12-14T13:09:02Z</time>
      </trkpt>
      <trkpt lat="45.30339" lon="5.46464">
        <ele>622</ele>
        <time>2013-12-14T13:09:24Z</time>
      </trkpt>
      <trkpt lat="45.3034" lon="5.46464">
        <ele>622</ele>
        <time>2013-12-14T13:09:59Z</time>
      </trkpt>
      <trkpt lat="45.30341" lon="5.46464">
        <ele>622</ele>
        <time>2013-12-14T13:10:06Z</time>
      </trkpt>
      <trkpt lat="45.3034" lon="5.46459">
        <ele>624</ele>
        <time>2013-12-14T13:10:11Z</time>
      </trkpt>
      <trkpt lat="45.30341" lon="5.46445">
        <ele>624</ele>
        <time>2013-12-14T13:10:22Z</time>
      </trkpt>
      <trkpt lat="45.30342" lon="5.46439">
        <ele>624</ele>
        <time>2013-12-14T13:10:35Z</time>
      </trkpt>
      <trkpt lat="45.30343" lon="5.46432">
        <ele>624</ele>
        <time>2013-12-14T13:11:04Z</time>
      </trkpt>
      <trkpt lat="45.30343" lon="5.46429">
        <ele>624</ele>
        <time>2013-12-14T13:11:06Z</time>
      </trkpt>
      <trkpt lat="45.30343" lon="5.46403">
        <ele>626</ele>
        <time>2013-12-14T13:11:23Z</time>
      </trkpt>
      <trkpt lat="45.30344" lon="5.46392">
        <ele>627</ele>
        <time>2013-12-14T13:11:30Z</time>
      </trkpt>
      <trkpt lat="45.30347" lon="5.46369">
        <ele>630</ele>
        <time>2013-12-14T13:11:45Z</time>
      </trkpt>
      <trkpt lat="45.30347" lon="5.46367">
        <ele>629</ele>
        <time>2013-12-14T13:11:46Z</time>
      </trkpt>
      <trkpt lat="45.30351" lon="5.46345">
        <ele>631</ele>
        <time>2013-12-14T13:12:00Z</time>
      </trkpt>
      <trkpt lat="45.30355" lon="5.46326">
        <ele>632</ele>
        <time>2013-12-14T13:12:12Z</time>
      </trkpt>
      <trkpt lat="45.30359" lon="5.46306">
        <ele>633</ele>
        <time>2013-12-14T13:12:25Z</time>
      </trkpt>
      <trkpt lat="45.30363" lon="5.46288">
        <ele>634</ele>
        <time>2013-12-14T13:12:37Z</time>
      </trkpt>
      <trkpt lat="45.30367" lon="5.46269">
        <ele>635</ele>
        <time>2013-12-14T13:12:50Z</time>
      </trkpt>
      <trkpt lat="45.30372" lon="5.46243">
        <ele>638</ele>
        <time>2013-12-14T13:13:07Z</time>
      </trkpt>
      <trkpt lat="45.30374" lon="5.46235">
        <ele>638</ele>
        <time>2013-12-14T13:13:13Z</time>
      </trkpt>
      <trkpt lat="45.30381" lon="5.46207">
        <ele>641</ele>
        <time>2013-12-14T13:13:30Z</time>
      </trkpt>
      <trkpt lat="45.30382" lon="5.46191">
        <ele>643</ele>
        <time>2013-12-14T13:13:44Z</time>
      </trkpt>
      <trkpt lat="45.30382" lon="5.46177">
        <ele>644</ele>
        <time>2013-12-14T13:13:54Z</time>
      </trkpt>
      <trkpt lat="45.30383" lon="5.46153">
        <ele>646</ele>
        <time>2013-12-14T13:14:08Z</time>
      </trkpt>
      <trkpt lat="45.30385" lon="5.46137">
        <ele>647</ele>
        <time>2013-12-14T13:14:17Z</time>
      </trkpt>
      <trkpt lat="45.30389" lon="5.46119">
        <ele>649</ele>
        <time>2013-12-14T13:14:29Z</time>
      </trkpt>
      <trkpt lat="45.30394" lon="5.46108">
        <ele>651</ele>
        <time>2013-12-14T13:14:38Z</time>
      </trkpt>
      <trkpt lat="45.304" lon="5.46097">
        <ele>652</ele>
        <time>2013-12-14T13:14:48Z</time>
      </trkpt>
      <trkpt lat="45.30406" lon="5.46085">
        <ele>654</ele>
        <time>2013-12-14T13:14:58Z</time>
      </trkpt>
      <trkpt lat="45.30409" lon="5.46081">
        <ele>654</ele>
        <time>2013-12-14T13:15:03Z</time>
      </trkpt>
      <trkpt lat="45.30416" lon="5.46072">
        <ele>655</ele>
        <time>2013-12-14T13:15:12Z</time>
      </trkpt>
      <trkpt lat="45.30426" lon="5.4606">
        <ele>656</ele>
        <time>2013-12-14T13:15:25Z</time>
      </trkpt>
      <trkpt lat="45.30428" lon="5.46058">
        <ele>657</ele>
        <time>2013-12-14T13:15:27Z</time>
      </trkpt>
      <trkpt lat="45.30431" lon="5.46053">
        <ele>657</ele>
        <time>2013-12-14T13:15:31Z</time>
      </trkpt>
      <trkpt lat="45.30437" lon="5.46046">
        <ele>658</ele>
        <time>2013-12-14T13:15:38Z</time>
      </trkpt>
      <trkpt lat="45.30443" lon="5.46038">
        <ele>659</ele>
        <time>2013-12-14T13:15:45Z</time>
      </trkpt>
      <trkpt lat="45.30444" lon="5.46035">
        <ele>659</ele>
        <time>2013-12-14T13:15:48Z</time>
      </trkpt>
      <trkpt lat="45.30448" lon="5.46029">
        <ele>660</ele>
        <time>2013-12-14T13:15:52Z</time>
      </trkpt>
      <trkpt lat="45.3045" lon="5.46025">
        <ele>660</ele>
        <time>2013-12-14T13:15:55Z</time>
      </trkpt>
      <trkpt lat="45.30455" lon="5.46018">
        <ele>661</ele>
        <time>2013-12-14T13:16:02Z</time>
      </trkpt>
      <trkpt lat="45.3046" lon="5.46005">
        <ele>662</ele>
        <time>2013-12-14T13:16:10Z</time>
      </trkpt>
      <trkpt lat="45.30464" lon="5.45996">
        <ele>662</ele>
        <time>2013-12-14T13:16:17Z</time>
      </trkpt>
      <trkpt lat="45.30471" lon="5.45987">
        <ele>663</ele>
        <time>2013-12-14T13:16:25Z</time>
      </trkpt>
      <trkpt lat="45.30473" lon="5.45982">
        <ele>663</ele>
        <time>2013-12-14T13:16:29Z</time>
      </trkpt>
      <trkpt lat="45.30484" lon="5.45968">
        <ele>664</ele>
        <time>2013-12-14T13:16:41Z</time>
      </trkpt>
      <trkpt lat="45.30487" lon="5.45962">
        <ele>664</ele>
        <time>2013-12-14T13:16:46Z</time>
      </trkpt>
      <trkpt lat="45.3049" lon="5.45955">
        <ele>664</ele>
        <time>2013-12-14T13:16:51Z</time>
      </trkpt>
      <trkpt lat="45.30496" lon="5.45937">
        <ele>667</ele>
        <time>2013-12-14T13:17:05Z</time>
      </trkpt>
      <trkpt lat="45.30495" lon="5.45925">
        <ele>668</ele>
        <time>2013-12-14T13:17:16Z</time>
      </trkpt>
      <trkpt lat="45.30495" lon="5.45922">
        <ele>667</ele>
        <time>2013-12-14T13:17:19Z</time>
      </trkpt>
      <trkpt lat="45.30491" lon="5.45899">
        <ele>668</ele>
        <time>2013-12-14T13:17:33Z</time>
      </trkpt>
      <trkpt lat="45.30488" lon="5.45879">
        <ele>669</ele>
        <time>2013-12-14T13:17:46Z</time>
      </trkpt>
      <trkpt lat="45.30487" lon="5.4586">
        <ele>671</ele>
        <time>2013-12-14T13:17:58Z</time>
      </trkpt>
      <trkpt lat="45.30486" lon="5.45837">
        <ele>672</ele>
        <time>2013-12-14T13:18:11Z</time>
      </trkpt>
      <trkpt lat="45.30482" lon="5.45819">
        <ele>674</ele>
        <time>2013-12-14T13:18:23Z</time>
      </trkpt>
      <trkpt lat="45.30475" lon="5.45793">
        <ele>676</ele>
        <time>2013-12-14T13:18:41Z</time>
      </trkpt>
      <trkpt lat="45.30469" lon="5.45773">
        <ele>677</ele>
        <time>2013-12-14T13:18:54Z</time>
      </trkpt>
      <trkpt lat="45.30468" lon="5.45766">
        <ele>677</ele>
        <time>2013-12-14T13:18:59Z</time>
      </trkpt>
      <trkpt lat="45.30467" lon="5.45754">
        <ele>678</ele>
        <time>2013-12-14T13:19:06Z</time>
      </trkpt>
      <trkpt lat="45.30467" lon="5.45727">
        <ele>679</ele>
        <time>2013-12-14T13:19:22Z</time>
      </trkpt>
      <trkpt lat="45.30467" lon="5.45726">
        <ele>679</ele>
        <time>2013-12-14T13:19:23Z</time>
      </trkpt>
      <trkpt lat="45.30476" lon="5.45705">
        <ele>681</ele>
        <time>2013-12-14T13:19:37Z</time>
      </trkpt>
      <trkpt lat="45.30487" lon="5.4569">
        <ele>682</ele>
        <time>2013-12-14T13:19:49Z</time>
      </trkpt>
      <trkpt lat="45.30492" lon="5.45686">
        <ele>682</ele>
        <time>2013-12-14T13:19:54Z</time>
      </trkpt>
      <trkpt lat="45.30504" lon="5.45679">
        <ele>683</ele>
        <time>2013-12-14T13:20:07Z</time>
      </trkpt>
      <trkpt lat="45.30519" lon="5.45668">
        <ele>684</ele>
        <time>2013-12-14T13:20:20Z</time>
      </trkpt>
      <trkpt lat="45.30536" lon="5.45652">
        <ele>686</ele>
        <time>2013-12-14T13:20:37Z</time>
      </trkpt>
      <trkpt lat="45.30536" lon="5.45651">
        <ele>685</ele>
        <time>2013-12-14T13:20:38Z</time>
      </trkpt>
      <trkpt lat="45.3055" lon="5.45628">
        <ele>685</ele>
        <time>2013-12-14T13:20:57Z</time>
      </trkpt>
      <trkpt lat="45.30562" lon="5.45611">
        <ele>684</ele>
        <time>2013-12-14T13:21:11Z</time>
      </trkpt>
      <trkpt lat="45.30574" lon="5.45594">
        <ele>684</ele>
        <time>2013-12-14T13:21:26Z</time>
      </trkpt>
      <trkpt lat="45.30577" lon="5.4559">
        <ele>684</ele>
        <time>2013-12-14T13:21:29Z</time>
      </trkpt>
      <trkpt lat="45.3059" lon="5.45572">
        <ele>685</ele>
        <time>2013-12-14T13:21:45Z</time>
      </trkpt>
      <trkpt lat="45.30602" lon="5.45554">
        <ele>683</ele>
        <time>2013-12-14T13:21:59Z</time>
      </trkpt>
      <trkpt lat="45.30605" lon="5.45549">
        <ele>684</ele>
        <time>2013-12-14T13:22:03Z</time>
      </trkpt>
      <trkpt lat="45.30612" lon="5.45544">
        <ele>684</ele>
        <time>2013-12-14T13:22:11Z</time>
      </trkpt>
      <trkpt lat="45.30621" lon="5.45542">
        <ele>684</ele>
        <time>2013-12-14T13:22:23Z</time>
      </trkpt>
      <trkpt lat="45.30625" lon="5.45542">
        <ele>684</ele>
        <time>2013-12-14T13:22:35Z</time>
      </trkpt>
      <trkpt lat="45.30634" lon="5.45538">
        <ele>683</ele>
        <time>2013-12-14T13:23:04Z</time>
      </trkpt>
      <trkpt lat="45.30642" lon="5.45536">
        <ele>684</ele>
        <time>2013-12-14T13:23:12Z</time>
      </trkpt>
      <trkpt lat="45.30647" lon="5.45534">
        <ele>684</ele>
        <time>2013-12-14T13:23:16Z</time>
      </trkpt>
      <trkpt lat="45.30664" lon="5.4553">
        <ele>686</ele>
        <time>2013-12-14T13:23:32Z</time>
      </trkpt>
      <trkpt lat="45.30685" lon="5.45525">
        <ele>686</ele>
        <time>2013-12-14T13:23:48Z</time>
      </trkpt>
      <trkpt lat="45.30705" lon="5.45526">
        <ele>686</ele>
        <time>2013-12-14T13:24:05Z</time>
      </trkpt>
      <trkpt lat="45.30727" lon="5.45537">
        <ele>684</ele>
        <time>2013-12-14T13:24:25Z</time>
      </trkpt>
      <trkpt lat="45.30732" lon="5.45543">
        <ele>677</ele>
        <time>2013-12-14T13:24:30Z</time>
      </trkpt>
      <trkpt lat="45.30733" lon="5.45545">
        <ele>685</ele>
        <time>2013-12-14T13:24:31Z</time>
      </trkpt>
      <trkpt lat="45.30747" lon="5.45564">
        <ele>683</ele>
        <time>2013-12-14T13:24:48Z</time>
      </trkpt>
      <trkpt lat="45.30751" lon="5.45569">
        <ele>682</ele>
        <time>2013-12-14T13:24:52Z</time>
      </trkpt>
      <trkpt lat="45.3076" lon="5.45587">
        <ele>681</ele>
        <time>2013-12-14T13:25:05Z</time>
      </trkpt>
      <trkpt lat="45.30775" lon="5.45615">
        <ele>680</ele>
        <time>2013-12-14T13:25:25Z</time>
      </trkpt>
      <trkpt lat="45.30789" lon="5.45639">
        <ele>680</ele>
        <time>2013-12-14T13:25:42Z</time>
      </trkpt>
      <trkpt lat="45.30792" lon="5.45646">
        <ele>679</ele>
        <time>2013-12-14T13:25:47Z</time>
      </trkpt>
      <trkpt lat="45.30797" lon="5.45654">
        <ele>680</ele>
        <time>2013-12-14T13:25:53Z</time>
      </trkpt>
      <trkpt lat="45.30812" lon="5.45675">
        <ele>679</ele>
        <time>2013-12-14T13:26:10Z</time>
      </trkpt>
      <trkpt lat="45.30817" lon="5.45684">
        <ele>680</ele>
        <time>2013-12-14T13:26:26Z</time>
      </trkpt>
      <trkpt lat="45.30822" lon="5.45698">
        <ele>681</ele>
        <time>2013-12-14T13:26:39Z</time>
      </trkpt>
      <trkpt lat="45.30825" lon="5.45704">
        <ele>682</ele>
        <time>2013-12-14T13:26:51Z</time>
      </trkpt>
      <trkpt lat="45.30829" lon="5.45722">
        <ele>682</ele>
        <time>2013-12-14T13:27:04Z</time>
      </trkpt>
      <trkpt lat="45.30831" lon="5.45732">
        <ele>683</ele>
        <time>2013-12-14T13:27:16Z</time>
      </trkpt>
      <trkpt lat="45.30833" lon="5.45738">
        <ele>683</ele>
        <time>2013-12-14T13:27:40Z</time>
      </trkpt>
      <trkpt lat="45.30835" lon="5.45756">
        <ele>685</ele>
        <time>2013-12-14T13:27:52Z</time>
      </trkpt>
      <trkpt lat="45.30837" lon="5.45769">
        <ele>686</ele>
        <time>2013-12-14T13:28:01Z</time>
      </trkpt>
      <trkpt lat="45.30837" lon="5.45772">
        <ele>686</ele>
        <time>2013-12-14T13:28:03Z</time>
      </trkpt>
      <trkpt lat="45.30839" lon="5.4579">
        <ele>687</ele>
        <time>2013-12-14T13:28:16Z</time>
      </trkpt>
      <trkpt lat="45.30843" lon="5.45806">
        <ele>689</ele>
        <time>2013-12-14T13:28:28Z</time>
      </trkpt>
      <trkpt lat="45.30848" lon="5.45828">
        <ele>691</ele>
        <time>2013-12-14T13:28:44Z</time>
      </trkpt>
      <trkpt lat="45.30849" lon="5.45829">
        <ele>691</ele>
        <time>2013-12-14T13:28:45Z</time>
      </trkpt>
      <trkpt lat="45.30854" lon="5.45845">
        <ele>693</ele>
        <time>2013-12-14T13:28:58Z</time>
      </trkpt>
      <trkpt lat="45.30857" lon="5.45858">
        <ele>695</ele>
        <time>2013-12-14T13:29:10Z</time>
      </trkpt>
      <trkpt lat="45.30858" lon="5.45862">
        <ele>695</ele>
        <time>2013-12-14T13:29:14Z</time>
      </trkpt>
      <trkpt lat="45.30858" lon="5.4588">
        <ele>696</ele>
        <time>2013-12-14T13:29:28Z</time>
      </trkpt>
      <trkpt lat="45.30859" lon="5.45889">
        <ele>696</ele>
        <time>2013-12-14T13:29:35Z</time>
      </trkpt>
      <trkpt lat="45.3086" lon="5.45893">
        <ele>697</ele>
        <time>2013-12-14T13:29:39Z</time>
      </trkpt>
      <trkpt lat="45.30861" lon="5.45902">
        <ele>697</ele>
        <time>2013-12-14T13:29:46Z</time>
      </trkpt>
      <trkpt lat="45.30861" lon="5.45919">
        <ele>698</ele>
        <time>2013-12-14T13:29:59Z</time>
      </trkpt>
      <trkpt lat="45.30862" lon="5.45927">
        <ele>698</ele>
        <time>2013-12-14T13:30:07Z</time>
      </trkpt>
      <trkpt lat="45.30863" lon="5.45947">
        <ele>700</ele>
        <time>2013-12-14T13:30:21Z</time>
      </trkpt>
      <trkpt lat="45.30863" lon="5.45963">
        <ele>700</ele>
        <time>2013-12-14T13:30:33Z</time>
      </trkpt>
      <trkpt lat="45.30863" lon="5.4597">
        <ele>701</ele>
        <time>2013-12-14T13:30:39Z</time>
      </trkpt>
      <trkpt lat="45.30861" lon="5.45975">
        <ele>701</ele>
        <time>2013-12-14T13:30:44Z</time>
      </trkpt>
      <trkpt lat="45.3086" lon="5.45979">
        <ele>702</ele>
        <time>2013-12-14T13:30:47Z</time>
      </trkpt>
      <trkpt lat="45.3086" lon="5.45986">
        <ele>702</ele>
        <time>2013-12-14T13:30:52Z</time>
      </trkpt>
      <trkpt lat="45.30862" lon="5.45996">
        <ele>703</ele>
        <time>2013-12-14T13:31:00Z</time>
      </trkpt>
      <trkpt lat="45.30864" lon="5.46013">
        <ele>704</ele>
        <time>2013-12-14T13:31:13Z</time>
      </trkpt>
      <trkpt lat="45.30868" lon="5.4603">
        <ele>705</ele>
        <time>2013-12-14T13:31:26Z</time>
      </trkpt>
      <trkpt lat="45.30872" lon="5.46049">
        <ele>706</ele>
        <time>2013-12-14T13:31:39Z</time>
      </trkpt>
      <trkpt lat="45.30878" lon="5.46067">
        <ele>706</ele>
        <time>2013-12-14T13:31:52Z</time>
      </trkpt>
      <trkpt lat="45.30884" lon="5.46071">
        <ele>709</ele>
        <time>2013-12-14T13:32:03Z</time>
      </trkpt>
      <trkpt lat="45.30884" lon="5.46071">
        <ele>708</ele>
        <time>2013-12-14T13:32:04Z</time>
      </trkpt>
      <trkpt lat="45.30898" lon="5.46061">
        <ele>709</ele>
        <time>2013-12-14T13:32:19Z</time>
      </trkpt>
      <trkpt lat="45.30909" lon="5.46051">
        <ele>710</ele>
        <time>2013-12-14T13:32:31Z</time>
      </trkpt>
      <trkpt lat="45.3092" lon="5.4604">
        <ele>712</ele>
        <time>2013-12-14T13:32:44Z</time>
      </trkpt>
      <trkpt lat="45.30922" lon="5.46038">
        <ele>712</ele>
        <time>2013-12-14T13:32:47Z</time>
      </trkpt>
      <trkpt lat="45.30932" lon="5.46031">
        <ele>713</ele>
        <time>2013-12-14T13:33:00Z</time>
      </trkpt>
      <trkpt lat="45.30939" lon="5.4603">
        <ele>716</ele>
        <time>2013-12-14T13:33:11Z</time>
      </trkpt>
      <trkpt lat="45.30943" lon="5.46035">
        <ele>717</ele>
        <time>2013-12-14T13:33:25Z</time>
      </trkpt>
      <trkpt lat="45.30949" lon="5.46038">
        <ele>717</ele>
        <time>2013-12-14T13:33:38Z</time>
      </trkpt>
      <trkpt lat="45.30955" lon="5.4604">
        <ele>720</ele>
        <time>2013-12-14T13:33:51Z</time>
      </trkpt>
      <trkpt lat="45.30963" lon="5.46041">
        <ele>722</ele>
        <time>2013-12-14T13:34:05Z</time>
      </trkpt>
      <trkpt lat="45.30971" lon="5.46046">
        <ele>724</ele>
        <time>2013-12-14T13:34:17Z</time>
      </trkpt>
      <trkpt lat="45.30981" lon="5.46048">
        <ele>726</ele>
        <time>2013-12-14T13:34:31Z</time>
      </trkpt>
      <trkpt lat="45.3099" lon="5.46048">
        <ele>727</ele>
        <time>2013-12-14T13:34:45Z</time>
      </trkpt>
      <trkpt lat="45.30996" lon="5.4605">
        <ele>729</ele>
        <time>2013-12-14T13:34:56Z</time>
      </trkpt>
      <trkpt lat="45.31006" lon="5.46053">
        <ele>730</ele>
        <time>2013-12-14T13:35:08Z</time>
      </trkpt>
      <trkpt lat="45.31015" lon="5.46054">
        <ele>733</ele>
        <time>2013-12-14T13:35:20Z</time>
      </trkpt>
      <trkpt lat="45.31025" lon="5.46054">
        <ele>734</ele>
        <time>2013-12-14T13:35:34Z</time>
      </trkpt>
      <trkpt lat="45.31035" lon="5.46054">
        <ele>736</ele>
        <time>2013-12-14T13:35:47Z</time>
      </trkpt>
      <trkpt lat="45.31044" lon="5.46053">
        <ele>738</ele>
        <time>2013-12-14T13:35:59Z</time>
      </trkpt>
      <trkpt lat="45.31053" lon="5.46055">
        <ele>740</ele>
        <time>2013-12-14T13:36:10Z</time>
      </trkpt>
      <trkpt lat="45.31059" lon="5.46056">
        <ele>741</ele>
        <time>2013-12-14T13:36:16Z</time>
      </trkpt>
      <trkpt lat="45.31071" lon="5.46061">
        <ele>742</ele>
        <time>2013-12-14T13:36:29Z</time>
      </trkpt>
      <trkpt lat="45.31082" lon="5.46062">
        <ele>743</ele>
        <time>2013-12-14T13:36:40Z</time>
      </trkpt>
      <trkpt lat="45.31086" lon="5.46063">
        <ele>744</ele>
        <time>2013-12-14T13:36:45Z</time>
      </trkpt>
      <trkpt lat="45.31098" lon="5.46071">
        <ele>746</ele>
        <time>2013-12-14T13:36:59Z</time>
      </trkpt>
      <trkpt lat="45.31108" lon="5.4608">
        <ele>747</ele>
        <time>2013-12-14T13:37:13Z</time>
      </trkpt>
      <trkpt lat="45.31113" lon="5.46085">
        <ele>747</ele>
        <time>2013-12-14T13:37:19Z</time>
      </trkpt>
      <trkpt lat="45.31119" lon="5.46094">
        <ele>747</ele>
        <time>2013-12-14T13:37:28Z</time>
      </trkpt>
      <trkpt lat="45.3112" lon="5.46096">
        <ele>746</ele>
        <time>2013-12-14T13:37:30Z</time>
      </trkpt>
      <trkpt lat="45.31126" lon="5.46113">
        <ele>748</ele>
        <time>2013-12-14T13:37:42Z</time>
      </trkpt>
      <trkpt lat="45.31128" lon="5.46116">
        <ele>747</ele>
        <time>2013-12-14T13:37:45Z</time>
      </trkpt>
      <trkpt lat="45.31132" lon="5.46124">
        <ele>748</ele>
        <time>2013-12-14T13:37:51Z</time>
      </trkpt>
      <trkpt lat="45.31136" lon="5.46132">
        <ele>748</ele>
        <time>2013-12-14T13:37:58Z</time>
      </trkpt>
      <trkpt lat="45.31142" lon="5.46139">
        <ele>749</ele>
        <time>2013-12-14T13:38:06Z</time>
      </trkpt>
      <trkpt lat="45.31149" lon="5.46153">
        <ele>751</ele>
        <time>2013-12-14T13:38:18Z</time>
      </trkpt>
      <trkpt lat="45.31156" lon="5.4617">
        <ele>752</ele>
        <time>2013-12-14T13:38:30Z</time>
      </trkpt>
      <trkpt lat="45.31159" lon="5.46175">
        <ele>753</ele>
        <time>2013-12-14T13:38:34Z</time>
      </trkpt>
      <trkpt lat="45.31166" lon="5.46192">
        <ele>754</ele>
        <time>2013-12-14T13:38:48Z</time>
      </trkpt>
      <trkpt lat="45.31174" lon="5.46208">
        <ele>756</ele>
        <time>2013-12-14T13:39:01Z</time>
      </trkpt>
      <trkpt lat="45.31179" lon="5.4622">
        <ele>757</ele>
        <time>2013-12-14T13:39:11Z</time>
      </trkpt>
      <trkpt lat="45.31183" lon="5.46226">
        <ele>757</ele>
        <time>2013-12-14T13:39:17Z</time>
      </trkpt>
      <trkpt lat="45.31192" lon="5.46246">
        <ele>758</ele>
        <time>2013-12-14T13:39:32Z</time>
      </trkpt>
      <trkpt lat="45.31202" lon="5.46265">
        <ele>760</ele>
        <time>2013-12-14T13:39:47Z</time>
      </trkpt>
      <trkpt lat="45.31206" lon="5.46275">
        <ele>761</ele>
        <time>2013-12-14T13:39:53Z</time>
      </trkpt>
      <trkpt lat="45.31211" lon="5.46284">
        <ele>762</ele>
        <time>2013-12-14T13:40:01Z</time>
      </trkpt>
      <trkpt lat="45.31214" lon="5.46289">
        <ele>761</ele>
        <time>2013-12-14T13:40:06Z</time>
      </trkpt>
      <trkpt lat="45.31222" lon="5.46305">
        <ele>762</ele>
        <time>2013-12-14T13:40:19Z</time>
      </trkpt>
      <trkpt lat="45.31227" lon="5.46322">
        <ele>764</ele>
        <time>2013-12-14T13:40:31Z</time>
      </trkpt>
      <trkpt lat="45.31231" lon="5.46334">
        <ele>763</ele>
        <time>2013-12-14T13:40:44Z</time>
      </trkpt>
      <trkpt lat="45.31235" lon="5.46343">
        <ele>763</ele>
        <time>2013-12-14T13:40:51Z</time>
      </trkpt>
      <trkpt lat="45.31238" lon="5.46347">
        <ele>763</ele>
        <time>2013-12-14T13:40:55Z</time>
      </trkpt>
      <trkpt lat="45.31248" lon="5.46368">
        <ele>763</ele>
        <time>2013-12-14T13:41:12Z</time>
      </trkpt>
      <trkpt lat="45.31255" lon="5.46379">
        <ele>762</ele>
        <time>2013-12-14T13:41:26Z</time>
      </trkpt>
      <trkpt lat="45.31264" lon="5.46388">
        <ele>761</ele>
        <time>2013-12-14T13:41:40Z</time>
      </trkpt>
      <trkpt lat="45.31273" lon="5.46392">
        <ele>762</ele>
        <time>2013-12-14T13:41:55Z</time>
      </trkpt>
      <trkpt lat="45.31282" lon="5.46392">
        <ele>763</ele>
        <time>2013-12-14T13:42:05Z</time>
      </trkpt>
      <trkpt lat="45.31291" lon="5.46388">
        <ele>764</ele>
        <time>2013-12-14T13:42:19Z</time>
      </trkpt>
      <trkpt lat="45.31297" lon="5.46386">
        <ele>764</ele>
        <time>2013-12-14T13:42:44Z</time>
      </trkpt>
      <trkpt lat="45.31305" lon="5.46387">
        <ele>764</ele>
        <time>2013-12-14T13:42:59Z</time>
      </trkpt>
      <trkpt lat="45.31316" lon="5.46384">
        <ele>765</ele>
        <time>2013-12-14T13:43:15Z</time>
      </trkpt>
      <trkpt lat="45.31329" lon="5.46383">
        <ele>763</ele>
        <time>2013-12-14T13:43:31Z</time>
      </trkpt>
      <trkpt lat="45.31344" lon="5.46383">
        <ele>762</ele>
        <time>2013-12-14T13:43:45Z</time>
      </trkpt>
      <trkpt lat="45.31345" lon="5.46383">
        <ele>761</ele>
        <time>2013-12-14T13:43:46Z</time>
      </trkpt>
      <trkpt lat="45.31358" lon="5.46384">
        <ele>761</ele>
        <time>2013-12-14T13:43:59Z</time>
      </trkpt>
      <trkpt lat="45.31375" lon="5.46383">
        <ele>759</ele>
        <time>2013-12-14T13:44:14Z</time>
      </trkpt>
      <trkpt lat="45.31389" lon="5.46383">
        <ele>757</ele>
        <time>2013-12-14T13:44:27Z</time>
      </trkpt>
      <trkpt lat="45.31395" lon="5.46381">
        <ele>756</ele>
        <time>2013-12-14T13:44:34Z</time>
      </trkpt>
      <trkpt lat="45.31401" lon="5.46372">
        <ele>755</ele>
        <time>2013-12-14T13:44:49Z</time>
      </trkpt>
      <trkpt lat="45.31403" lon="5.4637">
        <ele>754</ele>
        <time>2013-12-14T13:45:05Z</time>
      </trkpt>
      <trkpt lat="45.3141" lon="5.46351">
        <ele>754</ele>
        <time>2013-12-14T13:45:21Z</time>
      </trkpt>
      <trkpt lat="45.31415" lon="5.4633">
        <ele>752</ele>
        <time>2013-12-14T13:45:37Z</time>
      </trkpt>
      <trkpt lat="45.31423" lon="5.46317">
        <ele>750</ele>
        <time>2013-12-14T13:45:50Z</time>
      </trkpt>
      <trkpt lat="45.31426" lon="5.46315">
        <ele>750</ele>
        <time>2013-12-14T13:45:53Z</time>
      </trkpt>
      <trkpt lat="45.31439" lon="5.46312">
        <ele>748</ele>
        <time>2013-12-14T13:46:08Z</time>
      </trkpt>
      <trkpt lat="45.31451" lon="5.46311">
        <ele>747</ele>
        <time>2013-12-14T13:46:22Z</time>
      </trkpt>
      <trkpt lat="45.31455" lon="5.4631">
        <ele>746</ele>
        <time>2013-12-14T13:46:26Z</time>
      </trkpt>
      <trkpt lat="45.31465" lon="5.4631">
        <ele>744</ele>
        <time>2013-12-14T13:46:39Z</time>
      </trkpt>
      <trkpt lat="45.31476" lon="5.46305">
        <ele>743</ele>
        <time>2013-12-14T13:46:53Z</time>
      </trkpt>
      <trkpt lat="45.31485" lon="5.46303">
        <ele>740</ele>
        <time>2013-12-14T13:47:05Z</time>
      </trkpt>
      <trkpt lat="45.315" lon="5.46302">
        <ele>739</ele>
        <time>2013-12-14T13:47:18Z</time>
      </trkpt>
      <trkpt lat="45.31514" lon="5.46302">
        <ele>736</ele>
        <time>2013-12-14T13:47:32Z</time>
      </trkpt>
      <trkpt lat="45.31524" lon="5.46298">
        <ele>734</ele>
        <time>2013-12-14T13:47:45Z</time>
      </trkpt>
      <trkpt lat="45.31538" lon="5.46294">
        <ele>731</ele>
        <time>2013-12-14T13:47:59Z</time>
      </trkpt>
      <trkpt lat="45.31551" lon="5.4629">
        <ele>730</ele>
        <time>2013-12-14T13:48:13Z</time>
      </trkpt>
      <trkpt lat="45.31565" lon="5.46289">
        <ele>728</ele>
        <time>2013-12-14T13:48:26Z</time>
      </trkpt>
      <trkpt lat="45.31577" lon="5.46294">
        <ele>726</ele>
        <time>2013-12-14T13:48:38Z</time>
      </trkpt>
      <trkpt lat="45.3159" lon="5.46291">
        <ele>723</ele>
        <time>2013-12-14T13:48:51Z</time>
      </trkpt>
      <trkpt lat="45.316" lon="5.4629">
        <ele>721</ele>
        <time>2013-12-14T13:49:04Z</time>
      </trkpt>
      <trkpt lat="45.31611" lon="5.46291">
        <ele>720</ele>
        <time>2013-12-14T13:49:17Z</time>
      </trkpt>
      <trkpt lat="45.3162" lon="5.46291">
        <ele>718</ele>
        <time>2013-12-14T13:49:31Z</time>
      </trkpt>
      <trkpt lat="45.31631" lon="5.46289">
        <ele>715</ele>
        <time>2013-12-14T13:49:46Z</time>
      </trkpt>
      <trkpt lat="45.31641" lon="5.46282">
        <ele>711</ele>
        <time>2013-12-14T13:50:02Z</time>
      </trkpt>
      <trkpt lat="45.31651" lon="5.46277">
        <ele>709</ele>
        <time>2013-12-14T13:50:16Z</time>
      </trkpt>
      <trkpt lat="45.31662" lon="5.46269">
        <ele>708</ele>
        <time>2013-12-14T13:50:28Z</time>
      </trkpt>
      <trkpt lat="45.31667" lon="5.46261">
        <ele>705</ele>
        <time>2013-12-14T13:50:41Z</time>
      </trkpt>
      <trkpt lat="45.3167" lon="5.46259">
        <ele>703</ele>
        <time>2013-12-14T13:50:57Z</time>
      </trkpt>
      <trkpt lat="45.31677" lon="5.46261">
        <ele>702</ele>
        <time>2013-12-14T13:51:14Z</time>
      </trkpt>
      <trkpt lat="45.3168" lon="5.4627">
        <ele>701</ele>
        <time>2013-12-14T13:51:24Z</time>
      </trkpt>
      <trkpt lat="45.31681" lon="5.46271">
        <ele>701</ele>
        <time>2013-12-14T13:51:26Z</time>
      </trkpt>
      <trkpt lat="45.31688" lon="5.4628">
        <ele>700</ele>
        <time>2013-12-14T13:51:39Z</time>
      </trkpt>
      <trkpt lat="45.3169" lon="5.46291">
        <ele>699</ele>
        <time>2013-12-14T13:51:51Z</time>
      </trkpt>
      <trkpt lat="45.3169" lon="5.46295">
        <ele>698</ele>
        <time>2013-12-14T13:51:54Z</time>
      </trkpt>
      <trkpt lat="45.3169" lon="5.4632">
        <ele>696</ele>
        <time>2013-12-14T13:52:11Z</time>
      </trkpt>
      <trkpt lat="45.31688" lon="5.46335">
        <ele>694</ele>
        <time>2013-12-14T13:52:26Z</time>
      </trkpt>
      <trkpt lat="45.31684" lon="5.46349">
        <ele>692</ele>
        <time>2013-12-14T13:52:38Z</time>
      </trkpt>
      <trkpt lat="45.31681" lon="5.46362">
        <ele>690</ele>
        <time>2013-12-14T13:52:50Z</time>
      </trkpt>
      <trkpt lat="45.31677" lon="5.46372">
        <ele>689</ele>
        <time>2013-12-14T13:52:59Z</time>
      </trkpt>
      <trkpt lat="45.31667" lon="5.46389">
        <ele>687</ele>
        <time>2013-12-14T13:53:14Z</time>
      </trkpt>
      <trkpt lat="45.31661" lon="5.46401">
        <ele>686</ele>
        <time>2013-12-14T13:53:25Z</time>
      </trkpt>
      <trkpt lat="45.31657" lon="5.46423">
        <ele>685</ele>
        <time>2013-12-14T13:53:40Z</time>
      </trkpt>
      <trkpt lat="45.31655" lon="5.46438">
        <ele>683</ele>
        <time>2013-12-14T13:53:53Z</time>
      </trkpt>
      <trkpt lat="45.31651" lon="5.46453">
        <ele>681</ele>
        <time>2013-12-14T13:54:04Z</time>
      </trkpt>
      <trkpt lat="45.31648" lon="5.46469">
        <ele>679</ele>
        <time>2013-12-14T13:54:18Z</time>
      </trkpt>
      <trkpt lat="45.31648" lon="5.46491">
        <ele>677</ele>
        <time>2013-12-14T13:54:31Z</time>
      </trkpt>
      <trkpt lat="45.31651" lon="5.46506">
        <ele>676</ele>
        <time>2013-12-14T13:54:45Z</time>
      </trkpt>
      <trkpt lat="45.31648" lon="5.46523">
        <ele>676</ele>
        <time>2013-12-14T13:54:56Z</time>
      </trkpt>
      <trkpt lat="45.31648" lon="5.46539">
        <ele>674</ele>
        <time>2013-12-14T13:55:08Z</time>
      </trkpt>
      <trkpt lat="45.31647" lon="5.46555">
        <ele>672</ele>
        <time>2013-12-14T13:55:19Z</time>
      </trkpt>
      <trkpt lat="45.31653" lon="5.46567">
        <ele>670</ele>
        <time>2013-12-14T13:55:33Z</time>
      </trkpt>
      <trkpt lat="45.31658" lon="5.46577">
        <ele>666</ele>
        <time>2013-12-14T13:55:46Z</time>
      </trkpt>
      <trkpt lat="45.31662" lon="5.46591">
        <ele>664</ele>
        <time>2013-12-14T13:56:00Z</time>
      </trkpt>
      <trkpt lat="45.31668" lon="5.46608">
        <ele>661</ele>
        <time>2013-12-14T13:56:14Z</time>
      </trkpt>
      <trkpt lat="45.31673" lon="5.46618">
        <ele>658</ele>
        <time>2013-12-14T13:56:24Z</time>
      </trkpt>
      <trkpt lat="45.31678" lon="5.46628">
        <ele>657</ele>
        <time>2013-12-14T13:56:32Z</time>
      </trkpt>
      <trkpt lat="45.31683" lon="5.46636">
        <ele>654</ele>
        <time>2013-12-14T13:56:44Z</time>
      </trkpt>
      <trkpt lat="45.31688" lon="5.46645">
        <ele>650</ele>
        <time>2013-12-14T13:56:56Z</time>
      </trkpt>
      <trkpt lat="45.31698" lon="5.46653">
        <ele>649</ele>
        <time>2013-12-14T13:57:11Z</time>
      </trkpt>
      <trkpt lat="45.3171" lon="5.46664">
        <ele>646</ele>
        <time>2013-12-14T13:57:28Z</time>
      </trkpt>
      <trkpt lat="45.31718" lon="5.46668">
        <ele>644</ele>
        <time>2013-12-14T13:57:42Z</time>
      </trkpt>
      <trkpt lat="45.31726" lon="5.46671">
        <ele>641</ele>
        <time>2013-12-14T13:57:54Z</time>
      </trkpt>
      <trkpt lat="45.31739" lon="5.4668">
        <ele>639</ele>
        <time>2013-12-14T13:58:09Z</time>
      </trkpt>
      <trkpt lat="45.3175" lon="5.46688">
        <ele>637</ele>
        <time>2013-12-14T13:58:23Z</time>
      </trkpt>
      <trkpt lat="45.31759" lon="5.46698">
        <ele>635</ele>
        <time>2013-12-14T13:58:36Z</time>
      </trkpt>
      <trkpt lat="45.31768" lon="5.46708">
        <ele>632</ele>
        <time>2013-12-14T13:58:50Z</time>
      </trkpt>
      <trkpt lat="45.31775" lon="5.46714">
        <ele>630</ele>
        <time>2013-12-14T13:59:00Z</time>
      </trkpt>
      <trkpt lat="45.31783" lon="5.46719">
        <ele>628</ele>
        <time>2013-12-14T13:59:14Z</time>
      </trkpt>
      <trkpt lat="45.31789" lon="5.46722">
        <ele>625</ele>
        <time>2013-12-14T13:59:27Z</time>
      </trkpt>
      <trkpt lat="45.31794" lon="5.46725">
        <ele>624</ele>
        <time>2013-12-14T13:59:41Z</time>
      </trkpt>
      <trkpt lat="45.31799" lon="5.46726">
        <ele>621</ele>
        <time>2013-12-14T13:59:49Z</time>
      </trkpt>
      <trkpt lat="45.31805" lon="5.46729">
        <ele>619</ele>
        <time>2013-12-14T14:00:02Z</time>
      </trkpt>
      <trkpt lat="45.31811" lon="5.46735">
        <ele>617</ele>
        <time>2013-12-14T14:00:15Z</time>
      </trkpt>
      <trkpt lat="45.31812" lon="5.46743">
        <ele>615</ele>
        <time>2013-12-14T14:00:32Z</time>
      </trkpt>
      <trkpt lat="45.31812" lon="5.46745">
        <ele>614</ele>
        <time>2013-12-14T14:00:34Z</time>
      </trkpt>
      <trkpt lat="45.31811" lon="5.46757">
        <ele>613</ele>
        <time>2013-12-14T14:00:48Z</time>
      </trkpt>
      <trkpt lat="45.31813" lon="5.46766">
        <ele>611</ele>
        <time>2013-12-14T14:00:58Z</time>
      </trkpt>
      <trkpt lat="45.31816" lon="5.46773">
        <ele>609</ele>
        <time>2013-12-14T14:01:11Z</time>
      </trkpt>
      <trkpt lat="45.31819" lon="5.46784">
        <ele>606</ele>
        <time>2013-12-14T14:01:24Z</time>
      </trkpt>
      <trkpt lat="45.31823" lon="5.46797">
        <ele>604</ele>
        <time>2013-12-14T14:01:41Z</time>
      </trkpt>
      <trkpt lat="45.31825" lon="5.46806">
        <ele>601</ele>
        <time>2013-12-14T14:01:54Z</time>
      </trkpt>
      <trkpt lat="45.31828" lon="5.46817">
        <ele>599</ele>
        <time>2013-12-14T14:02:06Z</time>
      </trkpt>
      <trkpt lat="45.31834" lon="5.46829">
        <ele>597</ele>
        <time>2013-12-14T14:02:20Z</time>
      </trkpt>
      <trkpt lat="45.31843" lon="5.46842">
        <ele>594</ele>
        <time>2013-12-14T14:02:36Z</time>
      </trkpt>
      <trkpt lat="45.31843" lon="5.46848">
        <ele>593</ele>
        <time>2013-12-14T14:02:53Z</time>
      </trkpt>
      <trkpt lat="45.31839" lon="5.46858">
        <ele>590</ele>
        <time>2013-12-14T14:03:08Z</time>
      </trkpt>
      <trkpt lat="45.31833" lon="5.46866">
        <ele>588</ele>
        <time>2013-12-14T14:03:22Z</time>
      </trkpt>
      <trkpt lat="45.31826" lon="5.46869">
        <ele>587</ele>
        <time>2013-12-14T14:03:37Z</time>
      </trkpt>
      <trkpt lat="45.3182" lon="5.4687">
        <ele>585</ele>
        <time>2013-12-14T14:03:48Z</time>
      </trkpt>
      <trkpt lat="45.3181" lon="5.4687">
        <ele>584</ele>
        <time>2013-12-14T14:04:02Z</time>
      </trkpt>
      <trkpt lat="45.31803" lon="5.4687">
        <ele>582</ele>
        <time>2013-12-14T14:04:16Z</time>
      </trkpt>
      <trkpt lat="45.31792" lon="5.46873">
        <ele>578</ele>
        <time>2013-12-14T14:04:31Z</time>
      </trkpt>
      <trkpt lat="45.31785" lon="5.46872">
        <ele>576</ele>
        <time>2013-12-14T14:04:45Z</time>
      </trkpt>
      <trkpt lat="45.31775" lon="5.46876">
        <ele>575</ele>
        <time>2013-12-14T14:04:59Z</time>
      </trkpt>
      <trkpt lat="45.31766" lon="5.4688">
        <ele>573</ele>
        <time>2013-12-14T14:05:12Z</time>
      </trkpt>
      <trkpt lat="45.31754" lon="5.46889">
        <ele>570</ele>
        <time>2013-12-14T14:05:28Z</time>
      </trkpt>
      <trkpt lat="45.31741" lon="5.46896">
        <ele>567</ele>
        <time>2013-12-14T14:05:46Z</time>
      </trkpt>
      <trkpt lat="45.31731" lon="5.46902">
        <ele>566</ele>
        <time>2013-12-14T14:06:00Z</time>
      </trkpt>
      <trkpt lat="45.31721" lon="5.46905">
        <ele>563</ele>
        <time>2013-12-14T14:06:11Z</time>
      </trkpt>
      <trkpt lat="45.31715" lon="5.46914">
        <ele>562</ele>
        <time>2013-12-14T14:06:25Z</time>
      </trkpt>
      <trkpt lat="45.31707" lon="5.46924">
        <ele>562</ele>
        <time>2013-12-14T14:06:36Z</time>
      </trkpt>
      <trkpt lat="45.317" lon="5.46929">
        <ele>562</ele>
        <time>2013-12-14T14:06:43Z</time>
      </trkpt>
      <trkpt lat="45.31684" lon="5.46937">
        <ele>560</ele>
        <time>2013-12-14T14:06:58Z</time>
      </trkpt>
      <trkpt lat="45.3167" lon="5.46949">
        <ele>559</ele>
        <time>2013-12-14T14:07:13Z</time>
      </trkpt>
      <trkpt lat="45.31658" lon="5.46968">
        <ele>557</ele>
        <time>2013-12-14T14:07:29Z</time>
      </trkpt>
      <trkpt lat="45.31656" lon="5.46976">
        <ele>557</ele>
        <time>2013-12-14T14:07:42Z</time>
      </trkpt>
      <trkpt lat="45.31654" lon="5.4698">
        <ele>557</ele>
        <time>2013-12-14T14:08:08Z</time>
      </trkpt>
      <trkpt lat="45.31655" lon="5.4698">
        <ele>557</ele>
        <time>2013-12-14T14:08:34Z</time>
      </trkpt>
      <trkpt lat="45.31656" lon="5.4698">
        <ele>557</ele>
        <time>2013-12-14T14:08:42Z</time>
      </trkpt>
    </trkseg>
  </trk>
</gpx>